<?xml version="1.0" encoding="UTF-8" standalone="no" ?>
<gpx xmlns="http://www.topografix.com/GPX/1/1" xmlns:xsi="http://www.w3.org/2001/XMLSchema-instance" xsi:schemaLocation="http://www.topografix.com/GPX/1/1 http://www.topografix.com/GPX/1/1/gpx.xsd" version="1.1" creator="VisuGPX - https://www.visugpx.com">
  <metadata>
    <name>2015-12-25 Pic de la Sauge</name>
    <desc><![CDATA[Joyeux Noël !]]></desc>
  </metadata>
  <trk>
    <name><![CDATA[2015-12-25 Pic de la Sauge]]></name>
    <trkseg>
      <trkpt lat="45.54266" lon="6.0437">
        <ele>877</ele>
        <time>2015-12-25T11:50:55Z</time>
      </trkpt>
      <trkpt lat="45.54268" lon="6.04368">
        <ele>877</ele>
        <time>2015-12-25T11:51:00Z</time>
      </trkpt>
      <trkpt lat="45.54275" lon="6.04363">
        <ele>884.039909666</ele>
        <time>2015-12-25T11:51:06Z</time>
      </trkpt>
      <trkpt lat="45.54285" lon="6.0436">
        <ele>888.509789647</ele>
        <time>2015-12-25T11:51:18Z</time>
      </trkpt>
      <trkpt lat="45.54286" lon="6.0436">
        <ele>888.509789647</ele>
        <time>2015-12-25T11:51:20Z</time>
      </trkpt>
      <trkpt lat="45.54286" lon="6.0436">
        <ele>888.509789647</ele>
        <time>2015-12-25T11:51:26Z</time>
      </trkpt>
      <trkpt lat="45.54294" lon="6.0436">
        <ele>891.951670187</ele>
        <time>2015-12-25T11:51:36Z</time>
      </trkpt>
      <trkpt lat="45.54298" lon="6.04363">
        <ele>891.951670187</ele>
        <time>2015-12-25T11:51:40Z</time>
      </trkpt>
      <trkpt lat="45.54307" lon="6.04372">
        <ele>895.262560319</ele>
        <time>2015-12-25T11:51:51Z</time>
      </trkpt>
      <trkpt lat="45.5431" lon="6.04375">
        <ele>895.262560319</ele>
        <time>2015-12-25T11:51:55Z</time>
      </trkpt>
      <trkpt lat="45.54319" lon="6.04382">
        <ele>898.521574661</ele>
        <time>2015-12-25T11:52:06Z</time>
      </trkpt>
      <trkpt lat="45.54324" lon="6.04387">
        <ele>898.521574661</ele>
        <time>2015-12-25T11:52:11Z</time>
      </trkpt>
      <trkpt lat="45.54334" lon="6.04397">
        <ele>901.293717779</ele>
        <time>2015-12-25T11:52:20Z</time>
      </trkpt>
      <trkpt lat="45.54337" lon="6.04405">
        <ele>901.293717779</ele>
        <time>2015-12-25T11:52:26Z</time>
      </trkpt>
      <trkpt lat="45.54343" lon="6.04419">
        <ele>904.519514744</ele>
        <time>2015-12-25T11:52:41Z</time>
      </trkpt>
      <trkpt lat="45.54346" lon="6.04426">
        <ele>904.519514744</ele>
        <time>2015-12-25T11:52:45Z</time>
      </trkpt>
      <trkpt lat="45.54351" lon="6.04436">
        <ele>907.187770475</ele>
        <time>2015-12-25T11:52:56Z</time>
      </trkpt>
      <trkpt lat="45.54354" lon="6.04442">
        <ele>907.187770475</ele>
        <time>2015-12-25T11:53:00Z</time>
      </trkpt>
      <trkpt lat="45.54356" lon="6.04454">
        <ele>910.738989426</ele>
        <time>2015-12-25T11:53:11Z</time>
      </trkpt>
      <trkpt lat="45.54358" lon="6.04454">
        <ele>910.738989426</ele>
        <time>2015-12-25T11:53:16Z</time>
      </trkpt>
      <trkpt lat="45.54363" lon="6.04459">
        <ele>910.738989426</ele>
        <time>2015-12-25T11:53:26Z</time>
      </trkpt>
      <trkpt lat="45.54364" lon="6.04466">
        <ele>912.658136485</ele>
        <time>2015-12-25T11:53:30Z</time>
      </trkpt>
      <trkpt lat="45.54374" lon="6.04481">
        <ele>914.402747875</ele>
        <time>2015-12-25T11:53:40Z</time>
      </trkpt>
      <trkpt lat="45.5438" lon="6.04486">
        <ele>914.402747875</ele>
        <time>2015-12-25T11:53:46Z</time>
      </trkpt>
      <trkpt lat="45.5439" lon="6.04506">
        <ele>915.164984704</ele>
        <time>2015-12-25T11:53:55Z</time>
      </trkpt>
      <trkpt lat="45.54396" lon="6.0451">
        <ele>915.164984704</ele>
        <time>2015-12-25T11:54:01Z</time>
      </trkpt>
      <trkpt lat="45.54406" lon="6.04522">
        <ele>916.734165769</ele>
        <time>2015-12-25T11:54:11Z</time>
      </trkpt>
      <trkpt lat="45.54408" lon="6.04531">
        <ele>916.734165769</ele>
        <time>2015-12-25T11:54:15Z</time>
      </trkpt>
      <trkpt lat="45.544" lon="6.04549">
        <ele>917.919204473</ele>
        <time>2015-12-25T11:54:31Z</time>
      </trkpt>
      <trkpt lat="45.544" lon="6.0455">
        <ele>917.919204473</ele>
        <time>2015-12-25T11:54:35Z</time>
      </trkpt>
      <trkpt lat="45.544" lon="6.04551">
        <ele>917.919204473</ele>
        <time>2015-12-25T11:54:40Z</time>
      </trkpt>
      <trkpt lat="45.54401" lon="6.04552">
        <ele>917.919204473</ele>
        <time>2015-12-25T11:54:45Z</time>
      </trkpt>
      <trkpt lat="45.544" lon="6.04553">
        <ele>917.919204473</ele>
        <time>2015-12-25T11:54:50Z</time>
      </trkpt>
      <trkpt lat="45.544" lon="6.04553">
        <ele>917.919204473</ele>
        <time>2015-12-25T11:54:55Z</time>
      </trkpt>
      <trkpt lat="45.544" lon="6.04553">
        <ele>917.919204473</ele>
        <time>2015-12-25T11:55:00Z</time>
      </trkpt>
      <trkpt lat="45.544" lon="6.04553">
        <ele>917.919204473</ele>
        <time>2015-12-25T11:55:05Z</time>
      </trkpt>
      <trkpt lat="45.544" lon="6.04552">
        <ele>917.919204473</ele>
        <time>2015-12-25T11:55:11Z</time>
      </trkpt>
      <trkpt lat="45.544" lon="6.04552">
        <ele>917.919204473</ele>
        <time>2015-12-25T11:55:21Z</time>
      </trkpt>
      <trkpt lat="45.544" lon="6.04551">
        <ele>917.919204473</ele>
        <time>2015-12-25T11:55:25Z</time>
      </trkpt>
      <trkpt lat="45.54398" lon="6.04548">
        <ele>917.919204473</ele>
        <time>2015-12-25T11:55:41Z</time>
      </trkpt>
      <trkpt lat="45.54398" lon="6.04548">
        <ele>917.919204473</ele>
        <time>2015-12-25T11:55:46Z</time>
      </trkpt>
      <trkpt lat="45.54396" lon="6.0455">
        <ele>918.468183555</ele>
        <time>2015-12-25T11:55:56Z</time>
      </trkpt>
      <trkpt lat="45.54394" lon="6.04561">
        <ele>918.468183555</ele>
        <time>2015-12-25T11:56:01Z</time>
      </trkpt>
      <trkpt lat="45.54392" lon="6.04577">
        <ele>917.829938519</ele>
        <time>2015-12-25T11:56:11Z</time>
      </trkpt>
      <trkpt lat="45.54393" lon="6.04582">
        <ele>917.829938519</ele>
        <time>2015-12-25T11:56:16Z</time>
      </trkpt>
      <trkpt lat="45.54387" lon="6.04591">
        <ele>918.135849731</ele>
        <time>2015-12-25T11:56:26Z</time>
      </trkpt>
      <trkpt lat="45.54383" lon="6.04593">
        <ele>918.135849731</ele>
        <time>2015-12-25T11:56:31Z</time>
      </trkpt>
      <trkpt lat="45.54383" lon="6.04595">
        <ele>918.135849731</ele>
        <time>2015-12-25T11:56:40Z</time>
      </trkpt>
      <trkpt lat="45.5438" lon="6.04597">
        <ele>918.135849731</ele>
        <time>2015-12-25T11:56:47Z</time>
      </trkpt>
      <trkpt lat="45.54378" lon="6.04602">
        <ele>919.157809014</ele>
        <time>2015-12-25T11:56:55Z</time>
      </trkpt>
      <trkpt lat="45.54375" lon="6.04606">
        <ele>919.157809014</ele>
        <time>2015-12-25T11:57:00Z</time>
      </trkpt>
      <trkpt lat="45.54371" lon="6.04614">
        <ele>920.360611828</ele>
        <time>2015-12-25T11:57:10Z</time>
      </trkpt>
      <trkpt lat="45.54369" lon="6.04621">
        <ele>920.360611828</ele>
        <time>2015-12-25T11:57:16Z</time>
      </trkpt>
      <trkpt lat="45.54364" lon="6.04624">
        <ele>921.582394706</ele>
        <time>2015-12-25T11:57:31Z</time>
      </trkpt>
      <trkpt lat="45.54366" lon="6.04627">
        <ele>921.582394706</ele>
        <time>2015-12-25T11:57:35Z</time>
      </trkpt>
      <trkpt lat="45.54365" lon="6.04633">
        <ele>921.582394706</ele>
        <time>2015-12-25T11:57:45Z</time>
      </trkpt>
      <trkpt lat="45.54363" lon="6.04639">
        <ele>922.832415729</ele>
        <time>2015-12-25T11:57:51Z</time>
      </trkpt>
      <trkpt lat="45.54362" lon="6.04642">
        <ele>922.832415729</ele>
        <time>2015-12-25T11:58:01Z</time>
      </trkpt>
      <trkpt lat="45.54362" lon="6.04643">
        <ele>922.832415729</ele>
        <time>2015-12-25T11:58:06Z</time>
      </trkpt>
      <trkpt lat="45.54362" lon="6.04643">
        <ele>922.832415729</ele>
        <time>2015-12-25T11:58:16Z</time>
      </trkpt>
      <trkpt lat="45.5436" lon="6.04644">
        <ele>922.832415729</ele>
        <time>2015-12-25T11:58:20Z</time>
      </trkpt>
      <trkpt lat="45.54356" lon="6.04658">
        <ele>923.811214509</ele>
        <time>2015-12-25T11:58:30Z</time>
      </trkpt>
      <trkpt lat="45.54353" lon="6.04662">
        <ele>923.811214509</ele>
        <time>2015-12-25T11:58:35Z</time>
      </trkpt>
      <trkpt lat="45.54353" lon="6.04667">
        <ele>923.811214509</ele>
        <time>2015-12-25T11:58:40Z</time>
      </trkpt>
      <trkpt lat="45.54349" lon="6.04671">
        <ele>925.454816205</ele>
        <time>2015-12-25T11:58:51Z</time>
      </trkpt>
      <trkpt lat="45.54346" lon="6.04674">
        <ele>925.454816205</ele>
        <time>2015-12-25T11:58:56Z</time>
      </trkpt>
      <trkpt lat="45.54342" lon="6.0468">
        <ele>925.454816205</ele>
        <time>2015-12-25T11:59:06Z</time>
      </trkpt>
      <trkpt lat="45.5434" lon="6.04683">
        <ele>927.986782</ele>
        <time>2015-12-25T11:59:10Z</time>
      </trkpt>
      <trkpt lat="45.54338" lon="6.04691">
        <ele>927.986782</ele>
        <time>2015-12-25T11:59:20Z</time>
      </trkpt>
      <trkpt lat="45.54333" lon="6.04698">
        <ele>930.727220217</ele>
        <time>2015-12-25T11:59:26Z</time>
      </trkpt>
      <trkpt lat="45.5433" lon="6.04706">
        <ele>930.727220217</ele>
        <time>2015-12-25T11:59:35Z</time>
      </trkpt>
      <trkpt lat="45.54327" lon="6.04711">
        <ele>932.645211136</ele>
        <time>2015-12-25T11:59:40Z</time>
      </trkpt>
      <trkpt lat="45.54324" lon="6.04716">
        <ele>932.645211136</ele>
        <time>2015-12-25T11:59:51Z</time>
      </trkpt>
      <trkpt lat="45.54323" lon="6.04718">
        <ele>932.645211136</ele>
        <time>2015-12-25T11:59:56Z</time>
      </trkpt>
      <trkpt lat="45.54323" lon="6.04719">
        <ele>932.645211136</ele>
        <time>2015-12-25T12:00:08Z</time>
      </trkpt>
      <trkpt lat="45.5432" lon="6.04724">
        <ele>934.67718881</ele>
        <time>2015-12-25T12:00:10Z</time>
      </trkpt>
      <trkpt lat="45.54311" lon="6.04745">
        <ele>937.233635198</ele>
        <time>2015-12-25T12:00:21Z</time>
      </trkpt>
      <trkpt lat="45.54308" lon="6.0475">
        <ele>937.233635198</ele>
        <time>2015-12-25T12:00:26Z</time>
      </trkpt>
      <trkpt lat="45.54304" lon="6.0476">
        <ele>940.123845077</ele>
        <time>2015-12-25T12:00:36Z</time>
      </trkpt>
      <trkpt lat="45.543" lon="6.04764">
        <ele>940.123845077</ele>
        <time>2015-12-25T12:00:40Z</time>
      </trkpt>
      <trkpt lat="45.54297" lon="6.0477">
        <ele>942.758609726</ele>
        <time>2015-12-25T12:00:45Z</time>
      </trkpt>
      <trkpt lat="45.54291" lon="6.04782">
        <ele>945.156359743</ele>
        <time>2015-12-25T12:00:55Z</time>
      </trkpt>
      <trkpt lat="45.54285" lon="6.04792">
        <ele>947.471641901</ele>
        <time>2015-12-25T12:01:06Z</time>
      </trkpt>
      <trkpt lat="45.54283" lon="6.04795">
        <ele>947.471641901</ele>
        <time>2015-12-25T12:01:11Z</time>
      </trkpt>
      <trkpt lat="45.54278" lon="6.04807">
        <ele>949.430507558</ele>
        <time>2015-12-25T12:01:21Z</time>
      </trkpt>
      <trkpt lat="45.54276" lon="6.04812">
        <ele>949.430507558</ele>
        <time>2015-12-25T12:01:26Z</time>
      </trkpt>
      <trkpt lat="45.54273" lon="6.04826">
        <ele>951.055654043</ele>
        <time>2015-12-25T12:01:41Z</time>
      </trkpt>
      <trkpt lat="45.54271" lon="6.04834">
        <ele>951.055654043</ele>
        <time>2015-12-25T12:01:45Z</time>
      </trkpt>
      <trkpt lat="45.54269" lon="6.04836">
        <ele>951.055654043</ele>
        <time>2015-12-25T12:01:56Z</time>
      </trkpt>
      <trkpt lat="45.54266" lon="6.04845">
        <ele>953.065532427</ele>
        <time>2015-12-25T12:02:10Z</time>
      </trkpt>
      <trkpt lat="45.54265" lon="6.04851">
        <ele>953.065532427</ele>
        <time>2015-12-25T12:02:16Z</time>
      </trkpt>
      <trkpt lat="45.54266" lon="6.0487">
        <ele>954.314437283</ele>
        <time>2015-12-25T12:02:26Z</time>
      </trkpt>
      <trkpt lat="45.54263" lon="6.04876">
        <ele>954.314437283</ele>
        <time>2015-12-25T12:02:30Z</time>
      </trkpt>
      <trkpt lat="45.54262" lon="6.04889">
        <ele>956.540277123</ele>
        <time>2015-12-25T12:02:40Z</time>
      </trkpt>
      <trkpt lat="45.5426" lon="6.04895">
        <ele>956.540277123</ele>
        <time>2015-12-25T12:02:45Z</time>
      </trkpt>
      <trkpt lat="45.5426" lon="6.04907">
        <ele>958.835966721</ele>
        <time>2015-12-25T12:02:56Z</time>
      </trkpt>
      <trkpt lat="45.54261" lon="6.04912">
        <ele>958.835966721</ele>
        <time>2015-12-25T12:03:01Z</time>
      </trkpt>
      <trkpt lat="45.54262" lon="6.04926">
        <ele>960.198725515</ele>
        <time>2015-12-25T12:03:10Z</time>
      </trkpt>
      <trkpt lat="45.54262" lon="6.04931">
        <ele>960.198725515</ele>
        <time>2015-12-25T12:03:16Z</time>
      </trkpt>
      <trkpt lat="45.54257" lon="6.04941">
        <ele>961.834579121</ele>
        <time>2015-12-25T12:03:26Z</time>
      </trkpt>
      <trkpt lat="45.54255" lon="6.04943">
        <ele>961.834579121</ele>
        <time>2015-12-25T12:03:31Z</time>
      </trkpt>
      <trkpt lat="45.54252" lon="6.04951">
        <ele>963.442113683</ele>
        <time>2015-12-25T12:03:40Z</time>
      </trkpt>
      <trkpt lat="45.5425" lon="6.04955">
        <ele>963.442113683</ele>
        <time>2015-12-25T12:03:45Z</time>
      </trkpt>
      <trkpt lat="45.54249" lon="6.04959">
        <ele>963.442113683</ele>
        <time>2015-12-25T12:03:56Z</time>
      </trkpt>
      <trkpt lat="45.54249" lon="6.04959">
        <ele>963.442113683</ele>
        <time>2015-12-25T12:04:00Z</time>
      </trkpt>
      <trkpt lat="45.54247" lon="6.04961">
        <ele>963.442113683</ele>
        <time>2015-12-25T12:04:16Z</time>
      </trkpt>
      <trkpt lat="45.54246" lon="6.04962">
        <ele>964.298303723</ele>
        <time>2015-12-25T12:04:21Z</time>
      </trkpt>
      <trkpt lat="45.54245" lon="6.04963">
        <ele>964.298303723</ele>
        <time>2015-12-25T12:04:30Z</time>
      </trkpt>
      <trkpt lat="45.54245" lon="6.04963">
        <ele>964.298303723</ele>
        <time>2015-12-25T12:04:36Z</time>
      </trkpt>
      <trkpt lat="45.54245" lon="6.04963">
        <ele>964.298303723</ele>
        <time>2015-12-25T12:04:45Z</time>
      </trkpt>
      <trkpt lat="45.54245" lon="6.04963">
        <ele>964.298303723</ele>
        <time>2015-12-25T12:04:50Z</time>
      </trkpt>
      <trkpt lat="45.54247" lon="6.04965">
        <ele>964.298303723</ele>
        <time>2015-12-25T12:05:01Z</time>
      </trkpt>
      <trkpt lat="45.54248" lon="6.04964">
        <ele>964.298303723</ele>
        <time>2015-12-25T12:05:06Z</time>
      </trkpt>
      <trkpt lat="45.54249" lon="6.04964">
        <ele>964.298303723</ele>
        <time>2015-12-25T12:05:16Z</time>
      </trkpt>
      <trkpt lat="45.54249" lon="6.04964">
        <ele>964.298303723</ele>
        <time>2015-12-25T12:05:20Z</time>
      </trkpt>
      <trkpt lat="45.54249" lon="6.04965">
        <ele>964.298303723</ele>
        <time>2015-12-25T12:05:31Z</time>
      </trkpt>
      <trkpt lat="45.54248" lon="6.04965">
        <ele>964.298303723</ele>
        <time>2015-12-25T12:05:35Z</time>
      </trkpt>
      <trkpt lat="45.54248" lon="6.04968">
        <ele>965.187201678</ele>
        <time>2015-12-25T12:05:45Z</time>
      </trkpt>
      <trkpt lat="45.54245" lon="6.04978">
        <ele>965.187201678</ele>
        <time>2015-12-25T12:05:50Z</time>
      </trkpt>
      <trkpt lat="45.54245" lon="6.04989">
        <ele>966.261797108</ele>
        <time>2015-12-25T12:06:01Z</time>
      </trkpt>
      <trkpt lat="45.54244" lon="6.0499">
        <ele>966.261797108</ele>
        <time>2015-12-25T12:06:05Z</time>
      </trkpt>
      <trkpt lat="45.54242" lon="6.04995">
        <ele>966.261797108</ele>
        <time>2015-12-25T12:06:16Z</time>
      </trkpt>
      <trkpt lat="45.5424" lon="6.04999">
        <ele>966.261797108</ele>
        <time>2015-12-25T12:06:20Z</time>
      </trkpt>
      <trkpt lat="45.54237" lon="6.0501">
        <ele>968.703670855</ele>
        <time>2015-12-25T12:06:31Z</time>
      </trkpt>
      <trkpt lat="45.54235" lon="6.05016">
        <ele>968.703670855</ele>
        <time>2015-12-25T12:06:35Z</time>
      </trkpt>
      <trkpt lat="45.54233" lon="6.05023">
        <ele>971.085976102</ele>
        <time>2015-12-25T12:06:50Z</time>
      </trkpt>
      <trkpt lat="45.54232" lon="6.05027">
        <ele>971.085976102</ele>
        <time>2015-12-25T12:06:55Z</time>
      </trkpt>
      <trkpt lat="45.5423" lon="6.05034">
        <ele>971.085976102</ele>
        <time>2015-12-25T12:07:06Z</time>
      </trkpt>
      <trkpt lat="45.54231" lon="6.05042">
        <ele>973.263285313</ele>
        <time>2015-12-25T12:07:10Z</time>
      </trkpt>
      <trkpt lat="45.5423" lon="6.05049">
        <ele>973.263285313</ele>
        <time>2015-12-25T12:07:22Z</time>
      </trkpt>
      <trkpt lat="45.54228" lon="6.05053">
        <ele>973.263285313</ele>
        <time>2015-12-25T12:07:25Z</time>
      </trkpt>
      <trkpt lat="45.54226" lon="6.05061">
        <ele>975.550639371</ele>
        <time>2015-12-25T12:07:31Z</time>
      </trkpt>
      <trkpt lat="45.5422" lon="6.05071">
        <ele>978.091480855</ele>
        <time>2015-12-25T12:07:41Z</time>
      </trkpt>
      <trkpt lat="45.54218" lon="6.05077">
        <ele>978.091480855</ele>
        <time>2015-12-25T12:07:45Z</time>
      </trkpt>
      <trkpt lat="45.54217" lon="6.05083">
        <ele>978.091480855</ele>
        <time>2015-12-25T12:07:55Z</time>
      </trkpt>
      <trkpt lat="45.54215" lon="6.05086">
        <ele>980.716506302</ele>
        <time>2015-12-25T12:08:00Z</time>
      </trkpt>
      <trkpt lat="45.54208" lon="6.05097">
        <ele>983.720404672</ele>
        <time>2015-12-25T12:08:11Z</time>
      </trkpt>
      <trkpt lat="45.54207" lon="6.05102">
        <ele>983.720404672</ele>
        <time>2015-12-25T12:08:15Z</time>
      </trkpt>
      <trkpt lat="45.54201" lon="6.05107">
        <ele>986.619517643</ele>
        <time>2015-12-25T12:08:25Z</time>
      </trkpt>
      <trkpt lat="45.54199" lon="6.05111">
        <ele>986.619517643</ele>
        <time>2015-12-25T12:08:30Z</time>
      </trkpt>
      <trkpt lat="45.54196" lon="6.05116">
        <ele>986.619517643</ele>
        <time>2015-12-25T12:08:41Z</time>
      </trkpt>
      <trkpt lat="45.54192" lon="6.05118">
        <ele>989.419852348</ele>
        <time>2015-12-25T12:08:45Z</time>
      </trkpt>
      <trkpt lat="45.54185" lon="6.05128">
        <ele>992.580242409</ele>
        <time>2015-12-25T12:09:00Z</time>
      </trkpt>
      <trkpt lat="45.54183" lon="6.05134">
        <ele>992.580242409</ele>
        <time>2015-12-25T12:09:06Z</time>
      </trkpt>
      <trkpt lat="45.54183" lon="6.05137">
        <ele>992.580242409</ele>
        <time>2015-12-25T12:09:15Z</time>
      </trkpt>
      <trkpt lat="45.54183" lon="6.05139">
        <ele>992.580242409</ele>
        <time>2015-12-25T12:09:21Z</time>
      </trkpt>
      <trkpt lat="45.54182" lon="6.05142">
        <ele>995.617480113</ele>
        <time>2015-12-25T12:09:31Z</time>
      </trkpt>
      <trkpt lat="45.5418" lon="6.05142">
        <ele>995.617480113</ele>
        <time>2015-12-25T12:09:35Z</time>
      </trkpt>
      <trkpt lat="45.54178" lon="6.05142">
        <ele>995.617480113</ele>
        <time>2015-12-25T12:09:45Z</time>
      </trkpt>
      <trkpt lat="45.54177" lon="6.05147">
        <ele>995.617480113</ele>
        <time>2015-12-25T12:09:50Z</time>
      </trkpt>
      <trkpt lat="45.54177" lon="6.05159">
        <ele>998.990813664</ele>
        <time>2015-12-25T12:10:05Z</time>
      </trkpt>
      <trkpt lat="45.54177" lon="6.05171">
        <ele>998.990813664</ele>
        <time>2015-12-25T12:10:21Z</time>
      </trkpt>
      <trkpt lat="45.54176" lon="6.05176">
        <ele>1001.768466976</ele>
        <time>2015-12-25T12:10:26Z</time>
      </trkpt>
      <trkpt lat="45.54176" lon="6.05184">
        <ele>1001.768466976</ele>
        <time>2015-12-25T12:10:36Z</time>
      </trkpt>
      <trkpt lat="45.54177" lon="6.05186">
        <ele>1001.768466976</ele>
        <time>2015-12-25T12:10:40Z</time>
      </trkpt>
      <trkpt lat="45.54177" lon="6.05192">
        <ele>1004.297598517</ele>
        <time>2015-12-25T12:10:45Z</time>
      </trkpt>
      <trkpt lat="45.54181" lon="6.05197">
        <ele>1004.297598517</ele>
        <time>2015-12-25T12:10:55Z</time>
      </trkpt>
      <trkpt lat="45.5418" lon="6.05198">
        <ele>1004.297598517</ele>
        <time>2015-12-25T12:11:00Z</time>
      </trkpt>
      <trkpt lat="45.54175" lon="6.05213">
        <ele>1006.89758551</ele>
        <time>2015-12-25T12:11:15Z</time>
      </trkpt>
      <trkpt lat="45.54177" lon="6.05217">
        <ele>1006.89758551</ele>
        <time>2015-12-25T12:11:21Z</time>
      </trkpt>
      <trkpt lat="45.54177" lon="6.05225">
        <ele>1008.96507999</ele>
        <time>2015-12-25T12:11:30Z</time>
      </trkpt>
      <trkpt lat="45.54177" lon="6.05231">
        <ele>1008.96507999</ele>
        <time>2015-12-25T12:11:36Z</time>
      </trkpt>
      <trkpt lat="45.54173" lon="6.0524">
        <ele>1012.332171356</ele>
        <time>2015-12-25T12:11:45Z</time>
      </trkpt>
      <trkpt lat="45.54171" lon="6.05246">
        <ele>1012.332171356</ele>
        <time>2015-12-25T12:11:51Z</time>
      </trkpt>
      <trkpt lat="45.54173" lon="6.05256">
        <ele>1014.215675222</ele>
        <time>2015-12-25T12:12:00Z</time>
      </trkpt>
      <trkpt lat="45.54169" lon="6.05263">
        <ele>1014.215675222</ele>
        <time>2015-12-25T12:12:06Z</time>
      </trkpt>
      <trkpt lat="45.54164" lon="6.05273">
        <ele>1017.406182869</ele>
        <time>2015-12-25T12:12:16Z</time>
      </trkpt>
      <trkpt lat="45.54163" lon="6.05275">
        <ele>1017.406182869</ele>
        <time>2015-12-25T12:12:21Z</time>
      </trkpt>
      <trkpt lat="45.5416" lon="6.05289">
        <ele>1020.908114655</ele>
        <time>2015-12-25T12:12:31Z</time>
      </trkpt>
      <trkpt lat="45.5416" lon="6.05293">
        <ele>1020.908114655</ele>
        <time>2015-12-25T12:12:36Z</time>
      </trkpt>
      <trkpt lat="45.54156" lon="6.05312">
        <ele>1024.251048395</ele>
        <time>2015-12-25T12:12:51Z</time>
      </trkpt>
      <trkpt lat="45.54155" lon="6.05317">
        <ele>1024.251048395</ele>
        <time>2015-12-25T12:12:55Z</time>
      </trkpt>
      <trkpt lat="45.54155" lon="6.0532">
        <ele>1024.251048395</ele>
        <time>2015-12-25T12:13:06Z</time>
      </trkpt>
      <trkpt lat="45.54155" lon="6.05321">
        <ele>1024.251048395</ele>
        <time>2015-12-25T12:13:10Z</time>
      </trkpt>
      <trkpt lat="45.54147" lon="6.05333">
        <ele>1028.328388963</ele>
        <time>2015-12-25T12:13:20Z</time>
      </trkpt>
      <trkpt lat="45.54147" lon="6.05337">
        <ele>1028.328388963</ele>
        <time>2015-12-25T12:13:26Z</time>
      </trkpt>
      <trkpt lat="45.54141" lon="6.05347">
        <ele>1031.902573803</ele>
        <time>2015-12-25T12:13:36Z</time>
      </trkpt>
      <trkpt lat="45.54134" lon="6.05351">
        <ele>1031.902573803</ele>
        <time>2015-12-25T12:13:40Z</time>
      </trkpt>
      <trkpt lat="45.54131" lon="6.0536">
        <ele>1035.597193741</ele>
        <time>2015-12-25T12:13:51Z</time>
      </trkpt>
      <trkpt lat="45.54132" lon="6.05364">
        <ele>1035.597193741</ele>
        <time>2015-12-25T12:13:55Z</time>
      </trkpt>
      <trkpt lat="45.54129" lon="6.05367">
        <ele>1035.597193741</ele>
        <time>2015-12-25T12:14:06Z</time>
      </trkpt>
      <trkpt lat="45.54129" lon="6.0537">
        <ele>1035.597193741</ele>
        <time>2015-12-25T12:14:11Z</time>
      </trkpt>
      <trkpt lat="45.54131" lon="6.05379">
        <ele>1039.253529312</ele>
        <time>2015-12-25T12:14:21Z</time>
      </trkpt>
      <trkpt lat="45.54129" lon="6.05381">
        <ele>1039.253529312</ele>
        <time>2015-12-25T12:14:25Z</time>
      </trkpt>
      <trkpt lat="45.54129" lon="6.05386">
        <ele>1039.253529312</ele>
        <time>2015-12-25T12:14:36Z</time>
      </trkpt>
      <trkpt lat="45.54127" lon="6.05388">
        <ele>1039.253529312</ele>
        <time>2015-12-25T12:14:41Z</time>
      </trkpt>
      <trkpt lat="45.54129" lon="6.05399">
        <ele>1044.039055247</ele>
        <time>2015-12-25T12:14:51Z</time>
      </trkpt>
      <trkpt lat="45.54128" lon="6.05403">
        <ele>1044.039055247</ele>
        <time>2015-12-25T12:14:55Z</time>
      </trkpt>
      <trkpt lat="45.54128" lon="6.05424">
        <ele>1048.839646774</ele>
        <time>2015-12-25T12:15:11Z</time>
      </trkpt>
      <trkpt lat="45.54126" lon="6.05428">
        <ele>1048.839646774</ele>
        <time>2015-12-25T12:15:15Z</time>
      </trkpt>
      <trkpt lat="45.54126" lon="6.05429">
        <ele>1048.839646774</ele>
        <time>2015-12-25T12:15:25Z</time>
      </trkpt>
      <trkpt lat="45.54127" lon="6.0543">
        <ele>1048.839646774</ele>
        <time>2015-12-25T12:15:31Z</time>
      </trkpt>
      <trkpt lat="45.54126" lon="6.0543">
        <ele>1048.839646774</ele>
        <time>2015-12-25T12:15:41Z</time>
      </trkpt>
      <trkpt lat="45.54126" lon="6.0543">
        <ele>1048.839646774</ele>
        <time>2015-12-25T12:15:45Z</time>
      </trkpt>
      <trkpt lat="45.54126" lon="6.05431">
        <ele>1048.839646774</ele>
        <time>2015-12-25T12:15:55Z</time>
      </trkpt>
      <trkpt lat="45.54126" lon="6.05431">
        <ele>1048.839646774</ele>
        <time>2015-12-25T12:16:00Z</time>
      </trkpt>
      <trkpt lat="45.54125" lon="6.05438">
        <ele>1053.503170047</ele>
        <time>2015-12-25T12:16:10Z</time>
      </trkpt>
      <trkpt lat="45.54123" lon="6.05444">
        <ele>1053.503170047</ele>
        <time>2015-12-25T12:16:16Z</time>
      </trkpt>
      <trkpt lat="45.54123" lon="6.05449">
        <ele>1053.503170047</ele>
        <time>2015-12-25T12:16:26Z</time>
      </trkpt>
      <trkpt lat="45.5412" lon="6.05458">
        <ele>1057.163830133</ele>
        <time>2015-12-25T12:16:31Z</time>
      </trkpt>
      <trkpt lat="45.54119" lon="6.05462">
        <ele>1057.163830133</ele>
        <time>2015-12-25T12:16:46Z</time>
      </trkpt>
      <trkpt lat="45.54116" lon="6.05478">
        <ele>1061.056891593</ele>
        <time>2015-12-25T12:17:00Z</time>
      </trkpt>
      <trkpt lat="45.54113" lon="6.05483">
        <ele>1061.056891593</ele>
        <time>2015-12-25T12:17:05Z</time>
      </trkpt>
      <trkpt lat="45.54112" lon="6.05491">
        <ele>1064.581847937</ele>
        <time>2015-12-25T12:17:16Z</time>
      </trkpt>
      <trkpt lat="45.54108" lon="6.05492">
        <ele>1064.581847937</ele>
        <time>2015-12-25T12:17:20Z</time>
      </trkpt>
      <trkpt lat="45.54103" lon="6.05499">
        <ele>1067.619972167</ele>
        <time>2015-12-25T12:17:30Z</time>
      </trkpt>
      <trkpt lat="45.541" lon="6.055">
        <ele>1067.619972167</ele>
        <time>2015-12-25T12:17:35Z</time>
      </trkpt>
      <trkpt lat="45.54098" lon="6.0551">
        <ele>1070.35207212</ele>
        <time>2015-12-25T12:17:46Z</time>
      </trkpt>
      <trkpt lat="45.54098" lon="6.05511">
        <ele>1070.35207212</ele>
        <time>2015-12-25T12:17:50Z</time>
      </trkpt>
      <trkpt lat="45.54097" lon="6.05513">
        <ele>1070.35207212</ele>
        <time>2015-12-25T12:18:00Z</time>
      </trkpt>
      <trkpt lat="45.54094" lon="6.05515">
        <ele>1070.35207212</ele>
        <time>2015-12-25T12:18:06Z</time>
      </trkpt>
      <trkpt lat="45.54093" lon="6.05517">
        <ele>1070.35207212</ele>
        <time>2015-12-25T12:18:16Z</time>
      </trkpt>
      <trkpt lat="45.54093" lon="6.05517">
        <ele>1070.35207212</ele>
        <time>2015-12-25T12:18:20Z</time>
      </trkpt>
      <trkpt lat="45.54093" lon="6.05516">
        <ele>1070.35207212</ele>
        <time>2015-12-25T12:18:31Z</time>
      </trkpt>
      <trkpt lat="45.54098" lon="6.05516">
        <ele>1073.812929272</ele>
        <time>2015-12-25T12:18:35Z</time>
      </trkpt>
      <trkpt lat="45.54101" lon="6.05521">
        <ele>1073.812929272</ele>
        <time>2015-12-25T12:18:45Z</time>
      </trkpt>
      <trkpt lat="45.54105" lon="6.05524">
        <ele>1077.22379111</ele>
        <time>2015-12-25T12:18:51Z</time>
      </trkpt>
      <trkpt lat="45.54107" lon="6.05538">
        <ele>1080.298165457</ele>
        <time>2015-12-25T12:19:00Z</time>
      </trkpt>
      <trkpt lat="45.54107" lon="6.05543">
        <ele>1080.298165457</ele>
        <time>2015-12-25T12:19:06Z</time>
      </trkpt>
      <trkpt lat="45.54114" lon="6.05548">
        <ele>1082.916315823</ele>
        <time>2015-12-25T12:19:16Z</time>
      </trkpt>
      <trkpt lat="45.54115" lon="6.05548">
        <ele>1082.916315823</ele>
        <time>2015-12-25T12:19:20Z</time>
      </trkpt>
      <trkpt lat="45.54115" lon="6.05548">
        <ele>1082.916315823</ele>
        <time>2015-12-25T12:19:30Z</time>
      </trkpt>
      <trkpt lat="45.54115" lon="6.05548">
        <ele>1082.916315823</ele>
        <time>2015-12-25T12:19:36Z</time>
      </trkpt>
      <trkpt lat="45.54115" lon="6.05548">
        <ele>1082.916315823</ele>
        <time>2015-12-25T12:19:45Z</time>
      </trkpt>
      <trkpt lat="45.54115" lon="6.05548">
        <ele>1082.916315823</ele>
        <time>2015-12-25T12:19:51Z</time>
      </trkpt>
      <trkpt lat="45.54115" lon="6.05548">
        <ele>1082.916315823</ele>
        <time>2015-12-25T12:20:06Z</time>
      </trkpt>
      <trkpt lat="45.54115" lon="6.05553">
        <ele>1082.916315823</ele>
        <time>2015-12-25T12:20:11Z</time>
      </trkpt>
      <trkpt lat="45.54116" lon="6.05558">
        <ele>1082.916315823</ele>
        <time>2015-12-25T12:20:21Z</time>
      </trkpt>
      <trkpt lat="45.54122" lon="6.0556">
        <ele>1085.257180332</ele>
        <time>2015-12-25T12:20:25Z</time>
      </trkpt>
      <trkpt lat="45.54124" lon="6.05559">
        <ele>1085.257180332</ele>
        <time>2015-12-25T12:20:36Z</time>
      </trkpt>
      <trkpt lat="45.54125" lon="6.0556">
        <ele>1085.257180332</ele>
        <time>2015-12-25T12:20:40Z</time>
      </trkpt>
      <trkpt lat="45.54129" lon="6.05563">
        <ele>1085.257180332</ele>
        <time>2015-12-25T12:20:50Z</time>
      </trkpt>
      <trkpt lat="45.54129" lon="6.05564">
        <ele>1085.257180332</ele>
        <time>2015-12-25T12:20:55Z</time>
      </trkpt>
      <trkpt lat="45.54131" lon="6.05565">
        <ele>1087.487109809</ele>
        <time>2015-12-25T12:21:05Z</time>
      </trkpt>
      <trkpt lat="45.54135" lon="6.05568">
        <ele>1087.487109809</ele>
        <time>2015-12-25T12:21:11Z</time>
      </trkpt>
      <trkpt lat="45.54136" lon="6.05569">
        <ele>1087.487109809</ele>
        <time>2015-12-25T12:21:21Z</time>
      </trkpt>
      <trkpt lat="45.54136" lon="6.05569">
        <ele>1087.487109809</ele>
        <time>2015-12-25T12:21:25Z</time>
      </trkpt>
      <trkpt lat="45.54136" lon="6.05569">
        <ele>1087.487109809</ele>
        <time>2015-12-25T12:21:36Z</time>
      </trkpt>
      <trkpt lat="45.54136" lon="6.05569">
        <ele>1087.487109809</ele>
        <time>2015-12-25T12:21:40Z</time>
      </trkpt>
      <trkpt lat="45.54144" lon="6.05567">
        <ele>1090.625665666</ele>
        <time>2015-12-25T12:21:51Z</time>
      </trkpt>
      <trkpt lat="45.54148" lon="6.05569">
        <ele>1090.625665666</ele>
        <time>2015-12-25T12:21:55Z</time>
      </trkpt>
      <trkpt lat="45.54149" lon="6.05567">
        <ele>1090.625665666</ele>
        <time>2015-12-25T12:22:00Z</time>
      </trkpt>
      <trkpt lat="45.54162" lon="6.05567">
        <ele>1093.740159781</ele>
        <time>2015-12-25T12:22:11Z</time>
      </trkpt>
      <trkpt lat="45.54164" lon="6.05568">
        <ele>1093.740159781</ele>
        <time>2015-12-25T12:22:15Z</time>
      </trkpt>
      <trkpt lat="45.54165" lon="6.05566">
        <ele>1093.740159781</ele>
        <time>2015-12-25T12:22:21Z</time>
      </trkpt>
      <trkpt lat="45.54167" lon="6.05564">
        <ele>1093.740159781</ele>
        <time>2015-12-25T12:22:30Z</time>
      </trkpt>
      <trkpt lat="45.54168" lon="6.05564">
        <ele>1093.740159781</ele>
        <time>2015-12-25T12:22:36Z</time>
      </trkpt>
      <trkpt lat="45.54178" lon="6.05563">
        <ele>1098.273821769</ele>
        <time>2015-12-25T12:22:46Z</time>
      </trkpt>
      <trkpt lat="45.54181" lon="6.05564">
        <ele>1098.273821769</ele>
        <time>2015-12-25T12:22:51Z</time>
      </trkpt>
      <trkpt lat="45.54183" lon="6.05562">
        <ele>1098.273821769</ele>
        <time>2015-12-25T12:23:00Z</time>
      </trkpt>
      <trkpt lat="45.54187" lon="6.05563">
        <ele>1102.243716309</ele>
        <time>2015-12-25T12:23:06Z</time>
      </trkpt>
      <trkpt lat="45.54188" lon="6.05564">
        <ele>1102.243716309</ele>
        <time>2015-12-25T12:23:16Z</time>
      </trkpt>
      <trkpt lat="45.54188" lon="6.05564">
        <ele>1102.243716309</ele>
        <time>2015-12-25T12:23:21Z</time>
      </trkpt>
      <trkpt lat="45.54188" lon="6.05564">
        <ele>1102.243716309</ele>
        <time>2015-12-25T12:23:31Z</time>
      </trkpt>
      <trkpt lat="45.54188" lon="6.05564">
        <ele>1102.243716309</ele>
        <time>2015-12-25T12:23:36Z</time>
      </trkpt>
      <trkpt lat="45.54188" lon="6.05564">
        <ele>1102.243716309</ele>
        <time>2015-12-25T12:23:51Z</time>
      </trkpt>
      <trkpt lat="45.54188" lon="6.05564">
        <ele>1102.243716309</ele>
        <time>2015-12-25T12:23:55Z</time>
      </trkpt>
      <trkpt lat="45.54188" lon="6.05564">
        <ele>1102.243716309</ele>
        <time>2015-12-25T12:24:05Z</time>
      </trkpt>
      <trkpt lat="45.54188" lon="6.05564">
        <ele>1102.243716309</ele>
        <time>2015-12-25T12:24:11Z</time>
      </trkpt>
      <trkpt lat="45.54194" lon="6.05564">
        <ele>1102.243716309</ele>
        <time>2015-12-25T12:24:21Z</time>
      </trkpt>
      <trkpt lat="45.54195" lon="6.05564">
        <ele>1102.243716309</ele>
        <time>2015-12-25T12:24:26Z</time>
      </trkpt>
      <trkpt lat="45.54205" lon="6.05576">
        <ele>1106.697938715</ele>
        <time>2015-12-25T12:24:36Z</time>
      </trkpt>
      <trkpt lat="45.54209" lon="6.05579">
        <ele>1106.697938715</ele>
        <time>2015-12-25T12:24:40Z</time>
      </trkpt>
      <trkpt lat="45.54215" lon="6.05583">
        <ele>1110.731934299</ele>
        <time>2015-12-25T12:24:51Z</time>
      </trkpt>
      <trkpt lat="45.54216" lon="6.05584">
        <ele>1110.731934299</ele>
        <time>2015-12-25T12:24:56Z</time>
      </trkpt>
      <trkpt lat="45.54216" lon="6.05584">
        <ele>1110.731934299</ele>
        <time>2015-12-25T12:25:06Z</time>
      </trkpt>
      <trkpt lat="45.54216" lon="6.05584">
        <ele>1110.731934299</ele>
        <time>2015-12-25T12:25:10Z</time>
      </trkpt>
      <trkpt lat="45.54227" lon="6.05602">
        <ele>1115.239004405</ele>
        <time>2015-12-25T12:25:26Z</time>
      </trkpt>
      <trkpt lat="45.5423" lon="6.05609">
        <ele>1115.239004405</ele>
        <time>2015-12-25T12:25:30Z</time>
      </trkpt>
      <trkpt lat="45.54234" lon="6.05612">
        <ele>1118.882750665</ele>
        <time>2015-12-25T12:25:41Z</time>
      </trkpt>
      <trkpt lat="45.54237" lon="6.05615">
        <ele>1118.882750665</ele>
        <time>2015-12-25T12:25:45Z</time>
      </trkpt>
      <trkpt lat="45.54237" lon="6.05617">
        <ele>1118.882750665</ele>
        <time>2015-12-25T12:25:55Z</time>
      </trkpt>
      <trkpt lat="45.54239" lon="6.0562">
        <ele>1118.882750665</ele>
        <time>2015-12-25T12:26:00Z</time>
      </trkpt>
      <trkpt lat="45.54244" lon="6.05629">
        <ele>1122.734486532</ele>
        <time>2015-12-25T12:26:10Z</time>
      </trkpt>
      <trkpt lat="45.54247" lon="6.05633">
        <ele>1122.734486532</ele>
        <time>2015-12-25T12:26:16Z</time>
      </trkpt>
      <trkpt lat="45.54247" lon="6.05634">
        <ele>1122.734486532</ele>
        <time>2015-12-25T12:26:20Z</time>
      </trkpt>
      <trkpt lat="45.54248" lon="6.05637">
        <ele>1122.734486532</ele>
        <time>2015-12-25T12:26:25Z</time>
      </trkpt>
      <trkpt lat="45.54248" lon="6.0564">
        <ele>1126.632783377</ele>
        <time>2015-12-25T12:26:30Z</time>
      </trkpt>
      <trkpt lat="45.5425" lon="6.05642">
        <ele>1126.632783377</ele>
        <time>2015-12-25T12:26:35Z</time>
      </trkpt>
      <trkpt lat="45.54253" lon="6.05654">
        <ele>1130.139551577</ele>
        <time>2015-12-25T12:26:45Z</time>
      </trkpt>
      <trkpt lat="45.54252" lon="6.05656">
        <ele>1130.139551577</ele>
        <time>2015-12-25T12:26:50Z</time>
      </trkpt>
      <trkpt lat="45.54255" lon="6.05657">
        <ele>1130.139551577</ele>
        <time>2015-12-25T12:27:01Z</time>
      </trkpt>
      <trkpt lat="45.54256" lon="6.05665">
        <ele>1134.436492582</ele>
        <time>2015-12-25T12:27:05Z</time>
      </trkpt>
      <trkpt lat="45.54259" lon="6.05664">
        <ele>1134.436492582</ele>
        <time>2015-12-25T12:27:16Z</time>
      </trkpt>
      <trkpt lat="45.5426" lon="6.05663">
        <ele>1134.436492582</ele>
        <time>2015-12-25T12:27:21Z</time>
      </trkpt>
      <trkpt lat="45.54259" lon="6.05663">
        <ele>1134.436492582</ele>
        <time>2015-12-25T12:27:31Z</time>
      </trkpt>
      <trkpt lat="45.5426" lon="6.05662">
        <ele>1134.436492582</ele>
        <time>2015-12-25T12:27:35Z</time>
      </trkpt>
      <trkpt lat="45.5426" lon="6.05663">
        <ele>1134.436492582</ele>
        <time>2015-12-25T12:27:50Z</time>
      </trkpt>
      <trkpt lat="45.5426" lon="6.05663">
        <ele>1134.436492582</ele>
        <time>2015-12-25T12:27:55Z</time>
      </trkpt>
      <trkpt lat="45.5426" lon="6.05663">
        <ele>1134.436492582</ele>
        <time>2015-12-25T12:28:05Z</time>
      </trkpt>
      <trkpt lat="45.5426" lon="6.05663">
        <ele>1134.436492582</ele>
        <time>2015-12-25T12:28:11Z</time>
      </trkpt>
      <trkpt lat="45.5426" lon="6.05663">
        <ele>1134.436492582</ele>
        <time>2015-12-25T12:28:21Z</time>
      </trkpt>
      <trkpt lat="45.5426" lon="6.05663">
        <ele>1134.436492582</ele>
        <time>2015-12-25T12:28:25Z</time>
      </trkpt>
      <trkpt lat="45.5426" lon="6.05663">
        <ele>1134.436492582</ele>
        <time>2015-12-25T12:28:36Z</time>
      </trkpt>
      <trkpt lat="45.5426" lon="6.05663">
        <ele>1134.436492582</ele>
        <time>2015-12-25T12:28:40Z</time>
      </trkpt>
      <trkpt lat="45.5426" lon="6.05663">
        <ele>1134.436492582</ele>
        <time>2015-12-25T12:28:51Z</time>
      </trkpt>
      <trkpt lat="45.5426" lon="6.05664">
        <ele>1134.436492582</ele>
        <time>2015-12-25T12:28:55Z</time>
      </trkpt>
      <trkpt lat="45.54261" lon="6.05662">
        <ele>1137.876054599</ele>
        <time>2015-12-25T12:29:10Z</time>
      </trkpt>
      <trkpt lat="45.54261" lon="6.05662">
        <ele>1137.876054599</ele>
        <time>2015-12-25T12:29:15Z</time>
      </trkpt>
      <trkpt lat="45.54261" lon="6.05662">
        <ele>1137.876054599</ele>
        <time>2015-12-25T12:29:25Z</time>
      </trkpt>
      <trkpt lat="45.54261" lon="6.05662">
        <ele>1137.876054599</ele>
        <time>2015-12-25T12:29:30Z</time>
      </trkpt>
      <trkpt lat="45.54261" lon="6.05662">
        <ele>1137.876054599</ele>
        <time>2015-12-25T12:29:36Z</time>
      </trkpt>
      <trkpt lat="45.54261" lon="6.05662">
        <ele>1137.876054599</ele>
        <time>2015-12-25T12:29:41Z</time>
      </trkpt>
      <trkpt lat="45.54266" lon="6.05647">
        <ele>1140.087972649</ele>
        <time>2015-12-25T12:29:56Z</time>
      </trkpt>
      <trkpt lat="45.54264" lon="6.05641">
        <ele>1140.087972649</ele>
        <time>2015-12-25T12:30:01Z</time>
      </trkpt>
      <trkpt lat="45.54263" lon="6.05632">
        <ele>1141.453926764</ele>
        <time>2015-12-25T12:30:10Z</time>
      </trkpt>
      <trkpt lat="45.54261" lon="6.05627">
        <ele>1141.453926764</ele>
        <time>2015-12-25T12:30:15Z</time>
      </trkpt>
      <trkpt lat="45.54259" lon="6.05616">
        <ele>1143.19549226</ele>
        <time>2015-12-25T12:30:26Z</time>
      </trkpt>
      <trkpt lat="45.54264" lon="6.05611">
        <ele>1143.19549226</ele>
        <time>2015-12-25T12:30:31Z</time>
      </trkpt>
      <trkpt lat="45.54266" lon="6.05602">
        <ele>1144.568289399</ele>
        <time>2015-12-25T12:30:41Z</time>
      </trkpt>
      <trkpt lat="45.54264" lon="6.05599">
        <ele>1144.568289399</ele>
        <time>2015-12-25T12:30:45Z</time>
      </trkpt>
      <trkpt lat="45.54265" lon="6.05589">
        <ele>1146.3261489</ele>
        <time>2015-12-25T12:30:56Z</time>
      </trkpt>
      <trkpt lat="45.54264" lon="6.05587">
        <ele>1146.3261489</ele>
        <time>2015-12-25T12:31:01Z</time>
      </trkpt>
      <trkpt lat="45.54268" lon="6.05578">
        <ele>1148.156679874</ele>
        <time>2015-12-25T12:31:11Z</time>
      </trkpt>
      <trkpt lat="45.54271" lon="6.0557">
        <ele>1148.156679874</ele>
        <time>2015-12-25T12:31:16Z</time>
      </trkpt>
      <trkpt lat="45.54268" lon="6.05559">
        <ele>1149.914486428</ele>
        <time>2015-12-25T12:31:26Z</time>
      </trkpt>
      <trkpt lat="45.54268" lon="6.05559">
        <ele>1149.914486428</ele>
        <time>2015-12-25T12:31:31Z</time>
      </trkpt>
      <trkpt lat="45.54273" lon="6.05546">
        <ele>1152.186222542</ele>
        <time>2015-12-25T12:31:46Z</time>
      </trkpt>
      <trkpt lat="45.54273" lon="6.05546">
        <ele>1152.186222542</ele>
        <time>2015-12-25T12:31:51Z</time>
      </trkpt>
      <trkpt lat="45.54273" lon="6.05545">
        <ele>1152.186222542</ele>
        <time>2015-12-25T12:32:01Z</time>
      </trkpt>
      <trkpt lat="45.54275" lon="6.05543">
        <ele>1152.186222542</ele>
        <time>2015-12-25T12:32:05Z</time>
      </trkpt>
      <trkpt lat="45.54278" lon="6.05537">
        <ele>1153.927338027</ele>
        <time>2015-12-25T12:32:15Z</time>
      </trkpt>
      <trkpt lat="45.54279" lon="6.05535">
        <ele>1153.927338027</ele>
        <time>2015-12-25T12:32:20Z</time>
      </trkpt>
      <trkpt lat="45.54283" lon="6.05527">
        <ele>1153.927338027</ele>
        <time>2015-12-25T12:32:30Z</time>
      </trkpt>
      <trkpt lat="45.54283" lon="6.05518">
        <ele>1156.046559296</ele>
        <time>2015-12-25T12:32:36Z</time>
      </trkpt>
      <trkpt lat="45.54288" lon="6.05513">
        <ele>1156.046559296</ele>
        <time>2015-12-25T12:32:45Z</time>
      </trkpt>
      <trkpt lat="45.54291" lon="6.05508">
        <ele>1157.942391703</ele>
        <time>2015-12-25T12:32:51Z</time>
      </trkpt>
      <trkpt lat="45.54295" lon="6.05504">
        <ele>1157.942391703</ele>
        <time>2015-12-25T12:33:01Z</time>
      </trkpt>
      <trkpt lat="45.54295" lon="6.05502">
        <ele>1157.942391703</ele>
        <time>2015-12-25T12:33:05Z</time>
      </trkpt>
      <trkpt lat="45.54294" lon="6.05498">
        <ele>1160.211900473</ele>
        <time>2015-12-25T12:33:16Z</time>
      </trkpt>
      <trkpt lat="45.54296" lon="6.05497">
        <ele>1160.211900473</ele>
        <time>2015-12-25T12:33:20Z</time>
      </trkpt>
      <trkpt lat="45.54298" lon="6.05491">
        <ele>1160.211900473</ele>
        <time>2015-12-25T12:33:35Z</time>
      </trkpt>
      <trkpt lat="45.54298" lon="6.05492">
        <ele>1160.211900473</ele>
        <time>2015-12-25T12:33:40Z</time>
      </trkpt>
      <trkpt lat="45.54298" lon="6.05491">
        <ele>1160.211900473</ele>
        <time>2015-12-25T12:33:51Z</time>
      </trkpt>
      <trkpt lat="45.54298" lon="6.05491">
        <ele>1160.211900473</ele>
        <time>2015-12-25T12:33:55Z</time>
      </trkpt>
      <trkpt lat="45.54298" lon="6.05491">
        <ele>1160.211900473</ele>
        <time>2015-12-25T12:34:05Z</time>
      </trkpt>
      <trkpt lat="45.54298" lon="6.05491">
        <ele>1160.211900473</ele>
        <time>2015-12-25T12:34:11Z</time>
      </trkpt>
      <trkpt lat="45.54299" lon="6.05489">
        <ele>1162.397626599</ele>
        <time>2015-12-25T12:34:21Z</time>
      </trkpt>
      <trkpt lat="45.54301" lon="6.05487">
        <ele>1162.397626599</ele>
        <time>2015-12-25T12:34:25Z</time>
      </trkpt>
      <trkpt lat="45.54301" lon="6.05484">
        <ele>1162.397626599</ele>
        <time>2015-12-25T12:34:36Z</time>
      </trkpt>
      <trkpt lat="45.54304" lon="6.05482">
        <ele>1162.397626599</ele>
        <time>2015-12-25T12:34:41Z</time>
      </trkpt>
      <trkpt lat="45.54308" lon="6.05473">
        <ele>1164.652764441</ele>
        <time>2015-12-25T12:34:51Z</time>
      </trkpt>
      <trkpt lat="45.5431" lon="6.05471">
        <ele>1164.652764441</ele>
        <time>2015-12-25T12:34:56Z</time>
      </trkpt>
      <trkpt lat="45.54316" lon="6.05468">
        <ele>1164.652764441</ele>
        <time>2015-12-25T12:35:05Z</time>
      </trkpt>
      <trkpt lat="45.54317" lon="6.05468">
        <ele>1164.652764441</ele>
        <time>2015-12-25T12:35:10Z</time>
      </trkpt>
      <trkpt lat="45.54324" lon="6.05453">
        <ele>1167.118955666</ele>
        <time>2015-12-25T12:35:26Z</time>
      </trkpt>
      <trkpt lat="45.54326" lon="6.05452">
        <ele>1167.118955666</ele>
        <time>2015-12-25T12:35:31Z</time>
      </trkpt>
      <trkpt lat="45.54327" lon="6.05448">
        <ele>1167.118955666</ele>
        <time>2015-12-25T12:35:40Z</time>
      </trkpt>
      <trkpt lat="45.54329" lon="6.05443">
        <ele>1169.782562019</ele>
        <time>2015-12-25T12:35:46Z</time>
      </trkpt>
      <trkpt lat="45.54334" lon="6.05435">
        <ele>1169.782562019</ele>
        <time>2015-12-25T12:35:56Z</time>
      </trkpt>
      <trkpt lat="45.54335" lon="6.05429">
        <ele>1172.197804383</ele>
        <time>2015-12-25T12:36:01Z</time>
      </trkpt>
      <trkpt lat="45.54334" lon="6.05424">
        <ele>1172.197804383</ele>
        <time>2015-12-25T12:36:11Z</time>
      </trkpt>
      <trkpt lat="45.54335" lon="6.05423">
        <ele>1172.197804383</ele>
        <time>2015-12-25T12:36:15Z</time>
      </trkpt>
      <trkpt lat="45.54335" lon="6.05423">
        <ele>1172.197804383</ele>
        <time>2015-12-25T12:36:25Z</time>
      </trkpt>
      <trkpt lat="45.54336" lon="6.05422">
        <ele>1172.197804383</ele>
        <time>2015-12-25T12:36:30Z</time>
      </trkpt>
      <trkpt lat="45.54337" lon="6.05418">
        <ele>1174.817363569</ele>
        <time>2015-12-25T12:36:40Z</time>
      </trkpt>
      <trkpt lat="45.54338" lon="6.05414">
        <ele>1174.817363569</ele>
        <time>2015-12-25T12:36:46Z</time>
      </trkpt>
      <trkpt lat="45.54341" lon="6.05404">
        <ele>1176.906656224</ele>
        <time>2015-12-25T12:36:56Z</time>
      </trkpt>
      <trkpt lat="45.54342" lon="6.05402">
        <ele>1176.906656224</ele>
        <time>2015-12-25T12:37:01Z</time>
      </trkpt>
      <trkpt lat="45.54346" lon="6.05393">
        <ele>1179.372296439</ele>
        <time>2015-12-25T12:37:11Z</time>
      </trkpt>
      <trkpt lat="45.54347" lon="6.05391">
        <ele>1179.372296439</ele>
        <time>2015-12-25T12:37:16Z</time>
      </trkpt>
      <trkpt lat="45.54349" lon="6.05384">
        <ele>1179.372296439</ele>
        <time>2015-12-25T12:37:26Z</time>
      </trkpt>
      <trkpt lat="45.5435" lon="6.05376">
        <ele>1182.476430065</ele>
        <time>2015-12-25T12:37:31Z</time>
      </trkpt>
      <trkpt lat="45.54351" lon="6.05372">
        <ele>1182.476430065</ele>
        <time>2015-12-25T12:37:35Z</time>
      </trkpt>
      <trkpt lat="45.54353" lon="6.05366">
        <ele>1182.476430065</ele>
        <time>2015-12-25T12:37:46Z</time>
      </trkpt>
      <trkpt lat="45.54358" lon="6.05358">
        <ele>1185.16277119</ele>
        <time>2015-12-25T12:37:50Z</time>
      </trkpt>
      <trkpt lat="45.5436" lon="6.05354">
        <ele>1185.16277119</ele>
        <time>2015-12-25T12:38:00Z</time>
      </trkpt>
      <trkpt lat="45.5436" lon="6.05352">
        <ele>1185.16277119</ele>
        <time>2015-12-25T12:38:06Z</time>
      </trkpt>
      <trkpt lat="45.54363" lon="6.05338">
        <ele>1187.174568387</ele>
        <time>2015-12-25T12:38:15Z</time>
      </trkpt>
      <trkpt lat="45.54362" lon="6.05337">
        <ele>1187.174568387</ele>
        <time>2015-12-25T12:38:20Z</time>
      </trkpt>
      <trkpt lat="45.54363" lon="6.05335">
        <ele>1187.174568387</ele>
        <time>2015-12-25T12:38:31Z</time>
      </trkpt>
      <trkpt lat="45.54363" lon="6.05333">
        <ele>1187.174568387</ele>
        <time>2015-12-25T12:38:35Z</time>
      </trkpt>
      <trkpt lat="45.54368" lon="6.05326">
        <ele>1188.85231249</ele>
        <time>2015-12-25T12:38:45Z</time>
      </trkpt>
      <trkpt lat="45.54367" lon="6.05325">
        <ele>1188.85231249</ele>
        <time>2015-12-25T12:38:50Z</time>
      </trkpt>
      <trkpt lat="45.54367" lon="6.05322">
        <ele>1188.85231249</ele>
        <time>2015-12-25T12:38:55Z</time>
      </trkpt>
      <trkpt lat="45.54371" lon="6.05319">
        <ele>1188.85231249</ele>
        <time>2015-12-25T12:39:07Z</time>
      </trkpt>
      <trkpt lat="45.54374" lon="6.05315">
        <ele>1190.368176051</ele>
        <time>2015-12-25T12:39:11Z</time>
      </trkpt>
      <trkpt lat="45.54374" lon="6.05307">
        <ele>1190.368176051</ele>
        <time>2015-12-25T12:39:21Z</time>
      </trkpt>
      <trkpt lat="45.54373" lon="6.05303">
        <ele>1190.368176051</ele>
        <time>2015-12-25T12:39:26Z</time>
      </trkpt>
      <trkpt lat="45.54376" lon="6.05295">
        <ele>1192.026172056</ele>
        <time>2015-12-25T12:39:36Z</time>
      </trkpt>
      <trkpt lat="45.54376" lon="6.05294">
        <ele>1192.026172056</ele>
        <time>2015-12-25T12:39:40Z</time>
      </trkpt>
      <trkpt lat="45.54376" lon="6.05291">
        <ele>1192.026172056</ele>
        <time>2015-12-25T12:39:51Z</time>
      </trkpt>
      <trkpt lat="45.54377" lon="6.0529">
        <ele>1192.026172056</ele>
        <time>2015-12-25T12:39:55Z</time>
      </trkpt>
      <trkpt lat="45.54377" lon="6.05286">
        <ele>1192.026172056</ele>
        <time>2015-12-25T12:40:06Z</time>
      </trkpt>
      <trkpt lat="45.54377" lon="6.05282">
        <ele>1194.107481095</ele>
        <time>2015-12-25T12:40:10Z</time>
      </trkpt>
      <trkpt lat="45.5438" lon="6.05278">
        <ele>1194.107481095</ele>
        <time>2015-12-25T12:40:15Z</time>
      </trkpt>
      <trkpt lat="45.5438" lon="6.05276">
        <ele>1194.107481095</ele>
        <time>2015-12-25T12:40:26Z</time>
      </trkpt>
      <trkpt lat="45.54385" lon="6.05272">
        <ele>1195.862501427</ele>
        <time>2015-12-25T12:40:30Z</time>
      </trkpt>
      <trkpt lat="45.5439" lon="6.05266">
        <ele>1195.862501427</ele>
        <time>2015-12-25T12:40:41Z</time>
      </trkpt>
      <trkpt lat="45.54391" lon="6.05265">
        <ele>1195.862501427</ele>
        <time>2015-12-25T12:40:46Z</time>
      </trkpt>
      <trkpt lat="45.54396" lon="6.05256">
        <ele>1197.02992971</ele>
        <time>2015-12-25T12:40:56Z</time>
      </trkpt>
      <trkpt lat="45.54399" lon="6.05253">
        <ele>1197.02992971</ele>
        <time>2015-12-25T12:41:00Z</time>
      </trkpt>
      <trkpt lat="45.54401" lon="6.05254">
        <ele>1197.02992971</ele>
        <time>2015-12-25T12:41:11Z</time>
      </trkpt>
      <trkpt lat="45.54404" lon="6.05252">
        <ele>1197.02992971</ele>
        <time>2015-12-25T12:41:16Z</time>
      </trkpt>
      <trkpt lat="45.54406" lon="6.05249">
        <ele>1198.08981003</ele>
        <time>2015-12-25T12:41:26Z</time>
      </trkpt>
      <trkpt lat="45.54408" lon="6.05248">
        <ele>1198.08981003</ele>
        <time>2015-12-25T12:41:31Z</time>
      </trkpt>
      <trkpt lat="45.54409" lon="6.05246">
        <ele>1198.08981003</ele>
        <time>2015-12-25T12:41:41Z</time>
      </trkpt>
      <trkpt lat="45.54409" lon="6.05246">
        <ele>1198.08981003</ele>
        <time>2015-12-25T12:41:45Z</time>
      </trkpt>
      <trkpt lat="45.54415" lon="6.0524">
        <ele>1199.342994133</ele>
        <time>2015-12-25T12:41:56Z</time>
      </trkpt>
      <trkpt lat="45.54418" lon="6.0524">
        <ele>1199.342994133</ele>
        <time>2015-12-25T12:42:00Z</time>
      </trkpt>
      <trkpt lat="45.5442" lon="6.0524">
        <ele>1199.342994133</ele>
        <time>2015-12-25T12:42:10Z</time>
      </trkpt>
      <trkpt lat="45.54423" lon="6.05239">
        <ele>1199.342994133</ele>
        <time>2015-12-25T12:42:15Z</time>
      </trkpt>
      <trkpt lat="45.54429" lon="6.05232">
        <ele>1200.779356423</ele>
        <time>2015-12-25T12:42:26Z</time>
      </trkpt>
      <trkpt lat="45.5443" lon="6.0523">
        <ele>1200.779356423</ele>
        <time>2015-12-25T12:42:31Z</time>
      </trkpt>
      <trkpt lat="45.54432" lon="6.05226">
        <ele>1200.779356423</ele>
        <time>2015-12-25T12:42:40Z</time>
      </trkpt>
      <trkpt lat="45.54434" lon="6.05223">
        <ele>1200.779356423</ele>
        <time>2015-12-25T12:42:46Z</time>
      </trkpt>
      <trkpt lat="45.54439" lon="6.05218">
        <ele>1202.67712923</ele>
        <time>2015-12-25T12:43:00Z</time>
      </trkpt>
      <trkpt lat="45.54439" lon="6.05217">
        <ele>1202.67712923</ele>
        <time>2015-12-25T12:43:05Z</time>
      </trkpt>
      <trkpt lat="45.54439" lon="6.05218">
        <ele>1202.67712923</ele>
        <time>2015-12-25T12:43:16Z</time>
      </trkpt>
      <trkpt lat="45.54439" lon="6.05217">
        <ele>1202.67712923</ele>
        <time>2015-12-25T12:43:21Z</time>
      </trkpt>
      <trkpt lat="45.54438" lon="6.05214">
        <ele>1202.67712923</ele>
        <time>2015-12-25T12:43:31Z</time>
      </trkpt>
      <trkpt lat="45.5444" lon="6.05212">
        <ele>1202.67712923</ele>
        <time>2015-12-25T12:43:36Z</time>
      </trkpt>
      <trkpt lat="45.54445" lon="6.05206">
        <ele>1204.283913809</ele>
        <time>2015-12-25T12:43:45Z</time>
      </trkpt>
      <trkpt lat="45.54445" lon="6.05205">
        <ele>1204.283913809</ele>
        <time>2015-12-25T12:43:51Z</time>
      </trkpt>
      <trkpt lat="45.54447" lon="6.05199">
        <ele>1204.283913809</ele>
        <time>2015-12-25T12:44:00Z</time>
      </trkpt>
      <trkpt lat="45.54448" lon="6.05198">
        <ele>1204.283913809</ele>
        <time>2015-12-25T12:44:06Z</time>
      </trkpt>
      <trkpt lat="45.5445" lon="6.05195">
        <ele>1206.200317845</ele>
        <time>2015-12-25T12:44:16Z</time>
      </trkpt>
      <trkpt lat="45.54448" lon="6.05193">
        <ele>1206.200317845</ele>
        <time>2015-12-25T12:44:21Z</time>
      </trkpt>
      <trkpt lat="45.54449" lon="6.05192">
        <ele>1206.200317845</ele>
        <time>2015-12-25T12:44:31Z</time>
      </trkpt>
      <trkpt lat="45.54449" lon="6.05192">
        <ele>1206.200317845</ele>
        <time>2015-12-25T12:44:35Z</time>
      </trkpt>
      <trkpt lat="45.5445" lon="6.05189">
        <ele>1206.200317845</ele>
        <time>2015-12-25T12:44:45Z</time>
      </trkpt>
      <trkpt lat="45.5445" lon="6.05189">
        <ele>1206.200317845</ele>
        <time>2015-12-25T12:44:51Z</time>
      </trkpt>
      <trkpt lat="45.5445" lon="6.05189">
        <ele>1206.200317845</ele>
        <time>2015-12-25T12:45:05Z</time>
      </trkpt>
      <trkpt lat="45.54452" lon="6.05186">
        <ele>1206.200317845</ele>
        <time>2015-12-25T12:45:10Z</time>
      </trkpt>
      <trkpt lat="45.54454" lon="6.05181">
        <ele>1208.549514916</ele>
        <time>2015-12-25T12:45:21Z</time>
      </trkpt>
      <trkpt lat="45.54457" lon="6.05178">
        <ele>1208.549514916</ele>
        <time>2015-12-25T12:45:25Z</time>
      </trkpt>
      <trkpt lat="45.54458" lon="6.05172">
        <ele>1208.549514916</ele>
        <time>2015-12-25T12:45:36Z</time>
      </trkpt>
      <trkpt lat="45.54458" lon="6.05171">
        <ele>1208.549514916</ele>
        <time>2015-12-25T12:45:41Z</time>
      </trkpt>
      <trkpt lat="45.54458" lon="6.05171">
        <ele>1208.549514916</ele>
        <time>2015-12-25T12:45:51Z</time>
      </trkpt>
      <trkpt lat="45.54458" lon="6.05171">
        <ele>1208.549514916</ele>
        <time>2015-12-25T12:45:56Z</time>
      </trkpt>
      <trkpt lat="45.54458" lon="6.05171">
        <ele>1208.549514916</ele>
        <time>2015-12-25T12:46:06Z</time>
      </trkpt>
      <trkpt lat="45.54458" lon="6.05171">
        <ele>1208.549514916</ele>
        <time>2015-12-25T12:46:11Z</time>
      </trkpt>
      <trkpt lat="45.54458" lon="6.05171">
        <ele>1208.549514916</ele>
        <time>2015-12-25T12:46:20Z</time>
      </trkpt>
      <trkpt lat="45.54459" lon="6.0517">
        <ele>1210.867867021</ele>
        <time>2015-12-25T12:46:26Z</time>
      </trkpt>
      <trkpt lat="45.5446" lon="6.05159">
        <ele>1210.867867021</ele>
        <time>2015-12-25T12:46:36Z</time>
      </trkpt>
      <trkpt lat="45.54459" lon="6.05157">
        <ele>1213.734575061</ele>
        <time>2015-12-25T12:46:41Z</time>
      </trkpt>
      <trkpt lat="45.54464" lon="6.05153">
        <ele>1213.734575061</ele>
        <time>2015-12-25T12:46:50Z</time>
      </trkpt>
      <trkpt lat="45.54465" lon="6.0515">
        <ele>1213.734575061</ele>
        <time>2015-12-25T12:46:56Z</time>
      </trkpt>
      <trkpt lat="45.54469" lon="6.05146">
        <ele>1216.387651966</ele>
        <time>2015-12-25T12:47:05Z</time>
      </trkpt>
      <trkpt lat="45.5447" lon="6.05145">
        <ele>1216.387651966</ele>
        <time>2015-12-25T12:47:10Z</time>
      </trkpt>
      <trkpt lat="45.54472" lon="6.05142">
        <ele>1216.387651966</ele>
        <time>2015-12-25T12:47:21Z</time>
      </trkpt>
      <trkpt lat="45.54473" lon="6.05142">
        <ele>1216.387651966</ele>
        <time>2015-12-25T12:47:25Z</time>
      </trkpt>
      <trkpt lat="45.54478" lon="6.05135">
        <ele>1219.274505931</ele>
        <time>2015-12-25T12:47:41Z</time>
      </trkpt>
      <trkpt lat="45.54479" lon="6.05133">
        <ele>1219.274505931</ele>
        <time>2015-12-25T12:47:45Z</time>
      </trkpt>
      <trkpt lat="45.54479" lon="6.05131">
        <ele>1219.274505931</ele>
        <time>2015-12-25T12:47:55Z</time>
      </trkpt>
      <trkpt lat="45.54479" lon="6.05131">
        <ele>1219.274505931</ele>
        <time>2015-12-25T12:48:01Z</time>
      </trkpt>
      <trkpt lat="45.54484" lon="6.05129">
        <ele>1222.232500308</ele>
        <time>2015-12-25T12:48:11Z</time>
      </trkpt>
      <trkpt lat="45.54488" lon="6.05126">
        <ele>1222.232500308</ele>
        <time>2015-12-25T12:48:15Z</time>
      </trkpt>
      <trkpt lat="45.5449" lon="6.0512">
        <ele>1222.232500308</ele>
        <time>2015-12-25T12:48:26Z</time>
      </trkpt>
      <trkpt lat="45.5449" lon="6.05119">
        <ele>1225.110682743</ele>
        <time>2015-12-25T12:48:30Z</time>
      </trkpt>
      <trkpt lat="45.54497" lon="6.05108">
        <ele>1228.345814698</ele>
        <time>2015-12-25T12:48:41Z</time>
      </trkpt>
      <trkpt lat="45.54499" lon="6.05107">
        <ele>1228.345814698</ele>
        <time>2015-12-25T12:48:45Z</time>
      </trkpt>
      <trkpt lat="45.54499" lon="6.05102">
        <ele>1228.345814698</ele>
        <time>2015-12-25T12:48:56Z</time>
      </trkpt>
      <trkpt lat="45.54501" lon="6.05096">
        <ele>1231.62096081</ele>
        <time>2015-12-25T12:49:00Z</time>
      </trkpt>
      <trkpt lat="45.54506" lon="6.05094">
        <ele>1231.62096081</ele>
        <time>2015-12-25T12:49:11Z</time>
      </trkpt>
      <trkpt lat="45.54508" lon="6.05093">
        <ele>1231.62096081</ele>
        <time>2015-12-25T12:49:16Z</time>
      </trkpt>
      <trkpt lat="45.5451" lon="6.0509">
        <ele>1234.354091069</ele>
        <time>2015-12-25T12:49:26Z</time>
      </trkpt>
      <trkpt lat="45.54511" lon="6.0509">
        <ele>1234.354091069</ele>
        <time>2015-12-25T12:49:30Z</time>
      </trkpt>
      <trkpt lat="45.54512" lon="6.05086">
        <ele>1234.354091069</ele>
        <time>2015-12-25T12:49:41Z</time>
      </trkpt>
      <trkpt lat="45.54512" lon="6.05086">
        <ele>1234.354091069</ele>
        <time>2015-12-25T12:49:45Z</time>
      </trkpt>
      <trkpt lat="45.54515" lon="6.05081">
        <ele>1234.354091069</ele>
        <time>2015-12-25T12:49:56Z</time>
      </trkpt>
      <trkpt lat="45.54515" lon="6.05081">
        <ele>1237.160339156</ele>
        <time>2015-12-25T12:50:00Z</time>
      </trkpt>
      <trkpt lat="45.54515" lon="6.05081">
        <ele>1237.160339156</ele>
        <time>2015-12-25T12:50:11Z</time>
      </trkpt>
      <trkpt lat="45.54518" lon="6.05078">
        <ele>1237.160339156</ele>
        <time>2015-12-25T12:50:15Z</time>
      </trkpt>
      <trkpt lat="45.54522" lon="6.05076">
        <ele>1237.160339156</ele>
        <time>2015-12-25T12:50:26Z</time>
      </trkpt>
      <trkpt lat="45.54523" lon="6.05076">
        <ele>1237.160339156</ele>
        <time>2015-12-25T12:50:30Z</time>
      </trkpt>
      <trkpt lat="45.54528" lon="6.05075">
        <ele>1239.88885675</ele>
        <time>2015-12-25T12:50:45Z</time>
      </trkpt>
      <trkpt lat="45.5453" lon="6.05076">
        <ele>1239.88885675</ele>
        <time>2015-12-25T12:50:50Z</time>
      </trkpt>
      <trkpt lat="45.54539" lon="6.0508">
        <ele>1243.553001008</ele>
        <time>2015-12-25T12:51:01Z</time>
      </trkpt>
      <trkpt lat="45.5454" lon="6.05082">
        <ele>1243.553001008</ele>
        <time>2015-12-25T12:51:05Z</time>
      </trkpt>
      <trkpt lat="45.54541" lon="6.05084">
        <ele>1243.553001008</ele>
        <time>2015-12-25T12:51:15Z</time>
      </trkpt>
      <trkpt lat="45.54541" lon="6.05084">
        <ele>1243.553001008</ele>
        <time>2015-12-25T12:51:21Z</time>
      </trkpt>
      <trkpt lat="45.54544" lon="6.05089">
        <ele>1243.553001008</ele>
        <time>2015-12-25T12:51:38Z</time>
      </trkpt>
      <trkpt lat="45.54546" lon="6.05092">
        <ele>1247.936143131</ele>
        <time>2015-12-25T12:51:40Z</time>
      </trkpt>
      <trkpt lat="45.54547" lon="6.05092">
        <ele>1247.936143131</ele>
        <time>2015-12-25T12:51:45Z</time>
      </trkpt>
      <trkpt lat="45.54547" lon="6.05094">
        <ele>1247.936143131</ele>
        <time>2015-12-25T12:51:50Z</time>
      </trkpt>
      <trkpt lat="45.54547" lon="6.05095">
        <ele>1247.936143131</ele>
        <time>2015-12-25T12:52:01Z</time>
      </trkpt>
      <trkpt lat="45.54547" lon="6.05095">
        <ele>1247.936143131</ele>
        <time>2015-12-25T12:52:05Z</time>
      </trkpt>
      <trkpt lat="45.5455" lon="6.05096">
        <ele>1247.936143131</ele>
        <time>2015-12-25T12:52:21Z</time>
      </trkpt>
      <trkpt lat="45.5456" lon="6.05118">
        <ele>1252.114983514</ele>
        <time>2015-12-25T12:52:36Z</time>
      </trkpt>
      <trkpt lat="45.54571" lon="6.05118">
        <ele>1256.09933091</ele>
        <time>2015-12-25T12:52:51Z</time>
      </trkpt>
      <trkpt lat="45.54572" lon="6.05124">
        <ele>1256.09933091</ele>
        <time>2015-12-25T12:52:56Z</time>
      </trkpt>
      <trkpt lat="45.54573" lon="6.05131">
        <ele>1259.466507564</ele>
        <time>2015-12-25T12:53:00Z</time>
      </trkpt>
      <trkpt lat="45.54574" lon="6.05133">
        <ele>1259.466507564</ele>
        <time>2015-12-25T12:53:05Z</time>
      </trkpt>
      <trkpt lat="45.54575" lon="6.0514">
        <ele>1259.466507564</ele>
        <time>2015-12-25T12:53:10Z</time>
      </trkpt>
      <trkpt lat="45.54575" lon="6.05142">
        <ele>1259.466507564</ele>
        <time>2015-12-25T12:53:26Z</time>
      </trkpt>
      <trkpt lat="45.54575" lon="6.05143">
        <ele>1262.835464785</ele>
        <time>2015-12-25T12:53:30Z</time>
      </trkpt>
      <trkpt lat="45.54575" lon="6.05143">
        <ele>1262.835464785</ele>
        <time>2015-12-25T12:53:41Z</time>
      </trkpt>
      <trkpt lat="45.54576" lon="6.05147">
        <ele>1262.835464785</ele>
        <time>2015-12-25T12:53:45Z</time>
      </trkpt>
      <trkpt lat="45.54576" lon="6.05164">
        <ele>1266.347386175</ele>
        <time>2015-12-25T12:53:56Z</time>
      </trkpt>
      <trkpt lat="45.54575" lon="6.05171">
        <ele>1266.347386175</ele>
        <time>2015-12-25T12:54:00Z</time>
      </trkpt>
      <trkpt lat="45.54577" lon="6.05174">
        <ele>1266.347386175</ele>
        <time>2015-12-25T12:54:16Z</time>
      </trkpt>
      <trkpt lat="45.54578" lon="6.05174">
        <ele>1266.347386175</ele>
        <time>2015-12-25T12:54:20Z</time>
      </trkpt>
      <trkpt lat="45.54578" lon="6.05186">
        <ele>1270.997428247</ele>
        <time>2015-12-25T12:54:31Z</time>
      </trkpt>
      <trkpt lat="45.54584" lon="6.05189">
        <ele>1270.997428247</ele>
        <time>2015-12-25T12:54:36Z</time>
      </trkpt>
      <trkpt lat="45.54583" lon="6.05195">
        <ele>1275.975140782</ele>
        <time>2015-12-25T12:54:46Z</time>
      </trkpt>
      <trkpt lat="45.54582" lon="6.05199">
        <ele>1275.975140782</ele>
        <time>2015-12-25T12:54:51Z</time>
      </trkpt>
      <trkpt lat="45.54581" lon="6.05198">
        <ele>1275.975140782</ele>
        <time>2015-12-25T12:55:00Z</time>
      </trkpt>
      <trkpt lat="45.54582" lon="6.05198">
        <ele>1275.975140782</ele>
        <time>2015-12-25T12:55:06Z</time>
      </trkpt>
      <trkpt lat="45.54582" lon="6.05198">
        <ele>1275.975140782</ele>
        <time>2015-12-25T12:55:15Z</time>
      </trkpt>
      <trkpt lat="45.54581" lon="6.05198">
        <ele>1275.975140782</ele>
        <time>2015-12-25T12:55:21Z</time>
      </trkpt>
      <trkpt lat="45.54581" lon="6.05199">
        <ele>1275.975140782</ele>
        <time>2015-12-25T12:55:31Z</time>
      </trkpt>
      <trkpt lat="45.54581" lon="6.05199">
        <ele>1275.975140782</ele>
        <time>2015-12-25T12:55:35Z</time>
      </trkpt>
      <trkpt lat="45.54581" lon="6.05199">
        <ele>1275.975140782</ele>
        <time>2015-12-25T12:55:52Z</time>
      </trkpt>
      <trkpt lat="45.54581" lon="6.05199">
        <ele>1275.975140782</ele>
        <time>2015-12-25T12:55:55Z</time>
      </trkpt>
      <trkpt lat="45.54581" lon="6.05199">
        <ele>1275.975140782</ele>
        <time>2015-12-25T12:56:06Z</time>
      </trkpt>
      <trkpt lat="45.54581" lon="6.05199">
        <ele>1275.975140782</ele>
        <time>2015-12-25T12:56:11Z</time>
      </trkpt>
      <trkpt lat="45.54581" lon="6.05199">
        <ele>1275.975140782</ele>
        <time>2015-12-25T12:56:20Z</time>
      </trkpt>
      <trkpt lat="45.54581" lon="6.05199">
        <ele>1275.975140782</ele>
        <time>2015-12-25T12:56:25Z</time>
      </trkpt>
      <trkpt lat="45.54588" lon="6.05213">
        <ele>1280.961114396</ele>
        <time>2015-12-25T12:56:36Z</time>
      </trkpt>
      <trkpt lat="45.54585" lon="6.05218">
        <ele>1280.961114396</ele>
        <time>2015-12-25T12:56:40Z</time>
      </trkpt>
      <trkpt lat="45.5458" lon="6.05233">
        <ele>1285.947701239</ele>
        <time>2015-12-25T12:56:56Z</time>
      </trkpt>
      <trkpt lat="45.54579" lon="6.05232">
        <ele>1285.947701239</ele>
        <time>2015-12-25T12:57:00Z</time>
      </trkpt>
      <trkpt lat="45.54571" lon="6.05233">
        <ele>1290.783804696</ele>
        <time>2015-12-25T12:57:11Z</time>
      </trkpt>
      <trkpt lat="45.54569" lon="6.0523">
        <ele>1290.783804696</ele>
        <time>2015-12-25T12:57:15Z</time>
      </trkpt>
      <trkpt lat="45.54565" lon="6.0523">
        <ele>1290.783804696</ele>
        <time>2015-12-25T12:57:26Z</time>
      </trkpt>
      <trkpt lat="45.54564" lon="6.05231">
        <ele>1290.783804696</ele>
        <time>2015-12-25T12:57:31Z</time>
      </trkpt>
      <trkpt lat="45.5456" lon="6.05234">
        <ele>1295.041739883</ele>
        <time>2015-12-25T12:57:40Z</time>
      </trkpt>
      <trkpt lat="45.54554" lon="6.05235">
        <ele>1295.041739883</ele>
        <time>2015-12-25T12:57:45Z</time>
      </trkpt>
      <trkpt lat="45.5455" lon="6.05236">
        <ele>1298.615215193</ele>
        <time>2015-12-25T12:57:56Z</time>
      </trkpt>
      <trkpt lat="45.54546" lon="6.05238">
        <ele>1298.615215193</ele>
        <time>2015-12-25T12:58:01Z</time>
      </trkpt>
      <trkpt lat="45.5454" lon="6.05241">
        <ele>1301.263682066</ele>
        <time>2015-12-25T12:58:11Z</time>
      </trkpt>
      <trkpt lat="45.5454" lon="6.05242">
        <ele>1301.263682066</ele>
        <time>2015-12-25T12:58:15Z</time>
      </trkpt>
      <trkpt lat="45.54539" lon="6.05243">
        <ele>1301.263682066</ele>
        <time>2015-12-25T12:58:25Z</time>
      </trkpt>
      <trkpt lat="45.54539" lon="6.05243">
        <ele>1301.263682066</ele>
        <time>2015-12-25T12:58:31Z</time>
      </trkpt>
      <trkpt lat="45.54539" lon="6.05243">
        <ele>1301.263682066</ele>
        <time>2015-12-25T12:58:41Z</time>
      </trkpt>
      <trkpt lat="45.54539" lon="6.05243">
        <ele>1301.263682066</ele>
        <time>2015-12-25T12:58:46Z</time>
      </trkpt>
      <trkpt lat="45.54539" lon="6.05257">
        <ele>1302.766982506</ele>
        <time>2015-12-25T12:58:56Z</time>
      </trkpt>
      <trkpt lat="45.54537" lon="6.05263">
        <ele>1302.766982506</ele>
        <time>2015-12-25T12:59:00Z</time>
      </trkpt>
      <trkpt lat="45.54535" lon="6.05275">
        <ele>1304.077361349</ele>
        <time>2015-12-25T12:59:11Z</time>
      </trkpt>
      <trkpt lat="45.54534" lon="6.05277">
        <ele>1304.077361349</ele>
        <time>2015-12-25T12:59:15Z</time>
      </trkpt>
      <trkpt lat="45.54532" lon="6.05292">
        <ele>1305.645410018</ele>
        <time>2015-12-25T12:59:31Z</time>
      </trkpt>
      <trkpt lat="45.54531" lon="6.05292">
        <ele>1305.645410018</ele>
        <time>2015-12-25T12:59:35Z</time>
      </trkpt>
      <trkpt lat="45.54531" lon="6.05292">
        <ele>1305.645410018</ele>
        <time>2015-12-25T12:59:46Z</time>
      </trkpt>
      <trkpt lat="45.54531" lon="6.05292">
        <ele>1305.645410018</ele>
        <time>2015-12-25T12:59:50Z</time>
      </trkpt>
      <trkpt lat="45.54531" lon="6.05292">
        <ele>1305.645410018</ele>
        <time>2015-12-25T13:00:00Z</time>
      </trkpt>
      <trkpt lat="45.5453" lon="6.05298">
        <ele>1305.645410018</ele>
        <time>2015-12-25T13:00:05Z</time>
      </trkpt>
      <trkpt lat="45.54528" lon="6.05307">
        <ele>1307.59975337</ele>
        <time>2015-12-25T13:00:17Z</time>
      </trkpt>
      <trkpt lat="45.54527" lon="6.05309">
        <ele>1307.59975337</ele>
        <time>2015-12-25T13:00:20Z</time>
      </trkpt>
      <trkpt lat="45.54527" lon="6.05309">
        <ele>1307.59975337</ele>
        <time>2015-12-25T13:00:30Z</time>
      </trkpt>
      <trkpt lat="45.54527" lon="6.05309">
        <ele>1307.59975337</ele>
        <time>2015-12-25T13:00:36Z</time>
      </trkpt>
      <trkpt lat="45.54527" lon="6.05309">
        <ele>1307.59975337</ele>
        <time>2015-12-25T13:00:45Z</time>
      </trkpt>
      <trkpt lat="45.54527" lon="6.05309">
        <ele>1307.59975337</ele>
        <time>2015-12-25T13:00:50Z</time>
      </trkpt>
      <trkpt lat="45.54527" lon="6.0531">
        <ele>1307.59975337</ele>
        <time>2015-12-25T13:01:01Z</time>
      </trkpt>
      <trkpt lat="45.54525" lon="6.05317">
        <ele>1307.59975337</ele>
        <time>2015-12-25T13:01:06Z</time>
      </trkpt>
      <trkpt lat="45.54523" lon="6.05324">
        <ele>1309.626214125</ele>
        <time>2015-12-25T13:01:16Z</time>
      </trkpt>
      <trkpt lat="45.54523" lon="6.05325">
        <ele>1309.626214125</ele>
        <time>2015-12-25T13:01:20Z</time>
      </trkpt>
      <trkpt lat="45.54522" lon="6.05329">
        <ele>1309.626214125</ele>
        <time>2015-12-25T13:01:31Z</time>
      </trkpt>
      <trkpt lat="45.54521" lon="6.0533">
        <ele>1309.626214125</ele>
        <time>2015-12-25T13:01:35Z</time>
      </trkpt>
      <trkpt lat="45.54521" lon="6.0533">
        <ele>1309.626214125</ele>
        <time>2015-12-25T13:01:51Z</time>
      </trkpt>
      <trkpt lat="45.54521" lon="6.0533">
        <ele>1309.626214125</ele>
        <time>2015-12-25T13:01:55Z</time>
      </trkpt>
      <trkpt lat="45.54517" lon="6.05329">
        <ele>1312.586445703</ele>
        <time>2015-12-25T13:02:06Z</time>
      </trkpt>
      <trkpt lat="45.54515" lon="6.05331">
        <ele>1312.586445703</ele>
        <time>2015-12-25T13:02:11Z</time>
      </trkpt>
      <trkpt lat="45.54515" lon="6.05336">
        <ele>1312.586445703</ele>
        <time>2015-12-25T13:02:21Z</time>
      </trkpt>
      <trkpt lat="45.54515" lon="6.05336">
        <ele>1312.586445703</ele>
        <time>2015-12-25T13:02:25Z</time>
      </trkpt>
      <trkpt lat="45.54513" lon="6.05346">
        <ele>1315.979221433</ele>
        <time>2015-12-25T13:02:36Z</time>
      </trkpt>
      <trkpt lat="45.54512" lon="6.05351">
        <ele>1315.979221433</ele>
        <time>2015-12-25T13:02:41Z</time>
      </trkpt>
      <trkpt lat="45.54512" lon="6.0535">
        <ele>1315.979221433</ele>
        <time>2015-12-25T13:02:56Z</time>
      </trkpt>
      <trkpt lat="45.54513" lon="6.05355">
        <ele>1315.979221433</ele>
        <time>2015-12-25T13:03:11Z</time>
      </trkpt>
      <trkpt lat="45.54513" lon="6.05357">
        <ele>1320.635974478</ele>
        <time>2015-12-25T13:03:15Z</time>
      </trkpt>
      <trkpt lat="45.54512" lon="6.05357">
        <ele>1320.635974478</ele>
        <time>2015-12-25T13:03:25Z</time>
      </trkpt>
      <trkpt lat="45.5451" lon="6.05362">
        <ele>1320.635974478</ele>
        <time>2015-12-25T13:03:31Z</time>
      </trkpt>
      <trkpt lat="45.54505" lon="6.05374">
        <ele>1323.576651964</ele>
        <time>2015-12-25T13:03:40Z</time>
      </trkpt>
      <trkpt lat="45.54503" lon="6.05378">
        <ele>1323.576651964</ele>
        <time>2015-12-25T13:03:45Z</time>
      </trkpt>
      <trkpt lat="45.54501" lon="6.05381">
        <ele>1323.576651964</ele>
        <time>2015-12-25T13:03:55Z</time>
      </trkpt>
      <trkpt lat="45.54501" lon="6.05382">
        <ele>1323.576651964</ele>
        <time>2015-12-25T13:04:01Z</time>
      </trkpt>
      <trkpt lat="45.54501" lon="6.05381">
        <ele>1323.576651964</ele>
        <time>2015-12-25T13:04:10Z</time>
      </trkpt>
      <trkpt lat="45.54501" lon="6.05381">
        <ele>1323.576651964</ele>
        <time>2015-12-25T13:04:15Z</time>
      </trkpt>
      <trkpt lat="45.54501" lon="6.05381">
        <ele>1323.576651964</ele>
        <time>2015-12-25T13:04:30Z</time>
      </trkpt>
      <trkpt lat="45.54501" lon="6.05381">
        <ele>1323.576651964</ele>
        <time>2015-12-25T13:04:46Z</time>
      </trkpt>
      <trkpt lat="45.54501" lon="6.05381">
        <ele>1323.576651964</ele>
        <time>2015-12-25T13:04:51Z</time>
      </trkpt>
      <trkpt lat="45.54501" lon="6.05383">
        <ele>1323.576651964</ele>
        <time>2015-12-25T13:05:01Z</time>
      </trkpt>
      <trkpt lat="45.54501" lon="6.05383">
        <ele>1323.576651964</ele>
        <time>2015-12-25T13:05:05Z</time>
      </trkpt>
      <trkpt lat="45.54501" lon="6.05392">
        <ele>1327.521225829</ele>
        <time>2015-12-25T13:05:16Z</time>
      </trkpt>
      <trkpt lat="45.54497" lon="6.05397">
        <ele>1327.521225829</ele>
        <time>2015-12-25T13:05:21Z</time>
      </trkpt>
      <trkpt lat="45.54497" lon="6.05419">
        <ele>1331.240187646</ele>
        <time>2015-12-25T13:05:31Z</time>
      </trkpt>
      <trkpt lat="45.54499" lon="6.05422">
        <ele>1331.240187646</ele>
        <time>2015-12-25T13:05:36Z</time>
      </trkpt>
      <trkpt lat="45.54497" lon="6.05425">
        <ele>1331.240187646</ele>
        <time>2015-12-25T13:05:46Z</time>
      </trkpt>
      <trkpt lat="45.54497" lon="6.05425">
        <ele>1331.240187646</ele>
        <time>2015-12-25T13:05:51Z</time>
      </trkpt>
      <trkpt lat="45.54497" lon="6.05424">
        <ele>1331.240187646</ele>
        <time>2015-12-25T13:05:56Z</time>
      </trkpt>
      <trkpt lat="45.54497" lon="6.05424">
        <ele>1331.240187646</ele>
        <time>2015-12-25T13:06:05Z</time>
      </trkpt>
      <trkpt lat="45.54497" lon="6.05424">
        <ele>1331.240187646</ele>
        <time>2015-12-25T13:06:11Z</time>
      </trkpt>
      <trkpt lat="45.54497" lon="6.05424">
        <ele>1331.240187646</ele>
        <time>2015-12-25T13:06:21Z</time>
      </trkpt>
      <trkpt lat="45.54497" lon="6.05424">
        <ele>1331.240187646</ele>
        <time>2015-12-25T13:06:25Z</time>
      </trkpt>
      <trkpt lat="45.54497" lon="6.05424">
        <ele>1331.240187646</ele>
        <time>2015-12-25T13:06:36Z</time>
      </trkpt>
      <trkpt lat="45.54497" lon="6.05424">
        <ele>1331.240187646</ele>
        <time>2015-12-25T13:06:41Z</time>
      </trkpt>
      <trkpt lat="45.54497" lon="6.05424">
        <ele>1331.240187646</ele>
        <time>2015-12-25T13:06:51Z</time>
      </trkpt>
      <trkpt lat="45.54503" lon="6.05429">
        <ele>1334.603817079</ele>
        <time>2015-12-25T13:06:56Z</time>
      </trkpt>
      <trkpt lat="45.54504" lon="6.05438">
        <ele>1334.603817079</ele>
        <time>2015-12-25T13:07:05Z</time>
      </trkpt>
      <trkpt lat="45.54502" lon="6.05438">
        <ele>1334.603817079</ele>
        <time>2015-12-25T13:07:11Z</time>
      </trkpt>
      <trkpt lat="45.54501" lon="6.05439">
        <ele>1340.519317806</ele>
        <time>2015-12-25T13:07:21Z</time>
      </trkpt>
      <trkpt lat="45.54501" lon="6.05439">
        <ele>1340.519317806</ele>
        <time>2015-12-25T13:07:26Z</time>
      </trkpt>
      <trkpt lat="45.54497" lon="6.05437">
        <ele>1340.519317806</ele>
        <time>2015-12-25T13:07:37Z</time>
      </trkpt>
      <trkpt lat="45.54497" lon="6.05437">
        <ele>1340.519317806</ele>
        <time>2015-12-25T13:07:41Z</time>
      </trkpt>
      <trkpt lat="45.54497" lon="6.05436">
        <ele>1340.519317806</ele>
        <time>2015-12-25T13:07:50Z</time>
      </trkpt>
      <trkpt lat="45.54496" lon="6.05436">
        <ele>1340.519317806</ele>
        <time>2015-12-25T13:07:55Z</time>
      </trkpt>
      <trkpt lat="45.54496" lon="6.05436">
        <ele>1340.519317806</ele>
        <time>2015-12-25T13:08:05Z</time>
      </trkpt>
      <trkpt lat="45.54496" lon="6.05436">
        <ele>1340.519317806</ele>
        <time>2015-12-25T13:08:11Z</time>
      </trkpt>
      <trkpt lat="45.54503" lon="6.05449">
        <ele>1345.908780841</ele>
        <time>2015-12-25T13:08:20Z</time>
      </trkpt>
      <trkpt lat="45.54503" lon="6.05448">
        <ele>1345.908780841</ele>
        <time>2015-12-25T13:08:26Z</time>
      </trkpt>
      <trkpt lat="45.54501" lon="6.05449">
        <ele>1345.908780841</ele>
        <time>2015-12-25T13:08:40Z</time>
      </trkpt>
      <trkpt lat="45.54492" lon="6.0545">
        <ele>1351.236514436</ele>
        <time>2015-12-25T13:08:55Z</time>
      </trkpt>
      <trkpt lat="45.54488" lon="6.05452">
        <ele>1351.236514436</ele>
        <time>2015-12-25T13:09:00Z</time>
      </trkpt>
      <trkpt lat="45.54485" lon="6.05455">
        <ele>1351.236514436</ele>
        <time>2015-12-25T13:09:10Z</time>
      </trkpt>
      <trkpt lat="45.54485" lon="6.05455">
        <ele>1351.236514436</ele>
        <time>2015-12-25T13:09:16Z</time>
      </trkpt>
      <trkpt lat="45.54481" lon="6.05456">
        <ele>1355.635976867</ele>
        <time>2015-12-25T13:09:26Z</time>
      </trkpt>
      <trkpt lat="45.54481" lon="6.05459">
        <ele>1355.635976867</ele>
        <time>2015-12-25T13:09:30Z</time>
      </trkpt>
      <trkpt lat="45.54481" lon="6.05459">
        <ele>1355.635976867</ele>
        <time>2015-12-25T13:09:42Z</time>
      </trkpt>
      <trkpt lat="45.54481" lon="6.05459">
        <ele>1355.635976867</ele>
        <time>2015-12-25T13:09:45Z</time>
      </trkpt>
      <trkpt lat="45.54477" lon="6.05462">
        <ele>1355.635976867</ele>
        <time>2015-12-25T13:09:56Z</time>
      </trkpt>
      <trkpt lat="45.54474" lon="6.05468">
        <ele>1360.180430728</ele>
        <time>2015-12-25T13:10:00Z</time>
      </trkpt>
      <trkpt lat="45.54475" lon="6.05476">
        <ele>1360.180430728</ele>
        <time>2015-12-25T13:10:11Z</time>
      </trkpt>
      <trkpt lat="45.54473" lon="6.05479">
        <ele>1360.180430728</ele>
        <time>2015-12-25T13:10:16Z</time>
      </trkpt>
      <trkpt lat="45.54472" lon="6.0548">
        <ele>1365.287551172</ele>
        <time>2015-12-25T13:10:26Z</time>
      </trkpt>
      <trkpt lat="45.54473" lon="6.05479">
        <ele>1365.287551172</ele>
        <time>2015-12-25T13:10:30Z</time>
      </trkpt>
      <trkpt lat="45.54472" lon="6.0548">
        <ele>1365.287551172</ele>
        <time>2015-12-25T13:10:35Z</time>
      </trkpt>
      <trkpt lat="45.54472" lon="6.0548">
        <ele>1365.287551172</ele>
        <time>2015-12-25T13:10:40Z</time>
      </trkpt>
      <trkpt lat="45.54472" lon="6.05481">
        <ele>1365.287551172</ele>
        <time>2015-12-25T13:10:46Z</time>
      </trkpt>
      <trkpt lat="45.54477" lon="6.05479">
        <ele>1365.287551172</ele>
        <time>2015-12-25T13:10:56Z</time>
      </trkpt>
      <trkpt lat="45.5448" lon="6.05478">
        <ele>1369.757640868</ele>
        <time>2015-12-25T13:11:01Z</time>
      </trkpt>
      <trkpt lat="45.5448" lon="6.05476">
        <ele>1369.757640868</ele>
        <time>2015-12-25T13:11:16Z</time>
      </trkpt>
      <trkpt lat="45.54483" lon="6.05476">
        <ele>1369.757640868</ele>
        <time>2015-12-25T13:11:20Z</time>
      </trkpt>
      <trkpt lat="45.54488" lon="6.05469">
        <ele>1375.075037811</ele>
        <time>2015-12-25T13:11:31Z</time>
      </trkpt>
      <trkpt lat="45.54489" lon="6.05469">
        <ele>1375.075037811</ele>
        <time>2015-12-25T13:11:35Z</time>
      </trkpt>
      <trkpt lat="45.54494" lon="6.05469">
        <ele>1375.075037811</ele>
        <time>2015-12-25T13:11:46Z</time>
      </trkpt>
      <trkpt lat="45.54495" lon="6.0547">
        <ele>1375.075037811</ele>
        <time>2015-12-25T13:11:50Z</time>
      </trkpt>
      <trkpt lat="45.54496" lon="6.05466">
        <ele>1380.307007747</ele>
        <time>2015-12-25T13:12:00Z</time>
      </trkpt>
      <trkpt lat="45.54497" lon="6.05467">
        <ele>1380.307007747</ele>
        <time>2015-12-25T13:12:05Z</time>
      </trkpt>
      <trkpt lat="45.54497" lon="6.05467">
        <ele>1380.307007747</ele>
        <time>2015-12-25T13:12:16Z</time>
      </trkpt>
      <trkpt lat="45.54497" lon="6.05467">
        <ele>1380.307007747</ele>
        <time>2015-12-25T13:12:21Z</time>
      </trkpt>
      <trkpt lat="45.54499" lon="6.05458">
        <ele>1380.307007747</ele>
        <time>2015-12-25T13:12:31Z</time>
      </trkpt>
      <trkpt lat="45.54498" lon="6.05456">
        <ele>1380.307007747</ele>
        <time>2015-12-25T13:12:36Z</time>
      </trkpt>
      <trkpt lat="45.545" lon="6.05457">
        <ele>1385.310258759</ele>
        <time>2015-12-25T13:12:45Z</time>
      </trkpt>
      <trkpt lat="45.54499" lon="6.05455">
        <ele>1385.310258759</ele>
        <time>2015-12-25T13:12:51Z</time>
      </trkpt>
      <trkpt lat="45.54497" lon="6.05456">
        <ele>1385.310258759</ele>
        <time>2015-12-25T13:12:55Z</time>
      </trkpt>
      <trkpt lat="45.54499" lon="6.05455">
        <ele>1385.310258759</ele>
        <time>2015-12-25T13:13:05Z</time>
      </trkpt>
      <trkpt lat="45.54501" lon="6.0545">
        <ele>1385.310258759</ele>
        <time>2015-12-25T13:13:10Z</time>
      </trkpt>
      <trkpt lat="45.54504" lon="6.05449">
        <ele>1390.0969111</ele>
        <time>2015-12-25T13:13:20Z</time>
      </trkpt>
      <trkpt lat="45.54508" lon="6.05443">
        <ele>1390.0969111</ele>
        <time>2015-12-25T13:13:25Z</time>
      </trkpt>
      <trkpt lat="45.54508" lon="6.0544">
        <ele>1390.0969111</ele>
        <time>2015-12-25T13:13:36Z</time>
      </trkpt>
      <trkpt lat="45.54508" lon="6.0544">
        <ele>1390.0969111</ele>
        <time>2015-12-25T13:13:40Z</time>
      </trkpt>
      <trkpt lat="45.54511" lon="6.05439">
        <ele>1394.102493525</ele>
        <time>2015-12-25T13:13:51Z</time>
      </trkpt>
      <trkpt lat="45.54511" lon="6.05439">
        <ele>1394.102493525</ele>
        <time>2015-12-25T13:13:55Z</time>
      </trkpt>
      <trkpt lat="45.54512" lon="6.05439">
        <ele>1394.102493525</ele>
        <time>2015-12-25T13:14:05Z</time>
      </trkpt>
      <trkpt lat="45.54512" lon="6.05439">
        <ele>1394.102493525</ele>
        <time>2015-12-25T13:14:10Z</time>
      </trkpt>
      <trkpt lat="45.54517" lon="6.05442">
        <ele>1394.102493525</ele>
        <time>2015-12-25T13:14:21Z</time>
      </trkpt>
      <trkpt lat="45.54519" lon="6.05442">
        <ele>1398.247440248</ele>
        <time>2015-12-25T13:14:26Z</time>
      </trkpt>
      <trkpt lat="45.54518" lon="6.05444">
        <ele>1398.247440248</ele>
        <time>2015-12-25T13:14:36Z</time>
      </trkpt>
      <trkpt lat="45.5452" lon="6.05444">
        <ele>1398.247440248</ele>
        <time>2015-12-25T13:14:41Z</time>
      </trkpt>
      <trkpt lat="45.54524" lon="6.05446">
        <ele>1398.247440248</ele>
        <time>2015-12-25T13:14:51Z</time>
      </trkpt>
      <trkpt lat="45.54526" lon="6.05447">
        <ele>1402.66375873</ele>
        <time>2015-12-25T13:14:55Z</time>
      </trkpt>
      <trkpt lat="45.54527" lon="6.05453">
        <ele>1402.66375873</ele>
        <time>2015-12-25T13:15:06Z</time>
      </trkpt>
      <trkpt lat="45.54527" lon="6.05452">
        <ele>1402.66375873</ele>
        <time>2015-12-25T13:15:10Z</time>
      </trkpt>
      <trkpt lat="45.54527" lon="6.05452">
        <ele>1402.66375873</ele>
        <time>2015-12-25T13:15:26Z</time>
      </trkpt>
      <trkpt lat="45.54527" lon="6.05452">
        <ele>1402.66375873</ele>
        <time>2015-12-25T13:15:30Z</time>
      </trkpt>
      <trkpt lat="45.54527" lon="6.05452">
        <ele>1402.66375873</ele>
        <time>2015-12-25T13:15:41Z</time>
      </trkpt>
      <trkpt lat="45.54529" lon="6.05455">
        <ele>1402.66375873</ele>
        <time>2015-12-25T13:15:46Z</time>
      </trkpt>
      <trkpt lat="45.5453" lon="6.05461">
        <ele>1407.329018763</ele>
        <time>2015-12-25T13:15:56Z</time>
      </trkpt>
      <trkpt lat="45.54531" lon="6.05465">
        <ele>1407.329018763</ele>
        <time>2015-12-25T13:16:01Z</time>
      </trkpt>
      <trkpt lat="45.54531" lon="6.05465">
        <ele>1407.329018763</ele>
        <time>2015-12-25T13:16:11Z</time>
      </trkpt>
      <trkpt lat="45.54531" lon="6.05465">
        <ele>1407.329018763</ele>
        <time>2015-12-25T13:16:15Z</time>
      </trkpt>
      <trkpt lat="45.54532" lon="6.05465">
        <ele>1407.329018763</ele>
        <time>2015-12-25T13:16:26Z</time>
      </trkpt>
      <trkpt lat="45.54532" lon="6.05465">
        <ele>1407.329018763</ele>
        <time>2015-12-25T13:16:31Z</time>
      </trkpt>
      <trkpt lat="45.54534" lon="6.05469">
        <ele>1407.329018763</ele>
        <time>2015-12-25T13:16:41Z</time>
      </trkpt>
      <trkpt lat="45.54534" lon="6.05473">
        <ele>1411.357200125</ele>
        <time>2015-12-25T13:16:46Z</time>
      </trkpt>
      <trkpt lat="45.54535" lon="6.05472">
        <ele>1411.357200125</ele>
        <time>2015-12-25T13:16:56Z</time>
      </trkpt>
      <trkpt lat="45.54538" lon="6.05473">
        <ele>1411.357200125</ele>
        <time>2015-12-25T13:17:01Z</time>
      </trkpt>
      <trkpt lat="45.54541" lon="6.05474">
        <ele>1411.357200125</ele>
        <time>2015-12-25T13:17:15Z</time>
      </trkpt>
      <trkpt lat="45.54543" lon="6.05475">
        <ele>1411.357200125</ele>
        <time>2015-12-25T13:17:20Z</time>
      </trkpt>
      <trkpt lat="45.54546" lon="6.05477">
        <ele>1415.226281535</ele>
        <time>2015-12-25T13:17:31Z</time>
      </trkpt>
      <trkpt lat="45.54547" lon="6.05473">
        <ele>1415.226281535</ele>
        <time>2015-12-25T13:17:35Z</time>
      </trkpt>
      <trkpt lat="45.54554" lon="6.05472">
        <ele>1418.947361515</ele>
        <time>2015-12-25T13:17:46Z</time>
      </trkpt>
      <trkpt lat="45.54554" lon="6.05472">
        <ele>1418.947361515</ele>
        <time>2015-12-25T13:17:51Z</time>
      </trkpt>
      <trkpt lat="45.54556" lon="6.05473">
        <ele>1418.947361515</ele>
        <time>2015-12-25T13:18:01Z</time>
      </trkpt>
      <trkpt lat="45.54558" lon="6.05473">
        <ele>1418.947361515</ele>
        <time>2015-12-25T13:18:05Z</time>
      </trkpt>
      <trkpt lat="45.54564" lon="6.05468">
        <ele>1422.963585608</ele>
        <time>2015-12-25T13:18:16Z</time>
      </trkpt>
      <trkpt lat="45.54566" lon="6.05466">
        <ele>1422.963585608</ele>
        <time>2015-12-25T13:18:21Z</time>
      </trkpt>
      <trkpt lat="45.54571" lon="6.05466">
        <ele>1422.963585608</ele>
        <time>2015-12-25T13:18:30Z</time>
      </trkpt>
      <trkpt lat="45.54572" lon="6.05467">
        <ele>1422.963585608</ele>
        <time>2015-12-25T13:18:36Z</time>
      </trkpt>
      <trkpt lat="45.54571" lon="6.05465">
        <ele>1426.387822367</ele>
        <time>2015-12-25T13:18:46Z</time>
      </trkpt>
      <trkpt lat="45.54571" lon="6.05464">
        <ele>1426.387822367</ele>
        <time>2015-12-25T13:18:51Z</time>
      </trkpt>
      <trkpt lat="45.54571" lon="6.05464">
        <ele>1426.387822367</ele>
        <time>2015-12-25T13:19:01Z</time>
      </trkpt>
      <trkpt lat="45.54571" lon="6.05463">
        <ele>1426.387822367</ele>
        <time>2015-12-25T13:19:06Z</time>
      </trkpt>
      <trkpt lat="45.54571" lon="6.05463">
        <ele>1426.387822367</ele>
        <time>2015-12-25T13:19:16Z</time>
      </trkpt>
      <trkpt lat="45.54571" lon="6.05463">
        <ele>1426.387822367</ele>
        <time>2015-12-25T13:19:21Z</time>
      </trkpt>
      <trkpt lat="45.54571" lon="6.05463">
        <ele>1426.387822367</ele>
        <time>2015-12-25T13:19:25Z</time>
      </trkpt>
      <trkpt lat="45.54571" lon="6.05464">
        <ele>1426.387822367</ele>
        <time>2015-12-25T13:19:36Z</time>
      </trkpt>
      <trkpt lat="45.54571" lon="6.05463">
        <ele>1426.387822367</ele>
        <time>2015-12-25T13:19:40Z</time>
      </trkpt>
      <trkpt lat="45.5457" lon="6.05462">
        <ele>1426.387822367</ele>
        <time>2015-12-25T13:19:51Z</time>
      </trkpt>
      <trkpt lat="45.5457" lon="6.05462">
        <ele>1426.387822367</ele>
        <time>2015-12-25T13:19:55Z</time>
      </trkpt>
      <trkpt lat="45.5457" lon="6.05462">
        <ele>1426.387822367</ele>
        <time>2015-12-25T13:20:05Z</time>
      </trkpt>
      <trkpt lat="45.5457" lon="6.05462">
        <ele>1426.387822367</ele>
        <time>2015-12-25T13:20:11Z</time>
      </trkpt>
      <trkpt lat="45.5457" lon="6.05462">
        <ele>1426.387822367</ele>
        <time>2015-12-25T13:20:21Z</time>
      </trkpt>
      <trkpt lat="45.5457" lon="6.05462">
        <ele>1426.387822367</ele>
        <time>2015-12-25T13:20:25Z</time>
      </trkpt>
      <trkpt lat="45.5457" lon="6.05462">
        <ele>1426.387822367</ele>
        <time>2015-12-25T13:20:35Z</time>
      </trkpt>
      <trkpt lat="45.5457" lon="6.05464">
        <ele>1426.387822367</ele>
        <time>2015-12-25T13:20:41Z</time>
      </trkpt>
      <trkpt lat="45.54572" lon="6.05462">
        <ele>1426.387822367</ele>
        <time>2015-12-25T13:20:51Z</time>
      </trkpt>
      <trkpt lat="45.5457" lon="6.05465">
        <ele>1429.264532984</ele>
        <time>2015-12-25T13:20:55Z</time>
      </trkpt>
      <trkpt lat="45.5457" lon="6.05465">
        <ele>1429.264532984</ele>
        <time>2015-12-25T13:21:03Z</time>
      </trkpt>
      <trkpt lat="45.54569" lon="6.05473">
        <ele>1429.264532984</ele>
        <time>2015-12-25T13:21:10Z</time>
      </trkpt>
      <trkpt lat="45.5457" lon="6.05478">
        <ele>1431.924756558</ele>
        <time>2015-12-25T13:21:16Z</time>
      </trkpt>
      <trkpt lat="45.54571" lon="6.05497">
        <ele>1433.811225717</ele>
        <time>2015-12-25T13:21:30Z</time>
      </trkpt>
      <trkpt lat="45.54572" lon="6.05501">
        <ele>1433.811225717</ele>
        <time>2015-12-25T13:21:35Z</time>
      </trkpt>
      <trkpt lat="45.54572" lon="6.05509">
        <ele>1433.811225717</ele>
        <time>2015-12-25T13:21:45Z</time>
      </trkpt>
      <trkpt lat="45.54574" lon="6.05511">
        <ele>1436.139171642</ele>
        <time>2015-12-25T13:21:50Z</time>
      </trkpt>
      <trkpt lat="45.54581" lon="6.05517">
        <ele>1436.139171642</ele>
        <time>2015-12-25T13:22:00Z</time>
      </trkpt>
      <trkpt lat="45.54585" lon="6.05522">
        <ele>1438.30402088</ele>
        <time>2015-12-25T13:22:05Z</time>
      </trkpt>
      <trkpt lat="45.54593" lon="6.05531">
        <ele>1440.034313227</ele>
        <time>2015-12-25T13:22:16Z</time>
      </trkpt>
      <trkpt lat="45.54599" lon="6.05537">
        <ele>1440.034313227</ele>
        <time>2015-12-25T13:22:20Z</time>
      </trkpt>
      <trkpt lat="45.54606" lon="6.05542">
        <ele>1441.656197756</ele>
        <time>2015-12-25T13:22:30Z</time>
      </trkpt>
      <trkpt lat="45.54608" lon="6.05542">
        <ele>1441.656197756</ele>
        <time>2015-12-25T13:22:36Z</time>
      </trkpt>
      <trkpt lat="45.54617" lon="6.05551">
        <ele>1443.472155961</ele>
        <time>2015-12-25T13:22:46Z</time>
      </trkpt>
      <trkpt lat="45.54622" lon="6.05554">
        <ele>1443.472155961</ele>
        <time>2015-12-25T13:22:50Z</time>
      </trkpt>
      <trkpt lat="45.54628" lon="6.05561">
        <ele>1445.617764622</ele>
        <time>2015-12-25T13:23:05Z</time>
      </trkpt>
      <trkpt lat="45.54629" lon="6.05562">
        <ele>1445.617764622</ele>
        <time>2015-12-25T13:23:10Z</time>
      </trkpt>
      <trkpt lat="45.54634" lon="6.0557">
        <ele>1445.617764622</ele>
        <time>2015-12-25T13:23:21Z</time>
      </trkpt>
      <trkpt lat="45.54635" lon="6.05572">
        <ele>1448.217673642</ele>
        <time>2015-12-25T13:23:26Z</time>
      </trkpt>
      <trkpt lat="45.54635" lon="6.05572">
        <ele>1448.217673642</ele>
        <time>2015-12-25T13:23:35Z</time>
      </trkpt>
      <trkpt lat="45.54637" lon="6.05576">
        <ele>1448.217673642</ele>
        <time>2015-12-25T13:23:41Z</time>
      </trkpt>
      <trkpt lat="45.54639" lon="6.05578">
        <ele>1448.217673642</ele>
        <time>2015-12-25T13:23:51Z</time>
      </trkpt>
      <trkpt lat="45.5464" lon="6.05579">
        <ele>1448.217673642</ele>
        <time>2015-12-25T13:23:55Z</time>
      </trkpt>
      <trkpt lat="45.54644" lon="6.05581">
        <ele>1451.097825965</ele>
        <time>2015-12-25T13:24:06Z</time>
      </trkpt>
      <trkpt lat="45.54646" lon="6.05583">
        <ele>1451.097825965</ele>
        <time>2015-12-25T13:24:11Z</time>
      </trkpt>
      <trkpt lat="45.54653" lon="6.05585">
        <ele>1453.807881038</ele>
        <time>2015-12-25T13:24:20Z</time>
      </trkpt>
      <trkpt lat="45.54655" lon="6.05585">
        <ele>1453.807881038</ele>
        <time>2015-12-25T13:24:26Z</time>
      </trkpt>
      <trkpt lat="45.54661" lon="6.05593">
        <ele>1456.219212999</ele>
        <time>2015-12-25T13:24:36Z</time>
      </trkpt>
      <trkpt lat="45.54664" lon="6.05595">
        <ele>1456.219212999</ele>
        <time>2015-12-25T13:24:40Z</time>
      </trkpt>
      <trkpt lat="45.54674" lon="6.05606">
        <ele>1458.645745039</ele>
        <time>2015-12-25T13:24:56Z</time>
      </trkpt>
      <trkpt lat="45.54678" lon="6.05609">
        <ele>1458.645745039</ele>
        <time>2015-12-25T13:25:00Z</time>
      </trkpt>
      <trkpt lat="45.54683" lon="6.05611">
        <ele>1460.369441225</ele>
        <time>2015-12-25T13:25:10Z</time>
      </trkpt>
      <trkpt lat="45.54688" lon="6.0561">
        <ele>1460.369441225</ele>
        <time>2015-12-25T13:25:15Z</time>
      </trkpt>
      <trkpt lat="45.54696" lon="6.05615">
        <ele>1462.023900474</ele>
        <time>2015-12-25T13:25:26Z</time>
      </trkpt>
      <trkpt lat="45.54701" lon="6.0562">
        <ele>1462.023900474</ele>
        <time>2015-12-25T13:25:30Z</time>
      </trkpt>
      <trkpt lat="45.54707" lon="6.05631">
        <ele>1464.340391897</ele>
        <time>2015-12-25T13:25:40Z</time>
      </trkpt>
      <trkpt lat="45.54709" lon="6.05637">
        <ele>1464.340391897</ele>
        <time>2015-12-25T13:25:45Z</time>
      </trkpt>
      <trkpt lat="45.5471" lon="6.05639">
        <ele>1464.340391897</ele>
        <time>2015-12-25T13:25:55Z</time>
      </trkpt>
      <trkpt lat="45.54711" lon="6.0564">
        <ele>1464.340391897</ele>
        <time>2015-12-25T13:26:00Z</time>
      </trkpt>
      <trkpt lat="45.54713" lon="6.05641">
        <ele>1466.409286859</ele>
        <time>2015-12-25T13:26:10Z</time>
      </trkpt>
      <trkpt lat="45.54714" lon="6.05644">
        <ele>1466.409286859</ele>
        <time>2015-12-25T13:26:15Z</time>
      </trkpt>
      <trkpt lat="45.54714" lon="6.05649">
        <ele>1466.409286859</ele>
        <time>2015-12-25T13:26:26Z</time>
      </trkpt>
      <trkpt lat="45.54714" lon="6.0565">
        <ele>1466.409286859</ele>
        <time>2015-12-25T13:26:30Z</time>
      </trkpt>
      <trkpt lat="45.54718" lon="6.05652">
        <ele>1468.253033921</ele>
        <time>2015-12-25T13:26:40Z</time>
      </trkpt>
      <trkpt lat="45.54721" lon="6.0565">
        <ele>1468.253033921</ele>
        <time>2015-12-25T13:26:45Z</time>
      </trkpt>
      <trkpt lat="45.54727" lon="6.05649">
        <ele>1469.892952739</ele>
        <time>2015-12-25T13:26:56Z</time>
      </trkpt>
      <trkpt lat="45.54727" lon="6.05656">
        <ele>1469.892952739</ele>
        <time>2015-12-25T13:27:00Z</time>
      </trkpt>
      <trkpt lat="45.54734" lon="6.05656">
        <ele>1471.349251362</ele>
        <time>2015-12-25T13:27:11Z</time>
      </trkpt>
      <trkpt lat="45.54734" lon="6.05657">
        <ele>1471.349251362</ele>
        <time>2015-12-25T13:27:15Z</time>
      </trkpt>
      <trkpt lat="45.54734" lon="6.05659">
        <ele>1471.349251362</ele>
        <time>2015-12-25T13:27:26Z</time>
      </trkpt>
      <trkpt lat="45.54735" lon="6.05659">
        <ele>1471.349251362</ele>
        <time>2015-12-25T13:27:30Z</time>
      </trkpt>
      <trkpt lat="45.54735" lon="6.05659">
        <ele>1471.349251362</ele>
        <time>2015-12-25T13:27:41Z</time>
      </trkpt>
      <trkpt lat="45.54735" lon="6.05659">
        <ele>1471.349251362</ele>
        <time>2015-12-25T13:27:45Z</time>
      </trkpt>
      <trkpt lat="45.54734" lon="6.05661">
        <ele>1471.349251362</ele>
        <time>2015-12-25T13:27:56Z</time>
      </trkpt>
      <trkpt lat="45.54734" lon="6.05662">
        <ele>1471.349251362</ele>
        <time>2015-12-25T13:28:00Z</time>
      </trkpt>
      <trkpt lat="45.54735" lon="6.05662">
        <ele>1471.349251362</ele>
        <time>2015-12-25T13:28:10Z</time>
      </trkpt>
      <trkpt lat="45.54735" lon="6.05662">
        <ele>1471.349251362</ele>
        <time>2015-12-25T13:28:15Z</time>
      </trkpt>
      <trkpt lat="45.54737" lon="6.05665">
        <ele>1471.349251362</ele>
        <time>2015-12-25T13:28:26Z</time>
      </trkpt>
      <trkpt lat="45.54737" lon="6.05664">
        <ele>1473.217490182</ele>
        <time>2015-12-25T13:28:30Z</time>
      </trkpt>
      <trkpt lat="45.54739" lon="6.05663">
        <ele>1473.217490182</ele>
        <time>2015-12-25T13:28:46Z</time>
      </trkpt>
      <trkpt lat="45.54741" lon="6.05666">
        <ele>1473.217490182</ele>
        <time>2015-12-25T13:28:50Z</time>
      </trkpt>
      <trkpt lat="45.54742" lon="6.05664">
        <ele>1473.217490182</ele>
        <time>2015-12-25T13:29:01Z</time>
      </trkpt>
      <trkpt lat="45.54745" lon="6.05663">
        <ele>1475.183528965</ele>
        <time>2015-12-25T13:29:05Z</time>
      </trkpt>
      <trkpt lat="45.54747" lon="6.0566">
        <ele>1475.183528965</ele>
        <time>2015-12-25T13:29:15Z</time>
      </trkpt>
      <trkpt lat="45.5475" lon="6.0566">
        <ele>1475.183528965</ele>
        <time>2015-12-25T13:29:20Z</time>
      </trkpt>
      <trkpt lat="45.5475" lon="6.05659">
        <ele>1475.183528965</ele>
        <time>2015-12-25T13:29:31Z</time>
      </trkpt>
      <trkpt lat="45.54752" lon="6.05657">
        <ele>1475.183528965</ele>
        <time>2015-12-25T13:29:35Z</time>
      </trkpt>
      <trkpt lat="45.54755" lon="6.05656">
        <ele>1478.39701114</ele>
        <time>2015-12-25T13:29:46Z</time>
      </trkpt>
      <trkpt lat="45.54755" lon="6.05656">
        <ele>1478.39701114</ele>
        <time>2015-12-25T13:29:50Z</time>
      </trkpt>
      <trkpt lat="45.54755" lon="6.05657">
        <ele>1478.39701114</ele>
        <time>2015-12-25T13:30:00Z</time>
      </trkpt>
      <trkpt lat="45.54755" lon="6.05657">
        <ele>1478.39701114</ele>
        <time>2015-12-25T13:30:05Z</time>
      </trkpt>
      <trkpt lat="45.54755" lon="6.05657">
        <ele>1478.39701114</ele>
        <time>2015-12-25T13:30:21Z</time>
      </trkpt>
      <trkpt lat="45.54756" lon="6.05656">
        <ele>1478.39701114</ele>
        <time>2015-12-25T13:30:31Z</time>
      </trkpt>
      <trkpt lat="45.54758" lon="6.05658">
        <ele>1478.39701114</ele>
        <time>2015-12-25T13:30:35Z</time>
      </trkpt>
      <trkpt lat="45.5476" lon="6.05659">
        <ele>1478.39701114</ele>
        <time>2015-12-25T13:30:40Z</time>
      </trkpt>
      <trkpt lat="45.54764" lon="6.05658">
        <ele>1481.757831685</ele>
        <time>2015-12-25T13:30:50Z</time>
      </trkpt>
      <trkpt lat="45.54764" lon="6.05659">
        <ele>1481.757831685</ele>
        <time>2015-12-25T13:30:56Z</time>
      </trkpt>
      <trkpt lat="45.54765" lon="6.05663">
        <ele>1481.757831685</ele>
        <time>2015-12-25T13:31:06Z</time>
      </trkpt>
      <trkpt lat="45.54765" lon="6.05663">
        <ele>1481.757831685</ele>
        <time>2015-12-25T13:31:10Z</time>
      </trkpt>
      <trkpt lat="45.54771" lon="6.05673">
        <ele>1485.399051208</ele>
        <time>2015-12-25T13:31:21Z</time>
      </trkpt>
      <trkpt lat="45.54772" lon="6.05676">
        <ele>1485.399051208</ele>
        <time>2015-12-25T13:31:26Z</time>
      </trkpt>
      <trkpt lat="45.54777" lon="6.05678">
        <ele>1485.399051208</ele>
        <time>2015-12-25T13:31:35Z</time>
      </trkpt>
      <trkpt lat="45.5478" lon="6.05677">
        <ele>1489.298943625</ele>
        <time>2015-12-25T13:31:40Z</time>
      </trkpt>
      <trkpt lat="45.54781" lon="6.05678">
        <ele>1489.298943625</ele>
        <time>2015-12-25T13:31:51Z</time>
      </trkpt>
      <trkpt lat="45.54782" lon="6.05678">
        <ele>1489.298943625</ele>
        <time>2015-12-25T13:31:56Z</time>
      </trkpt>
      <trkpt lat="45.54783" lon="6.05676">
        <ele>1489.298943625</ele>
        <time>2015-12-25T13:32:05Z</time>
      </trkpt>
      <trkpt lat="45.54784" lon="6.05677">
        <ele>1489.298943625</ele>
        <time>2015-12-25T13:32:11Z</time>
      </trkpt>
      <trkpt lat="45.54789" lon="6.05681">
        <ele>1493.292439608</ele>
        <time>2015-12-25T13:32:21Z</time>
      </trkpt>
      <trkpt lat="45.5479" lon="6.05682">
        <ele>1493.292439608</ele>
        <time>2015-12-25T13:32:25Z</time>
      </trkpt>
      <trkpt lat="45.54791" lon="6.05683">
        <ele>1493.292439608</ele>
        <time>2015-12-25T13:32:36Z</time>
      </trkpt>
      <trkpt lat="45.54793" lon="6.05684">
        <ele>1493.292439608</ele>
        <time>2015-12-25T13:32:40Z</time>
      </trkpt>
      <trkpt lat="45.54797" lon="6.05685">
        <ele>1493.292439608</ele>
        <time>2015-12-25T13:32:51Z</time>
      </trkpt>
      <trkpt lat="45.54798" lon="6.05685">
        <ele>1498.379134782</ele>
        <time>2015-12-25T13:32:56Z</time>
      </trkpt>
      <trkpt lat="45.54802" lon="6.05694">
        <ele>1498.379134782</ele>
        <time>2015-12-25T13:33:06Z</time>
      </trkpt>
      <trkpt lat="45.54802" lon="6.05694">
        <ele>1498.379134782</ele>
        <time>2015-12-25T13:33:11Z</time>
      </trkpt>
      <trkpt lat="45.54804" lon="6.05697">
        <ele>1502.888054868</ele>
        <time>2015-12-25T13:33:21Z</time>
      </trkpt>
      <trkpt lat="45.54806" lon="6.05697">
        <ele>1502.888054868</ele>
        <time>2015-12-25T13:33:26Z</time>
      </trkpt>
      <trkpt lat="45.54808" lon="6.05703">
        <ele>1502.888054868</ele>
        <time>2015-12-25T13:33:40Z</time>
      </trkpt>
      <trkpt lat="45.54811" lon="6.05705">
        <ele>1507.145984067</ele>
        <time>2015-12-25T13:33:45Z</time>
      </trkpt>
      <trkpt lat="45.54816" lon="6.05705">
        <ele>1507.145984067</ele>
        <time>2015-12-25T13:33:56Z</time>
      </trkpt>
      <trkpt lat="45.54817" lon="6.05705">
        <ele>1507.145984067</ele>
        <time>2015-12-25T13:34:01Z</time>
      </trkpt>
      <trkpt lat="45.54822" lon="6.05708">
        <ele>1511.024030478</ele>
        <time>2015-12-25T13:34:11Z</time>
      </trkpt>
      <trkpt lat="45.54822" lon="6.05708">
        <ele>1511.024030478</ele>
        <time>2015-12-25T13:34:15Z</time>
      </trkpt>
      <trkpt lat="45.54823" lon="6.05709">
        <ele>1511.024030478</ele>
        <time>2015-12-25T13:34:26Z</time>
      </trkpt>
      <trkpt lat="45.54825" lon="6.05714">
        <ele>1511.024030478</ele>
        <time>2015-12-25T13:34:31Z</time>
      </trkpt>
      <trkpt lat="45.54825" lon="6.05717">
        <ele>1511.024030478</ele>
        <time>2015-12-25T13:34:40Z</time>
      </trkpt>
      <trkpt lat="45.54824" lon="6.05719">
        <ele>1511.024030478</ele>
        <time>2015-12-25T13:34:46Z</time>
      </trkpt>
      <trkpt lat="45.54822" lon="6.05724">
        <ele>1515.268475886</ele>
        <time>2015-12-25T13:34:56Z</time>
      </trkpt>
      <trkpt lat="45.54822" lon="6.05725">
        <ele>1515.268475886</ele>
        <time>2015-12-25T13:35:00Z</time>
      </trkpt>
      <trkpt lat="45.54823" lon="6.05728">
        <ele>1515.268475886</ele>
        <time>2015-12-25T13:35:11Z</time>
      </trkpt>
      <trkpt lat="45.54825" lon="6.05731">
        <ele>1515.268475886</ele>
        <time>2015-12-25T13:35:15Z</time>
      </trkpt>
      <trkpt lat="45.54828" lon="6.0574">
        <ele>1519.993293043</ele>
        <time>2015-12-25T13:35:30Z</time>
      </trkpt>
      <trkpt lat="45.54828" lon="6.05741">
        <ele>1519.993293043</ele>
        <time>2015-12-25T13:35:35Z</time>
      </trkpt>
      <trkpt lat="45.54832" lon="6.05748">
        <ele>1519.993293043</ele>
        <time>2015-12-25T13:35:46Z</time>
      </trkpt>
      <trkpt lat="45.54833" lon="6.05752">
        <ele>1524.149841016</ele>
        <time>2015-12-25T13:35:51Z</time>
      </trkpt>
      <trkpt lat="45.54834" lon="6.05753">
        <ele>1524.149841016</ele>
        <time>2015-12-25T13:36:01Z</time>
      </trkpt>
      <trkpt lat="45.54835" lon="6.05758">
        <ele>1524.149841016</ele>
        <time>2015-12-25T13:36:06Z</time>
      </trkpt>
      <trkpt lat="45.54836" lon="6.05755">
        <ele>1524.149841016</ele>
        <time>2015-12-25T13:36:15Z</time>
      </trkpt>
      <trkpt lat="45.54837" lon="6.05755">
        <ele>1524.149841016</ele>
        <time>2015-12-25T13:36:20Z</time>
      </trkpt>
      <trkpt lat="45.54837" lon="6.05755">
        <ele>1524.149841016</ele>
        <time>2015-12-25T13:36:26Z</time>
      </trkpt>
      <trkpt lat="45.54839" lon="6.05756">
        <ele>1528.209223023</ele>
        <time>2015-12-25T13:36:35Z</time>
      </trkpt>
      <trkpt lat="45.54841" lon="6.05762">
        <ele>1528.209223023</ele>
        <time>2015-12-25T13:36:41Z</time>
      </trkpt>
      <trkpt lat="45.54843" lon="6.05765">
        <ele>1528.209223023</ele>
        <time>2015-12-25T13:36:50Z</time>
      </trkpt>
      <trkpt lat="45.54844" lon="6.05766">
        <ele>1528.209223023</ele>
        <time>2015-12-25T13:36:55Z</time>
      </trkpt>
      <trkpt lat="45.54846" lon="6.05768">
        <ele>1532.175889507</ele>
        <time>2015-12-25T13:37:05Z</time>
      </trkpt>
      <trkpt lat="45.54847" lon="6.05769">
        <ele>1532.175889507</ele>
        <time>2015-12-25T13:37:11Z</time>
      </trkpt>
      <trkpt lat="45.54858" lon="6.05771">
        <ele>1535.910135416</ele>
        <time>2015-12-25T13:37:26Z</time>
      </trkpt>
      <trkpt lat="45.54866" lon="6.05774">
        <ele>1535.910135416</ele>
        <time>2015-12-25T13:37:41Z</time>
      </trkpt>
      <trkpt lat="45.54866" lon="6.05775">
        <ele>1539.42730894</ele>
        <time>2015-12-25T13:37:45Z</time>
      </trkpt>
      <trkpt lat="45.54868" lon="6.0578">
        <ele>1539.42730894</ele>
        <time>2015-12-25T13:37:56Z</time>
      </trkpt>
      <trkpt lat="45.5487" lon="6.05783">
        <ele>1539.42730894</ele>
        <time>2015-12-25T13:38:00Z</time>
      </trkpt>
      <trkpt lat="45.54876" lon="6.05789">
        <ele>1543.462827275</ele>
        <time>2015-12-25T13:38:11Z</time>
      </trkpt>
      <trkpt lat="45.54877" lon="6.05788">
        <ele>1543.462827275</ele>
        <time>2015-12-25T13:38:15Z</time>
      </trkpt>
      <trkpt lat="45.54881" lon="6.05786">
        <ele>1543.462827275</ele>
        <time>2015-12-25T13:38:26Z</time>
      </trkpt>
      <trkpt lat="45.54883" lon="6.05784">
        <ele>1543.462827275</ele>
        <time>2015-12-25T13:38:30Z</time>
      </trkpt>
      <trkpt lat="45.54888" lon="6.05789">
        <ele>1547.831998955</ele>
        <time>2015-12-25T13:38:41Z</time>
      </trkpt>
      <trkpt lat="45.54889" lon="6.05791">
        <ele>1547.831998955</ele>
        <time>2015-12-25T13:38:45Z</time>
      </trkpt>
      <trkpt lat="45.54892" lon="6.05795">
        <ele>1547.831998955</ele>
        <time>2015-12-25T13:38:56Z</time>
      </trkpt>
      <trkpt lat="45.54895" lon="6.05794">
        <ele>1551.498135814</ele>
        <time>2015-12-25T13:39:00Z</time>
      </trkpt>
      <trkpt lat="45.54902" lon="6.05801">
        <ele>1551.498135814</ele>
        <time>2015-12-25T13:39:11Z</time>
      </trkpt>
      <trkpt lat="45.54906" lon="6.05805">
        <ele>1554.943830015</ele>
        <time>2015-12-25T13:39:15Z</time>
      </trkpt>
      <trkpt lat="45.5491" lon="6.05802">
        <ele>1554.943830015</ele>
        <time>2015-12-25T13:39:25Z</time>
      </trkpt>
      <trkpt lat="45.5491" lon="6.05801">
        <ele>1554.943830015</ele>
        <time>2015-12-25T13:39:30Z</time>
      </trkpt>
      <trkpt lat="45.54912" lon="6.05801">
        <ele>1554.943830015</ele>
        <time>2015-12-25T13:39:40Z</time>
      </trkpt>
      <trkpt lat="45.54912" lon="6.05802">
        <ele>1554.943830015</ele>
        <time>2015-12-25T13:39:45Z</time>
      </trkpt>
      <trkpt lat="45.54912" lon="6.05802">
        <ele>1554.943830015</ele>
        <time>2015-12-25T13:39:56Z</time>
      </trkpt>
      <trkpt lat="45.54915" lon="6.05804">
        <ele>1558.472774316</ele>
        <time>2015-12-25T13:40:01Z</time>
      </trkpt>
      <trkpt lat="45.54917" lon="6.05805">
        <ele>1558.472774316</ele>
        <time>2015-12-25T13:40:16Z</time>
      </trkpt>
      <trkpt lat="45.54917" lon="6.05805">
        <ele>1558.472774316</ele>
        <time>2015-12-25T13:40:21Z</time>
      </trkpt>
      <trkpt lat="45.54919" lon="6.05803">
        <ele>1558.472774316</ele>
        <time>2015-12-25T13:40:31Z</time>
      </trkpt>
      <trkpt lat="45.5492" lon="6.05804">
        <ele>1558.472774316</ele>
        <time>2015-12-25T13:40:36Z</time>
      </trkpt>
      <trkpt lat="45.54921" lon="6.05805">
        <ele>1558.472774316</ele>
        <time>2015-12-25T13:40:46Z</time>
      </trkpt>
      <trkpt lat="45.54921" lon="6.05805">
        <ele>1558.472774316</ele>
        <time>2015-12-25T13:40:50Z</time>
      </trkpt>
      <trkpt lat="45.54926" lon="6.05809">
        <ele>1562.510275949</ele>
        <time>2015-12-25T13:41:01Z</time>
      </trkpt>
      <trkpt lat="45.54926" lon="6.05808">
        <ele>1562.510275949</ele>
        <time>2015-12-25T13:41:06Z</time>
      </trkpt>
      <trkpt lat="45.54926" lon="6.05807">
        <ele>1562.510275949</ele>
        <time>2015-12-25T13:41:16Z</time>
      </trkpt>
      <trkpt lat="45.54927" lon="6.05809">
        <ele>1562.510275949</ele>
        <time>2015-12-25T13:41:20Z</time>
      </trkpt>
      <trkpt lat="45.54928" lon="6.0581">
        <ele>1562.510275949</ele>
        <time>2015-12-25T13:41:31Z</time>
      </trkpt>
      <trkpt lat="45.54928" lon="6.0581">
        <ele>1562.510275949</ele>
        <time>2015-12-25T13:41:35Z</time>
      </trkpt>
      <trkpt lat="45.54928" lon="6.0581">
        <ele>1562.510275949</ele>
        <time>2015-12-25T13:41:45Z</time>
      </trkpt>
      <trkpt lat="45.54928" lon="6.0581">
        <ele>1562.510275949</ele>
        <time>2015-12-25T13:41:51Z</time>
      </trkpt>
      <trkpt lat="45.54929" lon="6.05811">
        <ele>1562.510275949</ele>
        <time>2015-12-25T13:42:01Z</time>
      </trkpt>
      <trkpt lat="45.54931" lon="6.05811">
        <ele>1562.510275949</ele>
        <time>2015-12-25T13:42:05Z</time>
      </trkpt>
      <trkpt lat="45.54932" lon="6.05811">
        <ele>1566.728463919</ele>
        <time>2015-12-25T13:42:10Z</time>
      </trkpt>
      <trkpt lat="45.5494" lon="6.0582">
        <ele>1570.39076026</ele>
        <time>2015-12-25T13:42:26Z</time>
      </trkpt>
      <trkpt lat="45.54942" lon="6.05819">
        <ele>1570.39076026</ele>
        <time>2015-12-25T13:42:30Z</time>
      </trkpt>
      <trkpt lat="45.54942" lon="6.05819">
        <ele>1570.39076026</ele>
        <time>2015-12-25T13:42:41Z</time>
      </trkpt>
      <trkpt lat="45.54942" lon="6.05819">
        <ele>1570.39076026</ele>
        <time>2015-12-25T13:42:46Z</time>
      </trkpt>
      <trkpt lat="45.54942" lon="6.05819">
        <ele>1570.39076026</ele>
        <time>2015-12-25T13:42:55Z</time>
      </trkpt>
      <trkpt lat="45.54942" lon="6.05819">
        <ele>1570.39076026</ele>
        <time>2015-12-25T13:43:00Z</time>
      </trkpt>
      <trkpt lat="45.54942" lon="6.05819">
        <ele>1570.39076026</ele>
        <time>2015-12-25T13:43:10Z</time>
      </trkpt>
      <trkpt lat="45.54942" lon="6.05819">
        <ele>1570.39076026</ele>
        <time>2015-12-25T13:43:15Z</time>
      </trkpt>
      <trkpt lat="45.54942" lon="6.0582">
        <ele>1570.39076026</ele>
        <time>2015-12-25T13:43:26Z</time>
      </trkpt>
      <trkpt lat="45.54943" lon="6.0582">
        <ele>1570.39076026</ele>
        <time>2015-12-25T13:43:30Z</time>
      </trkpt>
      <trkpt lat="45.54944" lon="6.0582">
        <ele>1570.39076026</ele>
        <time>2015-12-25T13:43:40Z</time>
      </trkpt>
      <trkpt lat="45.54944" lon="6.0582">
        <ele>1570.39076026</ele>
        <time>2015-12-25T13:43:46Z</time>
      </trkpt>
      <trkpt lat="45.54944" lon="6.0582">
        <ele>1570.39076026</ele>
        <time>2015-12-25T13:43:56Z</time>
      </trkpt>
      <trkpt lat="45.54943" lon="6.05818">
        <ele>1570.39076026</ele>
        <time>2015-12-25T13:44:00Z</time>
      </trkpt>
      <trkpt lat="45.54948" lon="6.05822">
        <ele>1574.401528335</ele>
        <time>2015-12-25T13:44:16Z</time>
      </trkpt>
      <trkpt lat="45.5495" lon="6.05823">
        <ele>1574.401528335</ele>
        <time>2015-12-25T13:44:21Z</time>
      </trkpt>
      <trkpt lat="45.54953" lon="6.05824">
        <ele>1574.401528335</ele>
        <time>2015-12-25T13:44:31Z</time>
      </trkpt>
      <trkpt lat="45.54954" lon="6.05825">
        <ele>1574.401528335</ele>
        <time>2015-12-25T13:44:35Z</time>
      </trkpt>
      <trkpt lat="45.54958" lon="6.05829">
        <ele>1578.444883376</ele>
        <time>2015-12-25T13:44:45Z</time>
      </trkpt>
      <trkpt lat="45.54959" lon="6.05829">
        <ele>1578.444883376</ele>
        <time>2015-12-25T13:44:50Z</time>
      </trkpt>
      <trkpt lat="45.5496" lon="6.0583">
        <ele>1578.444883376</ele>
        <time>2015-12-25T13:44:56Z</time>
      </trkpt>
      <trkpt lat="45.54961" lon="6.05829">
        <ele>1578.444883376</ele>
        <time>2015-12-25T13:45:05Z</time>
      </trkpt>
      <trkpt lat="45.54962" lon="6.05829">
        <ele>1578.444883376</ele>
        <time>2015-12-25T13:45:10Z</time>
      </trkpt>
      <trkpt lat="45.54962" lon="6.05827">
        <ele>1578.444883376</ele>
        <time>2015-12-25T13:45:26Z</time>
      </trkpt>
      <trkpt lat="45.54962" lon="6.05827">
        <ele>1578.444883376</ele>
        <time>2015-12-25T13:45:41Z</time>
      </trkpt>
      <trkpt lat="45.54962" lon="6.05827">
        <ele>1578.444883376</ele>
        <time>2015-12-25T13:45:45Z</time>
      </trkpt>
      <trkpt lat="45.54968" lon="6.05831">
        <ele>1581.7957739</ele>
        <time>2015-12-25T13:45:55Z</time>
      </trkpt>
      <trkpt lat="45.54971" lon="6.05831">
        <ele>1581.7957739</ele>
        <time>2015-12-25T13:46:01Z</time>
      </trkpt>
      <trkpt lat="45.54972" lon="6.0583">
        <ele>1581.7957739</ele>
        <time>2015-12-25T13:46:11Z</time>
      </trkpt>
      <trkpt lat="45.54972" lon="6.0583">
        <ele>1581.7957739</ele>
        <time>2015-12-25T13:46:16Z</time>
      </trkpt>
      <trkpt lat="45.54972" lon="6.0583">
        <ele>1581.7957739</ele>
        <time>2015-12-25T13:46:26Z</time>
      </trkpt>
      <trkpt lat="45.54973" lon="6.05831">
        <ele>1581.7957739</ele>
        <time>2015-12-25T13:46:31Z</time>
      </trkpt>
      <trkpt lat="45.54979" lon="6.05835">
        <ele>1585.225517738</ele>
        <time>2015-12-25T13:46:41Z</time>
      </trkpt>
      <trkpt lat="45.54981" lon="6.05837">
        <ele>1585.225517738</ele>
        <time>2015-12-25T13:46:45Z</time>
      </trkpt>
      <trkpt lat="45.54989" lon="6.0584">
        <ele>1588.583935801</ele>
        <time>2015-12-25T13:47:00Z</time>
      </trkpt>
      <trkpt lat="45.54993" lon="6.05843">
        <ele>1588.583935801</ele>
        <time>2015-12-25T13:47:06Z</time>
      </trkpt>
      <trkpt lat="45.54997" lon="6.05846">
        <ele>1588.583935801</ele>
        <time>2015-12-25T13:47:15Z</time>
      </trkpt>
      <trkpt lat="45.55" lon="6.05848">
        <ele>1591.732129989</ele>
        <time>2015-12-25T13:47:20Z</time>
      </trkpt>
      <trkpt lat="45.55009" lon="6.05855">
        <ele>1594.397927977</ele>
        <time>2015-12-25T13:47:31Z</time>
      </trkpt>
      <trkpt lat="45.55011" lon="6.05857">
        <ele>1594.397927977</ele>
        <time>2015-12-25T13:47:35Z</time>
      </trkpt>
      <trkpt lat="45.5502" lon="6.05858">
        <ele>1596.330541014</ele>
        <time>2015-12-25T13:47:46Z</time>
      </trkpt>
      <trkpt lat="45.5502" lon="6.05857">
        <ele>1596.330541014</ele>
        <time>2015-12-25T13:47:51Z</time>
      </trkpt>
      <trkpt lat="45.5503" lon="6.05857">
        <ele>1598.308465703</ele>
        <time>2015-12-25T13:48:01Z</time>
      </trkpt>
      <trkpt lat="45.55031" lon="6.05854">
        <ele>1598.308465703</ele>
        <time>2015-12-25T13:48:05Z</time>
      </trkpt>
      <trkpt lat="45.55035" lon="6.05851">
        <ele>1598.308465703</ele>
        <time>2015-12-25T13:48:21Z</time>
      </trkpt>
      <trkpt lat="45.55035" lon="6.05851">
        <ele>1598.308465703</ele>
        <time>2015-12-25T13:48:26Z</time>
      </trkpt>
      <trkpt lat="45.55037" lon="6.05851">
        <ele>1598.308465703</ele>
        <time>2015-12-25T13:48:36Z</time>
      </trkpt>
      <trkpt lat="45.55038" lon="6.0585">
        <ele>1599.755898559</ele>
        <time>2015-12-25T13:48:40Z</time>
      </trkpt>
      <trkpt lat="45.55039" lon="6.05848">
        <ele>1599.755898559</ele>
        <time>2015-12-25T13:48:45Z</time>
      </trkpt>
      <trkpt lat="45.55039" lon="6.05848">
        <ele>1599.755898559</ele>
        <time>2015-12-25T13:48:50Z</time>
      </trkpt>
      <trkpt lat="45.55039" lon="6.05848">
        <ele>1599.755898559</ele>
        <time>2015-12-25T13:48:55Z</time>
      </trkpt>
      <trkpt lat="45.55045" lon="6.05851">
        <ele>1599.755898559</ele>
        <time>2015-12-25T13:49:11Z</time>
      </trkpt>
      <trkpt lat="45.55058" lon="6.05857">
        <ele>1600.861379189</ele>
        <time>2015-12-25T13:49:27Z</time>
      </trkpt>
      <trkpt lat="45.55061" lon="6.05861">
        <ele>1600.861379189</ele>
        <time>2015-12-25T13:49:30Z</time>
      </trkpt>
      <trkpt lat="45.5507" lon="6.05865">
        <ele>1602.232875385</ele>
        <time>2015-12-25T13:49:41Z</time>
      </trkpt>
      <trkpt lat="45.55074" lon="6.05868">
        <ele>1602.232875385</ele>
        <time>2015-12-25T13:49:45Z</time>
      </trkpt>
      <trkpt lat="45.55078" lon="6.0587">
        <ele>1602.232875385</ele>
        <time>2015-12-25T13:49:56Z</time>
      </trkpt>
      <trkpt lat="45.55079" lon="6.05873">
        <ele>1603.424139073</ele>
        <time>2015-12-25T13:50:00Z</time>
      </trkpt>
      <trkpt lat="45.55086" lon="6.05874">
        <ele>1603.424139073</ele>
        <time>2015-12-25T13:50:11Z</time>
      </trkpt>
      <trkpt lat="45.55089" lon="6.05871">
        <ele>1604.454495965</ele>
        <time>2015-12-25T13:50:16Z</time>
      </trkpt>
      <trkpt lat="45.55091" lon="6.05872">
        <ele>1604.454495965</ele>
        <time>2015-12-25T13:50:26Z</time>
      </trkpt>
      <trkpt lat="45.55094" lon="6.05874">
        <ele>1604.454495965</ele>
        <time>2015-12-25T13:50:30Z</time>
      </trkpt>
      <trkpt lat="45.55097" lon="6.05878">
        <ele>1605.630464526</ele>
        <time>2015-12-25T13:50:46Z</time>
      </trkpt>
      <trkpt lat="45.551" lon="6.05882">
        <ele>1605.630464526</ele>
        <time>2015-12-25T13:50:50Z</time>
      </trkpt>
      <trkpt lat="45.55102" lon="6.05889">
        <ele>1605.630464526</ele>
        <time>2015-12-25T13:51:00Z</time>
      </trkpt>
      <trkpt lat="45.55103" lon="6.05892">
        <ele>1607.235563805</ele>
        <time>2015-12-25T13:51:06Z</time>
      </trkpt>
      <trkpt lat="45.55108" lon="6.05892">
        <ele>1607.235563805</ele>
        <time>2015-12-25T13:51:18Z</time>
      </trkpt>
      <trkpt lat="45.55111" lon="6.0589">
        <ele>1607.235563805</ele>
        <time>2015-12-25T13:51:20Z</time>
      </trkpt>
      <trkpt lat="45.55111" lon="6.0589">
        <ele>1607.235563805</ele>
        <time>2015-12-25T13:51:25Z</time>
      </trkpt>
      <trkpt lat="45.55111" lon="6.0589">
        <ele>1607.235563805</ele>
        <time>2015-12-25T13:51:30Z</time>
      </trkpt>
      <trkpt lat="45.55111" lon="6.0589">
        <ele>1607.235563805</ele>
        <time>2015-12-25T13:51:35Z</time>
      </trkpt>
      <trkpt lat="45.55111" lon="6.0589">
        <ele>1608.666528877</ele>
        <time>2015-12-25T13:51:45Z</time>
      </trkpt>
      <trkpt lat="45.55113" lon="6.0589">
        <ele>1608.666528877</ele>
        <time>2015-12-25T13:51:50Z</time>
      </trkpt>
      <trkpt lat="45.5512" lon="6.05892">
        <ele>1609.941247366</ele>
        <time>2015-12-25T13:52:00Z</time>
      </trkpt>
      <trkpt lat="45.55123" lon="6.0589">
        <ele>1609.941247366</ele>
        <time>2015-12-25T13:52:06Z</time>
      </trkpt>
      <trkpt lat="45.55122" lon="6.05892">
        <ele>1609.941247366</ele>
        <time>2015-12-25T13:52:16Z</time>
      </trkpt>
      <trkpt lat="45.55122" lon="6.05892">
        <ele>1609.941247366</ele>
        <time>2015-12-25T13:52:20Z</time>
      </trkpt>
      <trkpt lat="45.55122" lon="6.05892">
        <ele>1609.941247366</ele>
        <time>2015-12-25T13:52:31Z</time>
      </trkpt>
      <trkpt lat="45.55122" lon="6.05892">
        <ele>1609.941247366</ele>
        <time>2015-12-25T13:52:35Z</time>
      </trkpt>
      <trkpt lat="45.55122" lon="6.05892">
        <ele>1609.941247366</ele>
        <time>2015-12-25T13:52:46Z</time>
      </trkpt>
      <trkpt lat="45.55122" lon="6.05892">
        <ele>1609.941247366</ele>
        <time>2015-12-25T13:52:51Z</time>
      </trkpt>
      <trkpt lat="45.55122" lon="6.05892">
        <ele>1609.941247366</ele>
        <time>2015-12-25T13:53:01Z</time>
      </trkpt>
      <trkpt lat="45.55122" lon="6.05892">
        <ele>1609.941247366</ele>
        <time>2015-12-25T13:53:06Z</time>
      </trkpt>
      <trkpt lat="45.55122" lon="6.05892">
        <ele>1609.941247366</ele>
        <time>2015-12-25T13:53:16Z</time>
      </trkpt>
      <trkpt lat="45.55122" lon="6.05892">
        <ele>1609.941247366</ele>
        <time>2015-12-25T13:53:22Z</time>
      </trkpt>
      <trkpt lat="45.55122" lon="6.05892">
        <ele>1609.941247366</ele>
        <time>2015-12-25T13:53:25Z</time>
      </trkpt>
      <trkpt lat="45.55123" lon="6.0589">
        <ele>1609.941247366</ele>
        <time>2015-12-25T13:53:31Z</time>
      </trkpt>
      <trkpt lat="45.55125" lon="6.0589">
        <ele>1609.941247366</ele>
        <time>2015-12-25T13:53:35Z</time>
      </trkpt>
      <trkpt lat="45.55126" lon="6.05886">
        <ele>1610.788403439</ele>
        <time>2015-12-25T13:53:40Z</time>
      </trkpt>
      <trkpt lat="45.55127" lon="6.05888">
        <ele>1610.788403439</ele>
        <time>2015-12-25T13:53:51Z</time>
      </trkpt>
      <trkpt lat="45.55127" lon="6.05886">
        <ele>1610.788403439</ele>
        <time>2015-12-25T13:53:55Z</time>
      </trkpt>
      <trkpt lat="45.55127" lon="6.05886">
        <ele>1610.788403439</ele>
        <time>2015-12-25T13:54:06Z</time>
      </trkpt>
      <trkpt lat="45.55127" lon="6.05886">
        <ele>1610.788403439</ele>
        <time>2015-12-25T13:54:10Z</time>
      </trkpt>
      <trkpt lat="45.55127" lon="6.05886">
        <ele>1610.788403439</ele>
        <time>2015-12-25T13:54:20Z</time>
      </trkpt>
      <trkpt lat="45.55127" lon="6.05886">
        <ele>1610.788403439</ele>
        <time>2015-12-25T13:54:25Z</time>
      </trkpt>
      <trkpt lat="45.55126" lon="6.05884">
        <ele>1610.788403439</ele>
        <time>2015-12-25T13:54:36Z</time>
      </trkpt>
      <trkpt lat="45.55125" lon="6.05883">
        <ele>1610.788403439</ele>
        <time>2015-12-25T13:54:41Z</time>
      </trkpt>
      <trkpt lat="45.55125" lon="6.05884">
        <ele>1610.788403439</ele>
        <time>2015-12-25T13:54:50Z</time>
      </trkpt>
      <trkpt lat="45.55125" lon="6.05883">
        <ele>1610.788403439</ele>
        <time>2015-12-25T13:54:55Z</time>
      </trkpt>
      <trkpt lat="45.55125" lon="6.05883">
        <ele>1610.788403439</ele>
        <time>2015-12-25T13:55:06Z</time>
      </trkpt>
      <trkpt lat="45.55125" lon="6.05883">
        <ele>1610.788403439</ele>
        <time>2015-12-25T13:55:10Z</time>
      </trkpt>
      <trkpt lat="45.55126" lon="6.05888">
        <ele>1612.542921453</ele>
        <time>2015-12-25T13:55:27Z</time>
      </trkpt>
      <trkpt lat="45.55125" lon="6.05886">
        <ele>1612.542921453</ele>
        <time>2015-12-25T13:55:30Z</time>
      </trkpt>
      <trkpt lat="45.55125" lon="6.05885">
        <ele>1612.542921453</ele>
        <time>2015-12-25T13:55:36Z</time>
      </trkpt>
      <trkpt lat="45.55125" lon="6.05885">
        <ele>1612.542921453</ele>
        <time>2015-12-25T13:55:41Z</time>
      </trkpt>
      <trkpt lat="45.55126" lon="6.05887">
        <ele>1612.542921453</ele>
        <time>2015-12-25T13:55:56Z</time>
      </trkpt>
      <trkpt lat="45.55125" lon="6.05886">
        <ele>1612.542921453</ele>
        <time>2015-12-25T13:56:00Z</time>
      </trkpt>
      <trkpt lat="45.55125" lon="6.05886">
        <ele>1612.542921453</ele>
        <time>2015-12-25T13:56:11Z</time>
      </trkpt>
      <trkpt lat="45.55125" lon="6.05886">
        <ele>1612.542921453</ele>
        <time>2015-12-25T13:56:15Z</time>
      </trkpt>
      <trkpt lat="45.55126" lon="6.05885">
        <ele>1612.542921453</ele>
        <time>2015-12-25T13:56:25Z</time>
      </trkpt>
      <trkpt lat="45.55126" lon="6.05885">
        <ele>1612.542921453</ele>
        <time>2015-12-25T13:56:30Z</time>
      </trkpt>
      <trkpt lat="45.55126" lon="6.05885">
        <ele>1612.542921453</ele>
        <time>2015-12-25T13:56:40Z</time>
      </trkpt>
      <trkpt lat="45.55125" lon="6.05885">
        <ele>1612.542921453</ele>
        <time>2015-12-25T13:56:45Z</time>
      </trkpt>
      <trkpt lat="45.55126" lon="6.05885">
        <ele>1612.542921453</ele>
        <time>2015-12-25T13:56:50Z</time>
      </trkpt>
      <trkpt lat="45.55126" lon="6.05885">
        <ele>1613.989107738</ele>
        <time>2015-12-25T13:56:55Z</time>
      </trkpt>
      <trkpt lat="45.55126" lon="6.05885">
        <ele>1613.989107738</ele>
        <time>2015-12-25T13:57:00Z</time>
      </trkpt>
      <trkpt lat="45.55126" lon="6.05885">
        <ele>1613.989107738</ele>
        <time>2015-12-25T13:57:05Z</time>
      </trkpt>
      <trkpt lat="45.55126" lon="6.05885">
        <ele>1613.989107738</ele>
        <time>2015-12-25T13:57:10Z</time>
      </trkpt>
      <trkpt lat="45.55126" lon="6.05885">
        <ele>1613.989107738</ele>
        <time>2015-12-25T13:57:15Z</time>
      </trkpt>
      <trkpt lat="45.55126" lon="6.05885">
        <ele>1613.989107738</ele>
        <time>2015-12-25T13:57:25Z</time>
      </trkpt>
      <trkpt lat="45.55126" lon="6.05885">
        <ele>1613.989107738</ele>
        <time>2015-12-25T13:57:30Z</time>
      </trkpt>
      <trkpt lat="45.55126" lon="6.05886">
        <ele>1613.989107738</ele>
        <time>2015-12-25T13:57:45Z</time>
      </trkpt>
      <trkpt lat="45.55126" lon="6.05886">
        <ele>1613.989107738</ele>
        <time>2015-12-25T13:57:50Z</time>
      </trkpt>
      <trkpt lat="45.55126" lon="6.05886">
        <ele>1613.989107738</ele>
        <time>2015-12-25T13:58:00Z</time>
      </trkpt>
      <trkpt lat="45.55126" lon="6.05886">
        <ele>1613.989107738</ele>
        <time>2015-12-25T13:58:05Z</time>
      </trkpt>
      <trkpt lat="45.55126" lon="6.05886">
        <ele>1613.989107738</ele>
        <time>2015-12-25T13:58:15Z</time>
      </trkpt>
      <trkpt lat="45.55126" lon="6.05886">
        <ele>1613.989107738</ele>
        <time>2015-12-25T13:58:20Z</time>
      </trkpt>
      <trkpt lat="45.55127" lon="6.05886">
        <ele>1613.989107738</ele>
        <time>2015-12-25T13:58:30Z</time>
      </trkpt>
      <trkpt lat="45.55126" lon="6.05886">
        <ele>1613.989107738</ele>
        <time>2015-12-25T13:58:35Z</time>
      </trkpt>
      <trkpt lat="45.55126" lon="6.05886">
        <ele>1613.989107738</ele>
        <time>2015-12-25T13:58:45Z</time>
      </trkpt>
      <trkpt lat="45.55126" lon="6.05886">
        <ele>1613.989107738</ele>
        <time>2015-12-25T13:58:51Z</time>
      </trkpt>
      <trkpt lat="45.55126" lon="6.05886">
        <ele>1613.989107738</ele>
        <time>2015-12-25T13:59:00Z</time>
      </trkpt>
      <trkpt lat="45.55126" lon="6.05886">
        <ele>1613.989107738</ele>
        <time>2015-12-25T13:59:05Z</time>
      </trkpt>
      <trkpt lat="45.55126" lon="6.05886">
        <ele>1613.989107738</ele>
        <time>2015-12-25T13:59:15Z</time>
      </trkpt>
      <trkpt lat="45.55126" lon="6.05886">
        <ele>1613.989107738</ele>
        <time>2015-12-25T13:59:20Z</time>
      </trkpt>
      <trkpt lat="45.55126" lon="6.05886">
        <ele>1613.989107738</ele>
        <time>2015-12-25T13:59:35Z</time>
      </trkpt>
      <trkpt lat="45.55126" lon="6.05886">
        <ele>1613.989107738</ele>
        <time>2015-12-25T13:59:40Z</time>
      </trkpt>
      <trkpt lat="45.55126" lon="6.05886">
        <ele>1613.989107738</ele>
        <time>2015-12-25T13:59:50Z</time>
      </trkpt>
      <trkpt lat="45.55126" lon="6.05886">
        <ele>1613.989107738</ele>
        <time>2015-12-25T13:59:55Z</time>
      </trkpt>
      <trkpt lat="45.55126" lon="6.05886">
        <ele>1613.989107738</ele>
        <time>2015-12-25T14:00:05Z</time>
      </trkpt>
      <trkpt lat="45.55127" lon="6.05887">
        <ele>1613.989107738</ele>
        <time>2015-12-25T14:00:10Z</time>
      </trkpt>
      <trkpt lat="45.55127" lon="6.05887">
        <ele>1613.989107738</ele>
        <time>2015-12-25T14:00:20Z</time>
      </trkpt>
      <trkpt lat="45.55127" lon="6.05887">
        <ele>1613.989107738</ele>
        <time>2015-12-25T14:00:25Z</time>
      </trkpt>
      <trkpt lat="45.55127" lon="6.05887">
        <ele>1613.989107738</ele>
        <time>2015-12-25T14:00:35Z</time>
      </trkpt>
      <trkpt lat="45.55127" lon="6.05887">
        <ele>1613.989107738</ele>
        <time>2015-12-25T14:00:40Z</time>
      </trkpt>
      <trkpt lat="45.55127" lon="6.05887">
        <ele>1613.989107738</ele>
        <time>2015-12-25T14:00:50Z</time>
      </trkpt>
      <trkpt lat="45.55127" lon="6.05887">
        <ele>1613.989107738</ele>
        <time>2015-12-25T14:00:55Z</time>
      </trkpt>
      <trkpt lat="45.55127" lon="6.05887">
        <ele>1613.989107738</ele>
        <time>2015-12-25T14:01:05Z</time>
      </trkpt>
      <trkpt lat="45.55127" lon="6.05887">
        <ele>1613.989107738</ele>
        <time>2015-12-25T14:01:10Z</time>
      </trkpt>
      <trkpt lat="45.55127" lon="6.05887">
        <ele>1613.989107738</ele>
        <time>2015-12-25T14:01:25Z</time>
      </trkpt>
      <trkpt lat="45.55127" lon="6.05887">
        <ele>1613.989107738</ele>
        <time>2015-12-25T14:01:30Z</time>
      </trkpt>
      <trkpt lat="45.55129" lon="6.05883">
        <ele>1613.989107738</ele>
        <time>2015-12-25T14:01:40Z</time>
      </trkpt>
      <trkpt lat="45.55128" lon="6.05883">
        <ele>1613.989107738</ele>
        <time>2015-12-25T14:01:45Z</time>
      </trkpt>
      <trkpt lat="45.55129" lon="6.05884">
        <ele>1615.010089246</ele>
        <time>2015-12-25T14:01:55Z</time>
      </trkpt>
      <trkpt lat="45.55132" lon="6.05884">
        <ele>1615.010089246</ele>
        <time>2015-12-25T14:02:00Z</time>
      </trkpt>
      <trkpt lat="45.55133" lon="6.05883">
        <ele>1615.010089246</ele>
        <time>2015-12-25T14:02:10Z</time>
      </trkpt>
      <trkpt lat="45.55133" lon="6.05883">
        <ele>1615.010089246</ele>
        <time>2015-12-25T14:02:15Z</time>
      </trkpt>
      <trkpt lat="45.55133" lon="6.05883">
        <ele>1615.010089246</ele>
        <time>2015-12-25T14:02:25Z</time>
      </trkpt>
      <trkpt lat="45.55133" lon="6.05883">
        <ele>1615.010089246</ele>
        <time>2015-12-25T14:02:30Z</time>
      </trkpt>
      <trkpt lat="45.55133" lon="6.05883">
        <ele>1615.010089246</ele>
        <time>2015-12-25T14:02:40Z</time>
      </trkpt>
      <trkpt lat="45.55133" lon="6.05883">
        <ele>1615.010089246</ele>
        <time>2015-12-25T14:02:45Z</time>
      </trkpt>
      <trkpt lat="45.55133" lon="6.05884">
        <ele>1615.010089246</ele>
        <time>2015-12-25T14:02:55Z</time>
      </trkpt>
      <trkpt lat="45.55133" lon="6.05885">
        <ele>1615.010089246</ele>
        <time>2015-12-25T14:03:00Z</time>
      </trkpt>
      <trkpt lat="45.55133" lon="6.05885">
        <ele>1615.010089246</ele>
        <time>2015-12-25T14:03:10Z</time>
      </trkpt>
      <trkpt lat="45.55133" lon="6.05885">
        <ele>1615.010089246</ele>
        <time>2015-12-25T14:03:15Z</time>
      </trkpt>
      <trkpt lat="45.55133" lon="6.05885">
        <ele>1615.010089246</ele>
        <time>2015-12-25T14:03:30Z</time>
      </trkpt>
      <trkpt lat="45.55133" lon="6.05885">
        <ele>1615.010089246</ele>
        <time>2015-12-25T14:03:35Z</time>
      </trkpt>
      <trkpt lat="45.55132" lon="6.05884">
        <ele>1615.010089246</ele>
        <time>2015-12-25T14:03:45Z</time>
      </trkpt>
      <trkpt lat="45.55124" lon="6.05885">
        <ele>1616.075083534</ele>
        <time>2015-12-25T14:04:00Z</time>
      </trkpt>
      <trkpt lat="45.55125" lon="6.05885">
        <ele>1616.075083534</ele>
        <time>2015-12-25T14:04:06Z</time>
      </trkpt>
      <trkpt lat="45.55125" lon="6.05885">
        <ele>1616.075083534</ele>
        <time>2015-12-25T14:04:16Z</time>
      </trkpt>
      <trkpt lat="45.55125" lon="6.05885">
        <ele>1616.075083534</ele>
        <time>2015-12-25T14:04:20Z</time>
      </trkpt>
      <trkpt lat="45.55125" lon="6.05885">
        <ele>1616.075083534</ele>
        <time>2015-12-25T14:04:30Z</time>
      </trkpt>
      <trkpt lat="45.55125" lon="6.05885">
        <ele>1616.075083534</ele>
        <time>2015-12-25T14:04:36Z</time>
      </trkpt>
      <trkpt lat="45.55125" lon="6.05885">
        <ele>1616.075083534</ele>
        <time>2015-12-25T14:04:48Z</time>
      </trkpt>
      <trkpt lat="45.55125" lon="6.05885">
        <ele>1616.075083534</ele>
        <time>2015-12-25T14:04:50Z</time>
      </trkpt>
      <trkpt lat="45.55125" lon="6.05885">
        <ele>1616.075083534</ele>
        <time>2015-12-25T14:05:00Z</time>
      </trkpt>
      <trkpt lat="45.55124" lon="6.05885">
        <ele>1616.075083534</ele>
        <time>2015-12-25T14:05:05Z</time>
      </trkpt>
      <trkpt lat="45.55124" lon="6.05886">
        <ele>1616.075083534</ele>
        <time>2015-12-25T14:05:15Z</time>
      </trkpt>
      <trkpt lat="45.55124" lon="6.05886">
        <ele>1616.075083534</ele>
        <time>2015-12-25T14:05:20Z</time>
      </trkpt>
      <trkpt lat="45.55124" lon="6.05886">
        <ele>1616.075083534</ele>
        <time>2015-12-25T14:05:30Z</time>
      </trkpt>
      <trkpt lat="45.55124" lon="6.05887">
        <ele>1616.075083534</ele>
        <time>2015-12-25T14:05:35Z</time>
      </trkpt>
      <trkpt lat="45.55125" lon="6.05885">
        <ele>1616.075083534</ele>
        <time>2015-12-25T14:05:50Z</time>
      </trkpt>
      <trkpt lat="45.55124" lon="6.05884">
        <ele>1616.075083534</ele>
        <time>2015-12-25T14:05:55Z</time>
      </trkpt>
      <trkpt lat="45.55124" lon="6.05884">
        <ele>1616.075083534</ele>
        <time>2015-12-25T14:06:05Z</time>
      </trkpt>
      <trkpt lat="45.55124" lon="6.05884">
        <ele>1616.075083534</ele>
        <time>2015-12-25T14:06:10Z</time>
      </trkpt>
      <trkpt lat="45.55124" lon="6.05884">
        <ele>1616.075083534</ele>
        <time>2015-12-25T14:06:20Z</time>
      </trkpt>
      <trkpt lat="45.55124" lon="6.05885">
        <ele>1616.075083534</ele>
        <time>2015-12-25T14:06:25Z</time>
      </trkpt>
      <trkpt lat="45.55124" lon="6.05885">
        <ele>1616.075083534</ele>
        <time>2015-12-25T14:06:35Z</time>
      </trkpt>
      <trkpt lat="45.55124" lon="6.05885">
        <ele>1616.075083534</ele>
        <time>2015-12-25T14:06:40Z</time>
      </trkpt>
      <trkpt lat="45.55124" lon="6.05886">
        <ele>1616.465688398</ele>
        <time>2015-12-25T14:06:50Z</time>
      </trkpt>
      <trkpt lat="45.55124" lon="6.05886">
        <ele>1616.465688398</ele>
        <time>2015-12-25T14:06:55Z</time>
      </trkpt>
      <trkpt lat="45.55126" lon="6.05885">
        <ele>1616.465688398</ele>
        <time>2015-12-25T14:07:05Z</time>
      </trkpt>
      <trkpt lat="45.55127" lon="6.05886">
        <ele>1616.465688398</ele>
        <time>2015-12-25T14:07:10Z</time>
      </trkpt>
      <trkpt lat="45.55127" lon="6.05887">
        <ele>1616.465688398</ele>
        <time>2015-12-25T14:07:20Z</time>
      </trkpt>
      <trkpt lat="45.55127" lon="6.05887">
        <ele>1616.465688398</ele>
        <time>2015-12-25T14:07:25Z</time>
      </trkpt>
      <trkpt lat="45.55127" lon="6.05887">
        <ele>1616.465688398</ele>
        <time>2015-12-25T14:07:35Z</time>
      </trkpt>
      <trkpt lat="45.55127" lon="6.05887">
        <ele>1616.465688398</ele>
        <time>2015-12-25T14:07:40Z</time>
      </trkpt>
      <trkpt lat="45.55127" lon="6.05887">
        <ele>1616.465688398</ele>
        <time>2015-12-25T14:07:55Z</time>
      </trkpt>
      <trkpt lat="45.55127" lon="6.05887">
        <ele>1616.465688398</ele>
        <time>2015-12-25T14:08:00Z</time>
      </trkpt>
      <trkpt lat="45.55127" lon="6.05887">
        <ele>1616.465688398</ele>
        <time>2015-12-25T14:08:10Z</time>
      </trkpt>
      <trkpt lat="45.55127" lon="6.05887">
        <ele>1616.465688398</ele>
        <time>2015-12-25T14:08:15Z</time>
      </trkpt>
      <trkpt lat="45.55128" lon="6.05885">
        <ele>1616.465688398</ele>
        <time>2015-12-25T14:08:25Z</time>
      </trkpt>
      <trkpt lat="45.55128" lon="6.05885">
        <ele>1616.465688398</ele>
        <time>2015-12-25T14:08:30Z</time>
      </trkpt>
      <trkpt lat="45.55127" lon="6.05883">
        <ele>1616.465688398</ele>
        <time>2015-12-25T14:08:40Z</time>
      </trkpt>
      <trkpt lat="45.55127" lon="6.05883">
        <ele>1616.465688398</ele>
        <time>2015-12-25T14:08:45Z</time>
      </trkpt>
      <trkpt lat="45.55127" lon="6.05883">
        <ele>1616.465688398</ele>
        <time>2015-12-25T14:08:55Z</time>
      </trkpt>
      <trkpt lat="45.55127" lon="6.05883">
        <ele>1616.465688398</ele>
        <time>2015-12-25T14:09:00Z</time>
      </trkpt>
      <trkpt lat="45.55127" lon="6.05883">
        <ele>1616.465688398</ele>
        <time>2015-12-25T14:09:05Z</time>
      </trkpt>
      <trkpt lat="45.55127" lon="6.05883">
        <ele>1616.465688398</ele>
        <time>2015-12-25T14:09:10Z</time>
      </trkpt>
      <trkpt lat="45.55127" lon="6.05883">
        <ele>1616.465688398</ele>
        <time>2015-12-25T14:09:15Z</time>
      </trkpt>
      <trkpt lat="45.55127" lon="6.05883">
        <ele>1616.465688398</ele>
        <time>2015-12-25T14:09:20Z</time>
      </trkpt>
      <trkpt lat="45.55127" lon="6.05883">
        <ele>1616.465688398</ele>
        <time>2015-12-25T14:09:25Z</time>
      </trkpt>
      <trkpt lat="45.55127" lon="6.05885">
        <ele>1616.465688398</ele>
        <time>2015-12-25T14:09:31Z</time>
      </trkpt>
      <trkpt lat="45.55124" lon="6.05888">
        <ele>1616.526798597</ele>
        <time>2015-12-25T14:09:40Z</time>
      </trkpt>
      <trkpt lat="45.55124" lon="6.05888">
        <ele>1616.526798597</ele>
        <time>2015-12-25T14:09:46Z</time>
      </trkpt>
      <trkpt lat="45.55124" lon="6.05889">
        <ele>1616.526798597</ele>
        <time>2015-12-25T14:09:55Z</time>
      </trkpt>
      <trkpt lat="45.55124" lon="6.05889">
        <ele>1616.526798597</ele>
        <time>2015-12-25T14:10:00Z</time>
      </trkpt>
      <trkpt lat="45.55124" lon="6.05889">
        <ele>1616.526798597</ele>
        <time>2015-12-25T14:10:10Z</time>
      </trkpt>
      <trkpt lat="45.55124" lon="6.05889">
        <ele>1616.526798597</ele>
        <time>2015-12-25T14:10:16Z</time>
      </trkpt>
      <trkpt lat="45.55124" lon="6.05889">
        <ele>1616.526798597</ele>
        <time>2015-12-25T14:10:26Z</time>
      </trkpt>
      <trkpt lat="45.55124" lon="6.05889">
        <ele>1616.526798597</ele>
        <time>2015-12-25T14:10:30Z</time>
      </trkpt>
      <trkpt lat="45.55124" lon="6.05889">
        <ele>1616.526798597</ele>
        <time>2015-12-25T14:10:41Z</time>
      </trkpt>
      <trkpt lat="45.55124" lon="6.05889">
        <ele>1616.526798597</ele>
        <time>2015-12-25T14:10:46Z</time>
      </trkpt>
      <trkpt lat="45.55125" lon="6.05888">
        <ele>1616.526798597</ele>
        <time>2015-12-25T14:11:00Z</time>
      </trkpt>
      <trkpt lat="45.55125" lon="6.05888">
        <ele>1616.526798597</ele>
        <time>2015-12-25T14:11:05Z</time>
      </trkpt>
      <trkpt lat="45.55125" lon="6.05886">
        <ele>1616.526798597</ele>
        <time>2015-12-25T14:11:15Z</time>
      </trkpt>
      <trkpt lat="45.55125" lon="6.05886">
        <ele>1616.526798597</ele>
        <time>2015-12-25T14:11:20Z</time>
      </trkpt>
      <trkpt lat="45.55125" lon="6.05885">
        <ele>1616.526798597</ele>
        <time>2015-12-25T14:11:30Z</time>
      </trkpt>
      <trkpt lat="45.55125" lon="6.05885">
        <ele>1616.526798597</ele>
        <time>2015-12-25T14:11:36Z</time>
      </trkpt>
      <trkpt lat="45.55125" lon="6.05885">
        <ele>1616.526798597</ele>
        <time>2015-12-25T14:11:46Z</time>
      </trkpt>
      <trkpt lat="45.55125" lon="6.05885">
        <ele>1616.526798597</ele>
        <time>2015-12-25T14:11:50Z</time>
      </trkpt>
      <trkpt lat="45.55125" lon="6.05885">
        <ele>1616.526798597</ele>
        <time>2015-12-25T14:12:01Z</time>
      </trkpt>
      <trkpt lat="45.55125" lon="6.05885">
        <ele>1616.526798597</ele>
        <time>2015-12-25T14:12:05Z</time>
      </trkpt>
      <trkpt lat="45.55125" lon="6.05886">
        <ele>1616.526798597</ele>
        <time>2015-12-25T14:12:15Z</time>
      </trkpt>
      <trkpt lat="45.55124" lon="6.05885">
        <ele>1616.526798597</ele>
        <time>2015-12-25T14:12:20Z</time>
      </trkpt>
      <trkpt lat="45.55122" lon="6.05884">
        <ele>1616.526798597</ele>
        <time>2015-12-25T14:12:36Z</time>
      </trkpt>
      <trkpt lat="45.55122" lon="6.05884">
        <ele>1616.526798597</ele>
        <time>2015-12-25T14:12:40Z</time>
      </trkpt>
      <trkpt lat="45.55122" lon="6.05883">
        <ele>1616.526798597</ele>
        <time>2015-12-25T14:12:50Z</time>
      </trkpt>
      <trkpt lat="45.55122" lon="6.05883">
        <ele>1616.526798597</ele>
        <time>2015-12-25T14:12:55Z</time>
      </trkpt>
      <trkpt lat="45.55122" lon="6.05883">
        <ele>1616.526798597</ele>
        <time>2015-12-25T14:13:06Z</time>
      </trkpt>
      <trkpt lat="45.55122" lon="6.05883">
        <ele>1616.526798597</ele>
        <time>2015-12-25T14:13:10Z</time>
      </trkpt>
      <trkpt lat="45.55123" lon="6.05883">
        <ele>1616.526798597</ele>
        <time>2015-12-25T14:13:21Z</time>
      </trkpt>
      <trkpt lat="45.55123" lon="6.05882">
        <ele>1616.526798597</ele>
        <time>2015-12-25T14:13:26Z</time>
      </trkpt>
      <trkpt lat="45.55123" lon="6.05883">
        <ele>1616.526798597</ele>
        <time>2015-12-25T14:13:36Z</time>
      </trkpt>
      <trkpt lat="45.55123" lon="6.05883">
        <ele>1616.526798597</ele>
        <time>2015-12-25T14:13:41Z</time>
      </trkpt>
      <trkpt lat="45.55123" lon="6.05883">
        <ele>1616.526798597</ele>
        <time>2015-12-25T14:13:50Z</time>
      </trkpt>
      <trkpt lat="45.55123" lon="6.05883">
        <ele>1616.526798597</ele>
        <time>2015-12-25T14:13:55Z</time>
      </trkpt>
      <trkpt lat="45.55123" lon="6.05883">
        <ele>1616.526798597</ele>
        <time>2015-12-25T14:14:06Z</time>
      </trkpt>
      <trkpt lat="45.55123" lon="6.05883">
        <ele>1616.526798597</ele>
        <time>2015-12-25T14:14:11Z</time>
      </trkpt>
      <trkpt lat="45.55123" lon="6.05883">
        <ele>1616.526798597</ele>
        <time>2015-12-25T14:14:21Z</time>
      </trkpt>
      <trkpt lat="45.55123" lon="6.05883">
        <ele>1616.526798597</ele>
        <time>2015-12-25T14:14:25Z</time>
      </trkpt>
      <trkpt lat="45.55123" lon="6.05883">
        <ele>1616.526798597</ele>
        <time>2015-12-25T14:14:35Z</time>
      </trkpt>
      <trkpt lat="45.55123" lon="6.05883">
        <ele>1616.526798597</ele>
        <time>2015-12-25T14:14:41Z</time>
      </trkpt>
      <trkpt lat="45.55123" lon="6.05883">
        <ele>1616.526798597</ele>
        <time>2015-12-25T14:14:55Z</time>
      </trkpt>
      <trkpt lat="45.55123" lon="6.05883">
        <ele>1616.526798597</ele>
        <time>2015-12-25T14:15:10Z</time>
      </trkpt>
      <trkpt lat="45.55123" lon="6.05883">
        <ele>1616.526798597</ele>
        <time>2015-12-25T14:15:16Z</time>
      </trkpt>
      <trkpt lat="45.55123" lon="6.05883">
        <ele>1616.526798597</ele>
        <time>2015-12-25T14:15:26Z</time>
      </trkpt>
      <trkpt lat="45.55123" lon="6.05883">
        <ele>1616.526798597</ele>
        <time>2015-12-25T14:15:31Z</time>
      </trkpt>
      <trkpt lat="45.55125" lon="6.05884">
        <ele>1616.002296068</ele>
        <time>2015-12-25T14:15:40Z</time>
      </trkpt>
      <trkpt lat="45.55125" lon="6.05884">
        <ele>1616.002296068</ele>
        <time>2015-12-25T14:15:46Z</time>
      </trkpt>
      <trkpt lat="45.55127" lon="6.05885">
        <ele>1616.002296068</ele>
        <time>2015-12-25T14:15:55Z</time>
      </trkpt>
      <trkpt lat="45.55127" lon="6.05885">
        <ele>1616.002296068</ele>
        <time>2015-12-25T14:16:00Z</time>
      </trkpt>
      <trkpt lat="45.55127" lon="6.05885">
        <ele>1616.002296068</ele>
        <time>2015-12-25T14:16:05Z</time>
      </trkpt>
      <trkpt lat="45.55127" lon="6.05885">
        <ele>1616.002296068</ele>
        <time>2015-12-25T14:16:10Z</time>
      </trkpt>
      <trkpt lat="45.55127" lon="6.05885">
        <ele>1616.002296068</ele>
        <time>2015-12-25T14:16:15Z</time>
      </trkpt>
      <trkpt lat="45.55127" lon="6.05885">
        <ele>1616.002296068</ele>
        <time>2015-12-25T14:16:20Z</time>
      </trkpt>
      <trkpt lat="45.55127" lon="6.05885">
        <ele>1616.002296068</ele>
        <time>2015-12-25T14:16:25Z</time>
      </trkpt>
      <trkpt lat="45.55127" lon="6.05885">
        <ele>1616.002296068</ele>
        <time>2015-12-25T14:16:30Z</time>
      </trkpt>
      <trkpt lat="45.55127" lon="6.05885">
        <ele>1616.002296068</ele>
        <time>2015-12-25T14:16:40Z</time>
      </trkpt>
      <trkpt lat="45.55128" lon="6.05884">
        <ele>1616.002296068</ele>
        <time>2015-12-25T14:16:45Z</time>
      </trkpt>
      <trkpt lat="45.55128" lon="6.05883">
        <ele>1616.002296068</ele>
        <time>2015-12-25T14:16:55Z</time>
      </trkpt>
      <trkpt lat="45.55128" lon="6.05883">
        <ele>1616.002296068</ele>
        <time>2015-12-25T14:17:00Z</time>
      </trkpt>
      <trkpt lat="45.55127" lon="6.05883">
        <ele>1616.002296068</ele>
        <time>2015-12-25T14:17:10Z</time>
      </trkpt>
      <trkpt lat="45.55127" lon="6.05883">
        <ele>1616.002296068</ele>
        <time>2015-12-25T14:17:15Z</time>
      </trkpt>
      <trkpt lat="45.55127" lon="6.05883">
        <ele>1616.002296068</ele>
        <time>2015-12-25T14:17:25Z</time>
      </trkpt>
      <trkpt lat="45.55128" lon="6.05883">
        <ele>1616.002296068</ele>
        <time>2015-12-25T14:17:30Z</time>
      </trkpt>
      <trkpt lat="45.55128" lon="6.05883">
        <ele>1616.002296068</ele>
        <time>2015-12-25T14:17:40Z</time>
      </trkpt>
      <trkpt lat="45.55128" lon="6.05883">
        <ele>1616.002296068</ele>
        <time>2015-12-25T14:17:45Z</time>
      </trkpt>
      <trkpt lat="45.55127" lon="6.05881">
        <ele>1616.002296068</ele>
        <time>2015-12-25T14:18:00Z</time>
      </trkpt>
      <trkpt lat="45.55129" lon="6.05882">
        <ele>1616.002296068</ele>
        <time>2015-12-25T14:18:05Z</time>
      </trkpt>
      <trkpt lat="45.55127" lon="6.05881">
        <ele>1615.521018465</ele>
        <time>2015-12-25T14:18:15Z</time>
      </trkpt>
      <trkpt lat="45.55127" lon="6.05881">
        <ele>1615.521018465</ele>
        <time>2015-12-25T14:18:20Z</time>
      </trkpt>
      <trkpt lat="45.55128" lon="6.05882">
        <ele>1615.521018465</ele>
        <time>2015-12-25T14:18:30Z</time>
      </trkpt>
      <trkpt lat="45.55128" lon="6.05882">
        <ele>1615.521018465</ele>
        <time>2015-12-25T14:18:35Z</time>
      </trkpt>
      <trkpt lat="45.55128" lon="6.05882">
        <ele>1615.521018465</ele>
        <time>2015-12-25T14:18:45Z</time>
      </trkpt>
      <trkpt lat="45.55128" lon="6.05882">
        <ele>1615.521018465</ele>
        <time>2015-12-25T14:18:50Z</time>
      </trkpt>
      <trkpt lat="45.55128" lon="6.05882">
        <ele>1615.521018465</ele>
        <time>2015-12-25T14:19:00Z</time>
      </trkpt>
      <trkpt lat="45.55128" lon="6.05882">
        <ele>1615.521018465</ele>
        <time>2015-12-25T14:19:05Z</time>
      </trkpt>
      <trkpt lat="45.55128" lon="6.05882">
        <ele>1615.521018465</ele>
        <time>2015-12-25T14:19:15Z</time>
      </trkpt>
      <trkpt lat="45.55128" lon="6.05882">
        <ele>1615.521018465</ele>
        <time>2015-12-25T14:19:20Z</time>
      </trkpt>
      <trkpt lat="45.55128" lon="6.05882">
        <ele>1615.521018465</ele>
        <time>2015-12-25T14:19:30Z</time>
      </trkpt>
      <trkpt lat="45.55128" lon="6.05882">
        <ele>1615.521018465</ele>
        <time>2015-12-25T14:19:35Z</time>
      </trkpt>
      <trkpt lat="45.55127" lon="6.05883">
        <ele>1615.521018465</ele>
        <time>2015-12-25T14:19:45Z</time>
      </trkpt>
      <trkpt lat="45.55126" lon="6.05883">
        <ele>1615.521018465</ele>
        <time>2015-12-25T14:19:50Z</time>
      </trkpt>
      <trkpt lat="45.55126" lon="6.05883">
        <ele>1615.521018465</ele>
        <time>2015-12-25T14:20:00Z</time>
      </trkpt>
      <trkpt lat="45.55126" lon="6.05883">
        <ele>1615.521018465</ele>
        <time>2015-12-25T14:20:05Z</time>
      </trkpt>
      <trkpt lat="45.55126" lon="6.05883">
        <ele>1615.521018465</ele>
        <time>2015-12-25T14:20:15Z</time>
      </trkpt>
      <trkpt lat="45.55126" lon="6.05883">
        <ele>1615.521018465</ele>
        <time>2015-12-25T14:20:20Z</time>
      </trkpt>
      <trkpt lat="45.55126" lon="6.05883">
        <ele>1615.521018465</ele>
        <time>2015-12-25T14:20:30Z</time>
      </trkpt>
      <trkpt lat="45.55126" lon="6.05883">
        <ele>1615.521018465</ele>
        <time>2015-12-25T14:20:35Z</time>
      </trkpt>
      <trkpt lat="45.55126" lon="6.05883">
        <ele>1615.521018465</ele>
        <time>2015-12-25T14:20:45Z</time>
      </trkpt>
      <trkpt lat="45.55126" lon="6.05883">
        <ele>1615.521018465</ele>
        <time>2015-12-25T14:20:50Z</time>
      </trkpt>
      <trkpt lat="45.55126" lon="6.05883">
        <ele>1615.521018465</ele>
        <time>2015-12-25T14:21:00Z</time>
      </trkpt>
      <trkpt lat="45.55126" lon="6.05883">
        <ele>1615.521018465</ele>
        <time>2015-12-25T14:21:05Z</time>
      </trkpt>
      <trkpt lat="45.55126" lon="6.05883">
        <ele>1615.521018465</ele>
        <time>2015-12-25T14:21:20Z</time>
      </trkpt>
      <trkpt lat="45.55126" lon="6.05883">
        <ele>1615.521018465</ele>
        <time>2015-12-25T14:21:25Z</time>
      </trkpt>
      <trkpt lat="45.55127" lon="6.05883">
        <ele>1615.521018465</ele>
        <time>2015-12-25T14:21:35Z</time>
      </trkpt>
      <trkpt lat="45.55127" lon="6.05883">
        <ele>1615.521018465</ele>
        <time>2015-12-25T14:21:40Z</time>
      </trkpt>
      <trkpt lat="45.55127" lon="6.05883">
        <ele>1615.521018465</ele>
        <time>2015-12-25T14:21:45Z</time>
      </trkpt>
      <trkpt lat="45.55126" lon="6.05883">
        <ele>1615.521018465</ele>
        <time>2015-12-25T14:21:50Z</time>
      </trkpt>
      <trkpt lat="45.55127" lon="6.05882">
        <ele>1615.521018465</ele>
        <time>2015-12-25T14:22:06Z</time>
      </trkpt>
      <trkpt lat="45.55128" lon="6.05882">
        <ele>1615.521018465</ele>
        <time>2015-12-25T14:22:11Z</time>
      </trkpt>
      <trkpt lat="45.55128" lon="6.05882">
        <ele>1615.521018465</ele>
        <time>2015-12-25T14:22:20Z</time>
      </trkpt>
      <trkpt lat="45.55128" lon="6.05882">
        <ele>1615.521018465</ele>
        <time>2015-12-25T14:22:25Z</time>
      </trkpt>
      <trkpt lat="45.5513" lon="6.05883">
        <ele>1615.521018465</ele>
        <time>2015-12-25T14:22:35Z</time>
      </trkpt>
      <trkpt lat="45.55132" lon="6.05882">
        <ele>1615.23297361</ele>
        <time>2015-12-25T14:22:40Z</time>
      </trkpt>
      <trkpt lat="45.55134" lon="6.05881">
        <ele>1615.23297361</ele>
        <time>2015-12-25T14:22:51Z</time>
      </trkpt>
      <trkpt lat="45.55134" lon="6.05881">
        <ele>1615.23297361</ele>
        <time>2015-12-25T14:22:57Z</time>
      </trkpt>
      <trkpt lat="45.55141" lon="6.05874">
        <ele>1614.411746402</ele>
        <time>2015-12-25T14:23:06Z</time>
      </trkpt>
      <trkpt lat="45.55144" lon="6.05872">
        <ele>1614.411746402</ele>
        <time>2015-12-25T14:23:10Z</time>
      </trkpt>
      <trkpt lat="45.55145" lon="6.05871">
        <ele>1614.411746402</ele>
        <time>2015-12-25T14:23:21Z</time>
      </trkpt>
      <trkpt lat="45.55148" lon="6.05872">
        <ele>1614.411746402</ele>
        <time>2015-12-25T14:23:25Z</time>
      </trkpt>
      <trkpt lat="45.5515" lon="6.05872">
        <ele>1613.39435021</ele>
        <time>2015-12-25T14:23:36Z</time>
      </trkpt>
      <trkpt lat="45.5515" lon="6.05872">
        <ele>1613.39435021</ele>
        <time>2015-12-25T14:23:41Z</time>
      </trkpt>
      <trkpt lat="45.55151" lon="6.0587">
        <ele>1613.39435021</ele>
        <time>2015-12-25T14:23:45Z</time>
      </trkpt>
      <trkpt lat="45.55159" lon="6.05874">
        <ele>1612.493372277</ele>
        <time>2015-12-25T14:23:55Z</time>
      </trkpt>
      <trkpt lat="45.5516" lon="6.05873">
        <ele>1612.493372277</ele>
        <time>2015-12-25T14:24:00Z</time>
      </trkpt>
      <trkpt lat="45.55162" lon="6.05876">
        <ele>1612.493372277</ele>
        <time>2015-12-25T14:24:11Z</time>
      </trkpt>
      <trkpt lat="45.55165" lon="6.05878">
        <ele>1612.493372277</ele>
        <time>2015-12-25T14:24:16Z</time>
      </trkpt>
      <trkpt lat="45.5517" lon="6.05875">
        <ele>1611.709657383</ele>
        <time>2015-12-25T14:24:25Z</time>
      </trkpt>
      <trkpt lat="45.55173" lon="6.05872">
        <ele>1611.709657383</ele>
        <time>2015-12-25T14:24:30Z</time>
      </trkpt>
      <trkpt lat="45.55179" lon="6.05877">
        <ele>1611.331640684</ele>
        <time>2015-12-25T14:24:40Z</time>
      </trkpt>
      <trkpt lat="45.55179" lon="6.05876">
        <ele>1611.331640684</ele>
        <time>2015-12-25T14:24:45Z</time>
      </trkpt>
      <trkpt lat="45.55184" lon="6.0588">
        <ele>1611.331640684</ele>
        <time>2015-12-25T14:24:56Z</time>
      </trkpt>
      <trkpt lat="45.55185" lon="6.0588">
        <ele>1611.331640684</ele>
        <time>2015-12-25T14:25:01Z</time>
      </trkpt>
      <trkpt lat="45.5519" lon="6.05894">
        <ele>1610.328180786</ele>
        <time>2015-12-25T14:25:15Z</time>
      </trkpt>
      <trkpt lat="45.55192" lon="6.05898">
        <ele>1610.328180786</ele>
        <time>2015-12-25T14:25:21Z</time>
      </trkpt>
      <trkpt lat="45.55192" lon="6.05897">
        <ele>1610.328180786</ele>
        <time>2015-12-25T14:25:30Z</time>
      </trkpt>
      <trkpt lat="45.55192" lon="6.05896">
        <ele>1610.328180786</ele>
        <time>2015-12-25T14:25:35Z</time>
      </trkpt>
      <trkpt lat="45.55192" lon="6.05897">
        <ele>1610.328180786</ele>
        <time>2015-12-25T14:25:40Z</time>
      </trkpt>
      <trkpt lat="45.55192" lon="6.05897">
        <ele>1610.328180786</ele>
        <time>2015-12-25T14:25:45Z</time>
      </trkpt>
      <trkpt lat="45.55192" lon="6.05896">
        <ele>1610.328180786</ele>
        <time>2015-12-25T14:25:50Z</time>
      </trkpt>
      <trkpt lat="45.55191" lon="6.05896">
        <ele>1610.328180786</ele>
        <time>2015-12-25T14:25:55Z</time>
      </trkpt>
      <trkpt lat="45.55192" lon="6.05893">
        <ele>1610.328180786</ele>
        <time>2015-12-25T14:26:00Z</time>
      </trkpt>
      <trkpt lat="45.55191" lon="6.05893">
        <ele>1610.328180786</ele>
        <time>2015-12-25T14:26:05Z</time>
      </trkpt>
      <trkpt lat="45.55192" lon="6.05893">
        <ele>1609.330604144</ele>
        <time>2015-12-25T14:26:16Z</time>
      </trkpt>
      <trkpt lat="45.55192" lon="6.05893">
        <ele>1609.330604144</ele>
        <time>2015-12-25T14:26:21Z</time>
      </trkpt>
      <trkpt lat="45.55194" lon="6.05891">
        <ele>1609.330604144</ele>
        <time>2015-12-25T14:26:31Z</time>
      </trkpt>
      <trkpt lat="45.55194" lon="6.05891">
        <ele>1609.330604144</ele>
        <time>2015-12-25T14:26:36Z</time>
      </trkpt>
      <trkpt lat="45.55195" lon="6.05889">
        <ele>1609.330604144</ele>
        <time>2015-12-25T14:26:45Z</time>
      </trkpt>
      <trkpt lat="45.55201" lon="6.05887">
        <ele>1608.203025282</ele>
        <time>2015-12-25T14:26:50Z</time>
      </trkpt>
      <trkpt lat="45.55208" lon="6.05889">
        <ele>1608.203025282</ele>
        <time>2015-12-25T14:27:01Z</time>
      </trkpt>
      <trkpt lat="45.55208" lon="6.05891">
        <ele>1608.203025282</ele>
        <time>2015-12-25T14:27:06Z</time>
      </trkpt>
      <trkpt lat="45.55214" lon="6.05895">
        <ele>1606.819636584</ele>
        <time>2015-12-25T14:27:16Z</time>
      </trkpt>
      <trkpt lat="45.55216" lon="6.05895">
        <ele>1606.819636584</ele>
        <time>2015-12-25T14:27:20Z</time>
      </trkpt>
      <trkpt lat="45.55216" lon="6.05896">
        <ele>1606.819636584</ele>
        <time>2015-12-25T14:27:31Z</time>
      </trkpt>
      <trkpt lat="45.55216" lon="6.05896">
        <ele>1606.819636584</ele>
        <time>2015-12-25T14:27:35Z</time>
      </trkpt>
      <trkpt lat="45.55225" lon="6.05901">
        <ele>1604.776091076</ele>
        <time>2015-12-25T14:27:50Z</time>
      </trkpt>
      <trkpt lat="45.55228" lon="6.05902">
        <ele>1604.776091076</ele>
        <time>2015-12-25T14:27:56Z</time>
      </trkpt>
      <trkpt lat="45.5523" lon="6.05904">
        <ele>1604.776091076</ele>
        <time>2015-12-25T14:28:05Z</time>
      </trkpt>
      <trkpt lat="45.5523" lon="6.05904">
        <ele>1604.776091076</ele>
        <time>2015-12-25T14:28:25Z</time>
      </trkpt>
      <trkpt lat="45.5523" lon="6.05904">
        <ele>1604.776091076</ele>
        <time>2015-12-25T14:28:31Z</time>
      </trkpt>
      <trkpt lat="45.5523" lon="6.05905">
        <ele>1604.776091076</ele>
        <time>2015-12-25T14:28:41Z</time>
      </trkpt>
      <trkpt lat="45.55231" lon="6.05907">
        <ele>1604.776091076</ele>
        <time>2015-12-25T14:28:45Z</time>
      </trkpt>
      <trkpt lat="45.55233" lon="6.05905">
        <ele>1603.14042504</ele>
        <time>2015-12-25T14:28:56Z</time>
      </trkpt>
      <trkpt lat="45.55234" lon="6.05906">
        <ele>1603.14042504</ele>
        <time>2015-12-25T14:29:00Z</time>
      </trkpt>
      <trkpt lat="45.55239" lon="6.05912">
        <ele>1603.14042504</ele>
        <time>2015-12-25T14:29:11Z</time>
      </trkpt>
      <trkpt lat="45.55239" lon="6.05912">
        <ele>1603.14042504</ele>
        <time>2015-12-25T14:29:15Z</time>
      </trkpt>
      <trkpt lat="45.55239" lon="6.05912">
        <ele>1603.14042504</ele>
        <time>2015-12-25T14:29:20Z</time>
      </trkpt>
      <trkpt lat="45.55239" lon="6.05912">
        <ele>1603.14042504</ele>
        <time>2015-12-25T14:29:25Z</time>
      </trkpt>
      <trkpt lat="45.55239" lon="6.05912">
        <ele>1600.739113811</ele>
        <time>2015-12-25T14:29:30Z</time>
      </trkpt>
      <trkpt lat="45.5524" lon="6.05912">
        <ele>1600.739113811</ele>
        <time>2015-12-25T14:29:40Z</time>
      </trkpt>
      <trkpt lat="45.5524" lon="6.05912">
        <ele>1600.739113811</ele>
        <time>2015-12-25T14:29:45Z</time>
      </trkpt>
      <trkpt lat="45.55244" lon="6.05913">
        <ele>1600.739113811</ele>
        <time>2015-12-25T14:30:01Z</time>
      </trkpt>
      <trkpt lat="45.55244" lon="6.05913">
        <ele>1600.739113811</ele>
        <time>2015-12-25T14:30:15Z</time>
      </trkpt>
      <trkpt lat="45.55245" lon="6.05913">
        <ele>1600.739113811</ele>
        <time>2015-12-25T14:30:21Z</time>
      </trkpt>
      <trkpt lat="45.55247" lon="6.05914">
        <ele>1600.739113811</ele>
        <time>2015-12-25T14:30:31Z</time>
      </trkpt>
      <trkpt lat="45.55247" lon="6.05914">
        <ele>1600.739113811</ele>
        <time>2015-12-25T14:30:36Z</time>
      </trkpt>
      <trkpt lat="45.55251" lon="6.05918">
        <ele>1597.927797262</ele>
        <time>2015-12-25T14:30:46Z</time>
      </trkpt>
      <trkpt lat="45.55252" lon="6.05919">
        <ele>1597.927797262</ele>
        <time>2015-12-25T14:30:50Z</time>
      </trkpt>
      <trkpt lat="45.55252" lon="6.05919">
        <ele>1597.927797262</ele>
        <time>2015-12-25T14:31:00Z</time>
      </trkpt>
      <trkpt lat="45.55252" lon="6.05919">
        <ele>1597.927797262</ele>
        <time>2015-12-25T14:31:06Z</time>
      </trkpt>
      <trkpt lat="45.55259" lon="6.05922">
        <ele>1595.180940136</ele>
        <time>2015-12-25T14:31:16Z</time>
      </trkpt>
      <trkpt lat="45.5526" lon="6.05923">
        <ele>1595.180940136</ele>
        <time>2015-12-25T14:31:20Z</time>
      </trkpt>
      <trkpt lat="45.5526" lon="6.05923">
        <ele>1595.180940136</ele>
        <time>2015-12-25T14:31:31Z</time>
      </trkpt>
      <trkpt lat="45.5526" lon="6.05923">
        <ele>1595.180940136</ele>
        <time>2015-12-25T14:31:36Z</time>
      </trkpt>
      <trkpt lat="45.55265" lon="6.05928">
        <ele>1595.180940136</ele>
        <time>2015-12-25T14:31:45Z</time>
      </trkpt>
      <trkpt lat="45.55267" lon="6.05933">
        <ele>1591.352426353</ele>
        <time>2015-12-25T14:31:51Z</time>
      </trkpt>
      <trkpt lat="45.55271" lon="6.05937">
        <ele>1591.352426353</ele>
        <time>2015-12-25T14:32:01Z</time>
      </trkpt>
      <trkpt lat="45.55273" lon="6.05937">
        <ele>1591.352426353</ele>
        <time>2015-12-25T14:32:05Z</time>
      </trkpt>
      <trkpt lat="45.55277" lon="6.0594">
        <ele>1587.977032568</ele>
        <time>2015-12-25T14:32:10Z</time>
      </trkpt>
      <trkpt lat="45.55278" lon="6.0594">
        <ele>1587.977032568</ele>
        <time>2015-12-25T14:32:16Z</time>
      </trkpt>
      <trkpt lat="45.55277" lon="6.0594">
        <ele>1587.977032568</ele>
        <time>2015-12-25T14:32:21Z</time>
      </trkpt>
      <trkpt lat="45.55282" lon="6.05942">
        <ele>1587.977032568</ele>
        <time>2015-12-25T14:32:30Z</time>
      </trkpt>
      <trkpt lat="45.55281" lon="6.05942">
        <ele>1587.977032568</ele>
        <time>2015-12-25T14:32:35Z</time>
      </trkpt>
      <trkpt lat="45.55281" lon="6.05943">
        <ele>1587.977032568</ele>
        <time>2015-12-25T14:32:40Z</time>
      </trkpt>
      <trkpt lat="45.55281" lon="6.05943">
        <ele>1587.977032568</ele>
        <time>2015-12-25T14:32:45Z</time>
      </trkpt>
      <trkpt lat="45.55281" lon="6.05943">
        <ele>1587.977032568</ele>
        <time>2015-12-25T14:32:50Z</time>
      </trkpt>
      <trkpt lat="45.55281" lon="6.05943">
        <ele>1587.977032568</ele>
        <time>2015-12-25T14:33:06Z</time>
      </trkpt>
      <trkpt lat="45.55281" lon="6.05946">
        <ele>1583.592947319</ele>
        <time>2015-12-25T14:33:11Z</time>
      </trkpt>
      <trkpt lat="45.55282" lon="6.05947">
        <ele>1583.592947319</ele>
        <time>2015-12-25T14:33:20Z</time>
      </trkpt>
      <trkpt lat="45.55283" lon="6.05947">
        <ele>1583.592947319</ele>
        <time>2015-12-25T14:33:25Z</time>
      </trkpt>
      <trkpt lat="45.55283" lon="6.05947">
        <ele>1583.592947319</ele>
        <time>2015-12-25T14:33:36Z</time>
      </trkpt>
      <trkpt lat="45.55291" lon="6.05949">
        <ele>1579.73043244</ele>
        <time>2015-12-25T14:33:41Z</time>
      </trkpt>
      <trkpt lat="45.55296" lon="6.05954">
        <ele>1579.73043244</ele>
        <time>2015-12-25T14:33:50Z</time>
      </trkpt>
      <trkpt lat="45.55295" lon="6.05954">
        <ele>1579.73043244</ele>
        <time>2015-12-25T14:33:55Z</time>
      </trkpt>
      <trkpt lat="45.55296" lon="6.05957">
        <ele>1579.73043244</ele>
        <time>2015-12-25T14:34:06Z</time>
      </trkpt>
      <trkpt lat="45.55296" lon="6.05957">
        <ele>1579.73043244</ele>
        <time>2015-12-25T14:34:10Z</time>
      </trkpt>
      <trkpt lat="45.55296" lon="6.05957">
        <ele>1579.73043244</ele>
        <time>2015-12-25T14:34:15Z</time>
      </trkpt>
      <trkpt lat="45.55296" lon="6.05957">
        <ele>1579.73043244</ele>
        <time>2015-12-25T14:34:20Z</time>
      </trkpt>
      <trkpt lat="45.55296" lon="6.05957">
        <ele>1579.73043244</ele>
        <time>2015-12-25T14:34:26Z</time>
      </trkpt>
      <trkpt lat="45.55296" lon="6.05957">
        <ele>1579.73043244</ele>
        <time>2015-12-25T14:34:36Z</time>
      </trkpt>
      <trkpt lat="45.55298" lon="6.05957">
        <ele>1574.923272519</ele>
        <time>2015-12-25T14:34:41Z</time>
      </trkpt>
      <trkpt lat="45.55303" lon="6.05961">
        <ele>1574.923272519</ele>
        <time>2015-12-25T14:34:56Z</time>
      </trkpt>
      <trkpt lat="45.55306" lon="6.05967">
        <ele>1569.976883714</ele>
        <time>2015-12-25T14:35:01Z</time>
      </trkpt>
      <trkpt lat="45.55309" lon="6.05971">
        <ele>1569.976883714</ele>
        <time>2015-12-25T14:35:11Z</time>
      </trkpt>
      <trkpt lat="45.55307" lon="6.05971">
        <ele>1569.976883714</ele>
        <time>2015-12-25T14:35:15Z</time>
      </trkpt>
      <trkpt lat="45.55308" lon="6.05971">
        <ele>1569.976883714</ele>
        <time>2015-12-25T14:35:25Z</time>
      </trkpt>
      <trkpt lat="45.55308" lon="6.05971">
        <ele>1569.976883714</ele>
        <time>2015-12-25T14:35:30Z</time>
      </trkpt>
      <trkpt lat="45.55312" lon="6.05978">
        <ele>1565.061054702</ele>
        <time>2015-12-25T14:35:40Z</time>
      </trkpt>
      <trkpt lat="45.55313" lon="6.0598">
        <ele>1565.061054702</ele>
        <time>2015-12-25T14:35:45Z</time>
      </trkpt>
      <trkpt lat="45.55314" lon="6.05987">
        <ele>1565.061054702</ele>
        <time>2015-12-25T14:35:56Z</time>
      </trkpt>
      <trkpt lat="45.55316" lon="6.05992">
        <ele>1560.764928635</ele>
        <time>2015-12-25T14:36:00Z</time>
      </trkpt>
      <trkpt lat="45.55317" lon="6.06006">
        <ele>1557.343979435</ele>
        <time>2015-12-25T14:36:10Z</time>
      </trkpt>
      <trkpt lat="45.55316" lon="6.06011">
        <ele>1557.343979435</ele>
        <time>2015-12-25T14:36:15Z</time>
      </trkpt>
      <trkpt lat="45.55323" lon="6.06022">
        <ele>1555.176136667</ele>
        <time>2015-12-25T14:36:26Z</time>
      </trkpt>
      <trkpt lat="45.55321" lon="6.06025">
        <ele>1555.176136667</ele>
        <time>2015-12-25T14:36:30Z</time>
      </trkpt>
      <trkpt lat="45.55321" lon="6.06033">
        <ele>1555.176136667</ele>
        <time>2015-12-25T14:36:40Z</time>
      </trkpt>
      <trkpt lat="45.55321" lon="6.06034">
        <ele>1551.869507727</ele>
        <time>2015-12-25T14:36:46Z</time>
      </trkpt>
      <trkpt lat="45.5532" lon="6.06035">
        <ele>1551.869507727</ele>
        <time>2015-12-25T14:36:56Z</time>
      </trkpt>
      <trkpt lat="45.55321" lon="6.06037">
        <ele>1551.869507727</ele>
        <time>2015-12-25T14:37:01Z</time>
      </trkpt>
      <trkpt lat="45.55329" lon="6.06054">
        <ele>1548.669343748</ele>
        <time>2015-12-25T14:37:17Z</time>
      </trkpt>
      <trkpt lat="45.55334" lon="6.06058">
        <ele>1548.669343748</ele>
        <time>2015-12-25T14:37:20Z</time>
      </trkpt>
      <trkpt lat="45.55346" lon="6.06066">
        <ele>1546.008149539</ele>
        <time>2015-12-25T14:37:31Z</time>
      </trkpt>
      <trkpt lat="45.55348" lon="6.06068">
        <ele>1546.008149539</ele>
        <time>2015-12-25T14:37:35Z</time>
      </trkpt>
      <trkpt lat="45.55353" lon="6.0607">
        <ele>1546.008149539</ele>
        <time>2015-12-25T14:37:46Z</time>
      </trkpt>
      <trkpt lat="45.55354" lon="6.06071">
        <ele>1546.008149539</ele>
        <time>2015-12-25T14:37:50Z</time>
      </trkpt>
      <trkpt lat="45.55355" lon="6.06072">
        <ele>1543.131850695</ele>
        <time>2015-12-25T14:38:01Z</time>
      </trkpt>
      <trkpt lat="45.55357" lon="6.06073">
        <ele>1543.131850695</ele>
        <time>2015-12-25T14:38:06Z</time>
      </trkpt>
      <trkpt lat="45.55368" lon="6.06074">
        <ele>1540.783086312</ele>
        <time>2015-12-25T14:38:20Z</time>
      </trkpt>
      <trkpt lat="45.55377" lon="6.06078">
        <ele>1538.495189847</ele>
        <time>2015-12-25T14:38:30Z</time>
      </trkpt>
      <trkpt lat="45.55378" lon="6.06077">
        <ele>1538.495189847</ele>
        <time>2015-12-25T14:38:35Z</time>
      </trkpt>
      <trkpt lat="45.55388" lon="6.06079">
        <ele>1535.835236324</ele>
        <time>2015-12-25T14:38:50Z</time>
      </trkpt>
      <trkpt lat="45.55389" lon="6.06079">
        <ele>1535.835236324</ele>
        <time>2015-12-25T14:38:56Z</time>
      </trkpt>
      <trkpt lat="45.55389" lon="6.06079">
        <ele>1535.835236324</ele>
        <time>2015-12-25T14:39:05Z</time>
      </trkpt>
      <trkpt lat="45.55389" lon="6.06079">
        <ele>1535.835236324</ele>
        <time>2015-12-25T14:39:10Z</time>
      </trkpt>
      <trkpt lat="45.5539" lon="6.06079">
        <ele>1535.835236324</ele>
        <time>2015-12-25T14:39:20Z</time>
      </trkpt>
      <trkpt lat="45.55391" lon="6.06078">
        <ele>1535.835236324</ele>
        <time>2015-12-25T14:39:26Z</time>
      </trkpt>
      <trkpt lat="45.55391" lon="6.06078">
        <ele>1535.835236324</ele>
        <time>2015-12-25T14:39:36Z</time>
      </trkpt>
      <trkpt lat="45.55391" lon="6.06078">
        <ele>1535.835236324</ele>
        <time>2015-12-25T14:39:40Z</time>
      </trkpt>
      <trkpt lat="45.55392" lon="6.06078">
        <ele>1535.835236324</ele>
        <time>2015-12-25T14:39:51Z</time>
      </trkpt>
      <trkpt lat="45.55392" lon="6.06078">
        <ele>1535.835236324</ele>
        <time>2015-12-25T14:39:56Z</time>
      </trkpt>
      <trkpt lat="45.55392" lon="6.06078">
        <ele>1535.835236324</ele>
        <time>2015-12-25T14:40:06Z</time>
      </trkpt>
      <trkpt lat="45.55392" lon="6.06077">
        <ele>1535.835236324</ele>
        <time>2015-12-25T14:40:11Z</time>
      </trkpt>
      <trkpt lat="45.55393" lon="6.06078">
        <ele>1535.835236324</ele>
        <time>2015-12-25T14:40:15Z</time>
      </trkpt>
      <trkpt lat="45.55393" lon="6.06079">
        <ele>1535.835236324</ele>
        <time>2015-12-25T14:40:25Z</time>
      </trkpt>
      <trkpt lat="45.554" lon="6.06087">
        <ele>1533.267459657</ele>
        <time>2015-12-25T14:40:41Z</time>
      </trkpt>
      <trkpt lat="45.554" lon="6.06087">
        <ele>1533.267459657</ele>
        <time>2015-12-25T14:40:46Z</time>
      </trkpt>
      <trkpt lat="45.55401" lon="6.06086">
        <ele>1533.267459657</ele>
        <time>2015-12-25T14:40:56Z</time>
      </trkpt>
      <trkpt lat="45.55402" lon="6.06091">
        <ele>1533.267459657</ele>
        <time>2015-12-25T14:41:01Z</time>
      </trkpt>
      <trkpt lat="45.55411" lon="6.06102">
        <ele>1529.63616852</ele>
        <time>2015-12-25T14:41:11Z</time>
      </trkpt>
      <trkpt lat="45.55411" lon="6.06104">
        <ele>1529.63616852</ele>
        <time>2015-12-25T14:41:15Z</time>
      </trkpt>
      <trkpt lat="45.55415" lon="6.06114">
        <ele>1526.323111326</ele>
        <time>2015-12-25T14:41:26Z</time>
      </trkpt>
      <trkpt lat="45.55417" lon="6.06116">
        <ele>1526.323111326</ele>
        <time>2015-12-25T14:41:30Z</time>
      </trkpt>
      <trkpt lat="45.55422" lon="6.06129">
        <ele>1523.454432331</ele>
        <time>2015-12-25T14:41:40Z</time>
      </trkpt>
      <trkpt lat="45.55424" lon="6.06134">
        <ele>1523.454432331</ele>
        <time>2015-12-25T14:41:46Z</time>
      </trkpt>
      <trkpt lat="45.55428" lon="6.06144">
        <ele>1520.857230924</ele>
        <time>2015-12-25T14:41:56Z</time>
      </trkpt>
      <trkpt lat="45.55432" lon="6.06145">
        <ele>1520.857230924</ele>
        <time>2015-12-25T14:42:00Z</time>
      </trkpt>
      <trkpt lat="45.55439" lon="6.06148">
        <ele>1518.946693366</ele>
        <time>2015-12-25T14:42:10Z</time>
      </trkpt>
      <trkpt lat="45.55442" lon="6.0615">
        <ele>1518.946693366</ele>
        <time>2015-12-25T14:42:15Z</time>
      </trkpt>
      <trkpt lat="45.5545" lon="6.06163">
        <ele>1516.808296811</ele>
        <time>2015-12-25T14:42:31Z</time>
      </trkpt>
      <trkpt lat="45.55455" lon="6.06165">
        <ele>1516.808296811</ele>
        <time>2015-12-25T14:42:35Z</time>
      </trkpt>
      <trkpt lat="45.5546" lon="6.06167">
        <ele>1514.603849446</ele>
        <time>2015-12-25T14:42:45Z</time>
      </trkpt>
      <trkpt lat="45.55464" lon="6.06169">
        <ele>1514.603849446</ele>
        <time>2015-12-25T14:42:50Z</time>
      </trkpt>
      <trkpt lat="45.55473" lon="6.06181">
        <ele>1512.627320382</ele>
        <time>2015-12-25T14:43:01Z</time>
      </trkpt>
      <trkpt lat="45.55475" lon="6.06185">
        <ele>1512.627320382</ele>
        <time>2015-12-25T14:43:05Z</time>
      </trkpt>
      <trkpt lat="45.55476" lon="6.06196">
        <ele>1510.573768082</ele>
        <time>2015-12-25T14:43:16Z</time>
      </trkpt>
      <trkpt lat="45.55475" lon="6.062">
        <ele>1510.573768082</ele>
        <time>2015-12-25T14:43:20Z</time>
      </trkpt>
      <trkpt lat="45.55478" lon="6.06205">
        <ele>1510.573768082</ele>
        <time>2015-12-25T14:43:31Z</time>
      </trkpt>
      <trkpt lat="45.55477" lon="6.06206">
        <ele>1510.573768082</ele>
        <time>2015-12-25T14:43:36Z</time>
      </trkpt>
      <trkpt lat="45.55482" lon="6.06203">
        <ele>1508.592986419</ele>
        <time>2015-12-25T14:43:46Z</time>
      </trkpt>
      <trkpt lat="45.55484" lon="6.06204">
        <ele>1508.592986419</ele>
        <time>2015-12-25T14:43:51Z</time>
      </trkpt>
      <trkpt lat="45.5549" lon="6.06205">
        <ele>1508.592986419</ele>
        <time>2015-12-25T14:44:00Z</time>
      </trkpt>
      <trkpt lat="45.5549" lon="6.06205">
        <ele>1508.592986419</ele>
        <time>2015-12-25T14:44:05Z</time>
      </trkpt>
      <trkpt lat="45.555" lon="6.06213">
        <ele>1506.391028976</ele>
        <time>2015-12-25T14:44:15Z</time>
      </trkpt>
      <trkpt lat="45.55502" lon="6.06217">
        <ele>1506.391028976</ele>
        <time>2015-12-25T14:44:20Z</time>
      </trkpt>
      <trkpt lat="45.55509" lon="6.06226">
        <ele>1504.128312935</ele>
        <time>2015-12-25T14:44:30Z</time>
      </trkpt>
      <trkpt lat="45.55513" lon="6.0623">
        <ele>1504.128312935</ele>
        <time>2015-12-25T14:44:36Z</time>
      </trkpt>
      <trkpt lat="45.5552" lon="6.06239">
        <ele>1502.241695533</ele>
        <time>2015-12-25T14:44:46Z</time>
      </trkpt>
      <trkpt lat="45.55523" lon="6.06242">
        <ele>1502.241695533</ele>
        <time>2015-12-25T14:44:50Z</time>
      </trkpt>
      <trkpt lat="45.55528" lon="6.0625">
        <ele>1500.702400531</ele>
        <time>2015-12-25T14:45:06Z</time>
      </trkpt>
      <trkpt lat="45.55529" lon="6.06252">
        <ele>1500.702400531</ele>
        <time>2015-12-25T14:45:10Z</time>
      </trkpt>
      <trkpt lat="45.55534" lon="6.0626">
        <ele>1499.48265324</ele>
        <time>2015-12-25T14:45:21Z</time>
      </trkpt>
      <trkpt lat="45.55537" lon="6.06264">
        <ele>1499.48265324</ele>
        <time>2015-12-25T14:45:25Z</time>
      </trkpt>
      <trkpt lat="45.55547" lon="6.0627">
        <ele>1498.123367789</ele>
        <time>2015-12-25T14:45:40Z</time>
      </trkpt>
      <trkpt lat="45.5555" lon="6.06271">
        <ele>1498.123367789</ele>
        <time>2015-12-25T14:45:46Z</time>
      </trkpt>
      <trkpt lat="45.55559" lon="6.06276">
        <ele>1496.48769144</ele>
        <time>2015-12-25T14:45:56Z</time>
      </trkpt>
      <trkpt lat="45.55564" lon="6.06279">
        <ele>1496.48769144</ele>
        <time>2015-12-25T14:46:00Z</time>
      </trkpt>
      <trkpt lat="45.55573" lon="6.06277">
        <ele>1496.17884764</ele>
        <time>2015-12-25T14:46:10Z</time>
      </trkpt>
      <trkpt lat="45.55578" lon="6.06277">
        <ele>1496.17884764</ele>
        <time>2015-12-25T14:46:15Z</time>
      </trkpt>
      <trkpt lat="45.55591" lon="6.06282">
        <ele>1495.508051997</ele>
        <time>2015-12-25T14:46:26Z</time>
      </trkpt>
      <trkpt lat="45.55595" lon="6.06287">
        <ele>1495.508051997</ele>
        <time>2015-12-25T14:46:30Z</time>
      </trkpt>
      <trkpt lat="45.55606" lon="6.06291">
        <ele>1494.929099384</ele>
        <time>2015-12-25T14:46:40Z</time>
      </trkpt>
      <trkpt lat="45.55608" lon="6.06293">
        <ele>1494.929099384</ele>
        <time>2015-12-25T14:46:45Z</time>
      </trkpt>
      <trkpt lat="45.5561" lon="6.06294">
        <ele>1494.929099384</ele>
        <time>2015-12-25T14:46:55Z</time>
      </trkpt>
      <trkpt lat="45.55614" lon="6.06304">
        <ele>1494.141604757</ele>
        <time>2015-12-25T14:47:01Z</time>
      </trkpt>
      <trkpt lat="45.55622" lon="6.06316">
        <ele>1493.011932135</ele>
        <time>2015-12-25T14:47:10Z</time>
      </trkpt>
      <trkpt lat="45.55628" lon="6.06318">
        <ele>1493.011932135</ele>
        <time>2015-12-25T14:47:16Z</time>
      </trkpt>
      <trkpt lat="45.55632" lon="6.06325">
        <ele>1491.561334828</ele>
        <time>2015-12-25T14:47:26Z</time>
      </trkpt>
      <trkpt lat="45.55634" lon="6.0633">
        <ele>1491.561334828</ele>
        <time>2015-12-25T14:47:30Z</time>
      </trkpt>
      <trkpt lat="45.55635" lon="6.06333">
        <ele>1491.561334828</ele>
        <time>2015-12-25T14:47:41Z</time>
      </trkpt>
      <trkpt lat="45.55638" lon="6.06339">
        <ele>1490.098640971</ele>
        <time>2015-12-25T14:47:45Z</time>
      </trkpt>
      <trkpt lat="45.55646" lon="6.06353">
        <ele>1488.765938281</ele>
        <time>2015-12-25T14:48:01Z</time>
      </trkpt>
      <trkpt lat="45.55652" lon="6.06356">
        <ele>1488.765938281</ele>
        <time>2015-12-25T14:48:06Z</time>
      </trkpt>
      <trkpt lat="45.55656" lon="6.06361">
        <ele>1487.550432241</ele>
        <time>2015-12-25T14:48:17Z</time>
      </trkpt>
      <trkpt lat="45.55657" lon="6.06363">
        <ele>1487.550432241</ele>
        <time>2015-12-25T14:48:20Z</time>
      </trkpt>
      <trkpt lat="45.55663" lon="6.06367">
        <ele>1487.550432241</ele>
        <time>2015-12-25T14:48:31Z</time>
      </trkpt>
      <trkpt lat="45.55663" lon="6.06369">
        <ele>1486.439978276</ele>
        <time>2015-12-25T14:48:36Z</time>
      </trkpt>
      <trkpt lat="45.55664" lon="6.06369">
        <ele>1486.439978276</ele>
        <time>2015-12-25T14:48:40Z</time>
      </trkpt>
      <trkpt lat="45.55669" lon="6.06371">
        <ele>1486.439978276</ele>
        <time>2015-12-25T14:48:50Z</time>
      </trkpt>
      <trkpt lat="45.55671" lon="6.06373">
        <ele>1486.439978276</ele>
        <time>2015-12-25T14:49:00Z</time>
      </trkpt>
      <trkpt lat="45.55673" lon="6.06374">
        <ele>1484.55840723</ele>
        <time>2015-12-25T14:49:05Z</time>
      </trkpt>
      <trkpt lat="45.55681" lon="6.06398">
        <ele>1482.393126159</ele>
        <time>2015-12-25T14:49:22Z</time>
      </trkpt>
      <trkpt lat="45.55682" lon="6.06405">
        <ele>1482.393126159</ele>
        <time>2015-12-25T14:49:25Z</time>
      </trkpt>
      <trkpt lat="45.55686" lon="6.06415">
        <ele>1480.684808675</ele>
        <time>2015-12-25T14:49:30Z</time>
      </trkpt>
      <trkpt lat="45.55687" lon="6.06418">
        <ele>1480.684808675</ele>
        <time>2015-12-25T14:49:37Z</time>
      </trkpt>
      <trkpt lat="45.55692" lon="6.06427">
        <ele>1479.397936445</ele>
        <time>2015-12-25T14:49:40Z</time>
      </trkpt>
      <trkpt lat="45.55697" lon="6.06438">
        <ele>1478.354364368</ele>
        <time>2015-12-25T14:49:50Z</time>
      </trkpt>
      <trkpt lat="45.557" lon="6.06449">
        <ele>1478.354364368</ele>
        <time>2015-12-25T14:49:55Z</time>
      </trkpt>
      <trkpt lat="45.55702" lon="6.06462">
        <ele>1477.244301118</ele>
        <time>2015-12-25T14:50:06Z</time>
      </trkpt>
      <trkpt lat="45.55704" lon="6.0647">
        <ele>1477.244301118</ele>
        <time>2015-12-25T14:50:11Z</time>
      </trkpt>
      <trkpt lat="45.55708" lon="6.06479">
        <ele>1475.636852933</ele>
        <time>2015-12-25T14:50:20Z</time>
      </trkpt>
      <trkpt lat="45.5571" lon="6.06485">
        <ele>1475.636852933</ele>
        <time>2015-12-25T14:50:25Z</time>
      </trkpt>
      <trkpt lat="45.55711" lon="6.06497">
        <ele>1474.719467525</ele>
        <time>2015-12-25T14:50:35Z</time>
      </trkpt>
      <trkpt lat="45.55713" lon="6.06501">
        <ele>1474.719467525</ele>
        <time>2015-12-25T14:50:40Z</time>
      </trkpt>
      <trkpt lat="45.55721" lon="6.0652">
        <ele>1474.437613997</ele>
        <time>2015-12-25T14:50:51Z</time>
      </trkpt>
      <trkpt lat="45.55723" lon="6.06524">
        <ele>1474.437613997</ele>
        <time>2015-12-25T14:50:55Z</time>
      </trkpt>
      <trkpt lat="45.55729" lon="6.0654">
        <ele>1474.162621671</ele>
        <time>2015-12-25T14:51:06Z</time>
      </trkpt>
      <trkpt lat="45.55732" lon="6.06544">
        <ele>1474.162621671</ele>
        <time>2015-12-25T14:51:11Z</time>
      </trkpt>
      <trkpt lat="45.55738" lon="6.06555">
        <ele>1473.744405058</ele>
        <time>2015-12-25T14:51:21Z</time>
      </trkpt>
      <trkpt lat="45.55743" lon="6.06557">
        <ele>1473.744405058</ele>
        <time>2015-12-25T14:51:25Z</time>
      </trkpt>
      <trkpt lat="45.55748" lon="6.06558">
        <ele>1473.476736994</ele>
        <time>2015-12-25T14:51:41Z</time>
      </trkpt>
      <trkpt lat="45.55753" lon="6.06556">
        <ele>1473.476736994</ele>
        <time>2015-12-25T14:51:45Z</time>
      </trkpt>
      <trkpt lat="45.55759" lon="6.06551">
        <ele>1473.199160445</ele>
        <time>2015-12-25T14:51:55Z</time>
      </trkpt>
      <trkpt lat="45.55763" lon="6.06553">
        <ele>1473.199160445</ele>
        <time>2015-12-25T14:52:00Z</time>
      </trkpt>
      <trkpt lat="45.55771" lon="6.06556">
        <ele>1472.763146873</ele>
        <time>2015-12-25T14:52:10Z</time>
      </trkpt>
      <trkpt lat="45.55777" lon="6.06554">
        <ele>1472.763146873</ele>
        <time>2015-12-25T14:52:15Z</time>
      </trkpt>
      <trkpt lat="45.55789" lon="6.06555">
        <ele>1472.463976625</ele>
        <time>2015-12-25T14:52:25Z</time>
      </trkpt>
      <trkpt lat="45.55792" lon="6.06556">
        <ele>1472.463976625</ele>
        <time>2015-12-25T14:52:30Z</time>
      </trkpt>
      <trkpt lat="45.55796" lon="6.06561">
        <ele>1472.463976625</ele>
        <time>2015-12-25T14:52:40Z</time>
      </trkpt>
      <trkpt lat="45.55795" lon="6.0656">
        <ele>1472.463976625</ele>
        <time>2015-12-25T14:52:45Z</time>
      </trkpt>
      <trkpt lat="45.55796" lon="6.06559">
        <ele>1471.710313024</ele>
        <time>2015-12-25T14:52:50Z</time>
      </trkpt>
      <trkpt lat="45.55797" lon="6.06559">
        <ele>1471.710313024</ele>
        <time>2015-12-25T14:53:01Z</time>
      </trkpt>
      <trkpt lat="45.55797" lon="6.06559">
        <ele>1471.710313024</ele>
        <time>2015-12-25T14:53:05Z</time>
      </trkpt>
      <trkpt lat="45.55797" lon="6.06559">
        <ele>1471.710313024</ele>
        <time>2015-12-25T14:53:10Z</time>
      </trkpt>
      <trkpt lat="45.55797" lon="6.06559">
        <ele>1471.710313024</ele>
        <time>2015-12-25T14:53:15Z</time>
      </trkpt>
      <trkpt lat="45.55797" lon="6.06563">
        <ele>1471.710313024</ele>
        <time>2015-12-25T14:53:20Z</time>
      </trkpt>
      <trkpt lat="45.55801" lon="6.06565">
        <ele>1471.710313024</ele>
        <time>2015-12-25T14:53:25Z</time>
      </trkpt>
      <trkpt lat="45.55803" lon="6.0657">
        <ele>1471.108551678</ele>
        <time>2015-12-25T14:53:30Z</time>
      </trkpt>
      <trkpt lat="45.55808" lon="6.06566">
        <ele>1471.108551678</ele>
        <time>2015-12-25T14:53:35Z</time>
      </trkpt>
      <trkpt lat="45.55814" lon="6.06562">
        <ele>1470.499691857</ele>
        <time>2015-12-25T14:53:40Z</time>
      </trkpt>
      <trkpt lat="45.55819" lon="6.06551">
        <ele>1470.499691857</ele>
        <time>2015-12-25T14:53:50Z</time>
      </trkpt>
      <trkpt lat="45.55824" lon="6.06549">
        <ele>1469.592453639</ele>
        <time>2015-12-25T14:53:56Z</time>
      </trkpt>
      <trkpt lat="45.55836" lon="6.0655">
        <ele>1469.126701946</ele>
        <time>2015-12-25T14:54:06Z</time>
      </trkpt>
      <trkpt lat="45.55841" lon="6.0655">
        <ele>1469.126701946</ele>
        <time>2015-12-25T14:54:10Z</time>
      </trkpt>
      <trkpt lat="45.5585" lon="6.06547">
        <ele>1468.633956341</ele>
        <time>2015-12-25T14:54:21Z</time>
      </trkpt>
      <trkpt lat="45.55856" lon="6.06545">
        <ele>1468.633956341</ele>
        <time>2015-12-25T14:54:25Z</time>
      </trkpt>
      <trkpt lat="45.55862" lon="6.0654">
        <ele>1467.824469523</ele>
        <time>2015-12-25T14:54:36Z</time>
      </trkpt>
      <trkpt lat="45.55866" lon="6.06538">
        <ele>1467.824469523</ele>
        <time>2015-12-25T14:54:41Z</time>
      </trkpt>
      <trkpt lat="45.5588" lon="6.06536">
        <ele>1467.151354496</ele>
        <time>2015-12-25T14:54:55Z</time>
      </trkpt>
      <trkpt lat="45.55894" lon="6.06533">
        <ele>1467.034187542</ele>
        <time>2015-12-25T14:55:10Z</time>
      </trkpt>
      <trkpt lat="45.55898" lon="6.06531">
        <ele>1467.034187542</ele>
        <time>2015-12-25T14:55:16Z</time>
      </trkpt>
      <trkpt lat="45.55908" lon="6.06528">
        <ele>1467.283850717</ele>
        <time>2015-12-25T14:55:26Z</time>
      </trkpt>
      <trkpt lat="45.55914" lon="6.06528">
        <ele>1467.283850717</ele>
        <time>2015-12-25T14:55:30Z</time>
      </trkpt>
      <trkpt lat="45.55922" lon="6.06525">
        <ele>1467.868334752</ele>
        <time>2015-12-25T14:55:40Z</time>
      </trkpt>
      <trkpt lat="45.55928" lon="6.06526">
        <ele>1467.868334752</ele>
        <time>2015-12-25T14:55:45Z</time>
      </trkpt>
      <trkpt lat="45.55941" lon="6.0653">
        <ele>1468.18073557</ele>
        <time>2015-12-25T14:55:55Z</time>
      </trkpt>
      <trkpt lat="45.55946" lon="6.06532">
        <ele>1468.18073557</ele>
        <time>2015-12-25T14:56:00Z</time>
      </trkpt>
      <trkpt lat="45.55952" lon="6.06539">
        <ele>1467.515524854</ele>
        <time>2015-12-25T14:56:11Z</time>
      </trkpt>
      <trkpt lat="45.55951" lon="6.06538">
        <ele>1467.515524854</ele>
        <time>2015-12-25T14:56:15Z</time>
      </trkpt>
      <trkpt lat="45.55953" lon="6.06538">
        <ele>1467.515524854</ele>
        <time>2015-12-25T14:56:26Z</time>
      </trkpt>
      <trkpt lat="45.5596" lon="6.06542">
        <ele>1466.662998356</ele>
        <time>2015-12-25T14:56:30Z</time>
      </trkpt>
      <trkpt lat="45.5597" lon="6.06552">
        <ele>1466.500175734</ele>
        <time>2015-12-25T14:56:40Z</time>
      </trkpt>
      <trkpt lat="45.55974" lon="6.06555">
        <ele>1466.500175734</ele>
        <time>2015-12-25T14:56:45Z</time>
      </trkpt>
      <trkpt lat="45.55975" lon="6.06555">
        <ele>1466.500175734</ele>
        <time>2015-12-25T14:56:50Z</time>
      </trkpt>
      <trkpt lat="45.55978" lon="6.06557">
        <ele>1466.500175734</ele>
        <time>2015-12-25T14:57:05Z</time>
      </trkpt>
      <trkpt lat="45.55981" lon="6.06561">
        <ele>1465.820298688</ele>
        <time>2015-12-25T14:57:10Z</time>
      </trkpt>
      <trkpt lat="45.55984" lon="6.06554">
        <ele>1465.820298688</ele>
        <time>2015-12-25T14:57:30Z</time>
      </trkpt>
      <trkpt lat="45.55986" lon="6.06552">
        <ele>1465.820298688</ele>
        <time>2015-12-25T14:57:35Z</time>
      </trkpt>
      <trkpt lat="45.55987" lon="6.06552">
        <ele>1465.236175349</ele>
        <time>2015-12-25T14:57:46Z</time>
      </trkpt>
      <trkpt lat="45.55987" lon="6.06552">
        <ele>1465.236175349</ele>
        <time>2015-12-25T14:57:50Z</time>
      </trkpt>
      <trkpt lat="45.55992" lon="6.06557">
        <ele>1465.236175349</ele>
        <time>2015-12-25T14:58:00Z</time>
      </trkpt>
      <trkpt lat="45.55996" lon="6.06562">
        <ele>1464.450791307</ele>
        <time>2015-12-25T14:58:05Z</time>
      </trkpt>
      <trkpt lat="45.56" lon="6.06563">
        <ele>1464.450791307</ele>
        <time>2015-12-25T14:58:16Z</time>
      </trkpt>
      <trkpt lat="45.56002" lon="6.06568">
        <ele>1464.450791307</ele>
        <time>2015-12-25T14:58:20Z</time>
      </trkpt>
      <trkpt lat="45.56013" lon="6.0658">
        <ele>1462.75730497</ele>
        <time>2015-12-25T14:58:31Z</time>
      </trkpt>
      <trkpt lat="45.5602" lon="6.06588">
        <ele>1461.521018343</ele>
        <time>2015-12-25T14:58:36Z</time>
      </trkpt>
      <trkpt lat="45.5603" lon="6.06597">
        <ele>1460.420540668</ele>
        <time>2015-12-25T14:58:45Z</time>
      </trkpt>
      <trkpt lat="45.56033" lon="6.06601">
        <ele>1460.420540668</ele>
        <time>2015-12-25T14:58:50Z</time>
      </trkpt>
      <trkpt lat="45.56039" lon="6.06608">
        <ele>1459.301918144</ele>
        <time>2015-12-25T14:59:00Z</time>
      </trkpt>
      <trkpt lat="45.56043" lon="6.06612">
        <ele>1459.301918144</ele>
        <time>2015-12-25T14:59:05Z</time>
      </trkpt>
      <trkpt lat="45.56052" lon="6.06621">
        <ele>1458.310868409</ele>
        <time>2015-12-25T14:59:16Z</time>
      </trkpt>
      <trkpt lat="45.56054" lon="6.06625">
        <ele>1458.310868409</ele>
        <time>2015-12-25T14:59:21Z</time>
      </trkpt>
      <trkpt lat="45.56059" lon="6.06626">
        <ele>1458.310868409</ele>
        <time>2015-12-25T14:59:30Z</time>
      </trkpt>
      <trkpt lat="45.5606" lon="6.06626">
        <ele>1457.005683182</ele>
        <time>2015-12-25T14:59:37Z</time>
      </trkpt>
      <trkpt lat="45.56068" lon="6.06632">
        <ele>1455.842723738</ele>
        <time>2015-12-25T14:59:51Z</time>
      </trkpt>
      <trkpt lat="45.56066" lon="6.06632">
        <ele>1455.842723738</ele>
        <time>2015-12-25T14:59:55Z</time>
      </trkpt>
      <trkpt lat="45.56067" lon="6.06632">
        <ele>1455.842723738</ele>
        <time>2015-12-25T15:00:01Z</time>
      </trkpt>
      <trkpt lat="45.5607" lon="6.06634">
        <ele>1455.842723738</ele>
        <time>2015-12-25T15:00:05Z</time>
      </trkpt>
      <trkpt lat="45.56071" lon="6.06637">
        <ele>1454.956272977</ele>
        <time>2015-12-25T15:00:10Z</time>
      </trkpt>
      <trkpt lat="45.56077" lon="6.06632">
        <ele>1454.956272977</ele>
        <time>2015-12-25T15:00:25Z</time>
      </trkpt>
      <trkpt lat="45.56081" lon="6.06634">
        <ele>1453.605366759</ele>
        <time>2015-12-25T15:00:30Z</time>
      </trkpt>
      <trkpt lat="45.56084" lon="6.06633">
        <ele>1453.605366759</ele>
        <time>2015-12-25T15:00:40Z</time>
      </trkpt>
      <trkpt lat="45.56085" lon="6.06628">
        <ele>1453.605366759</ele>
        <time>2015-12-25T15:00:45Z</time>
      </trkpt>
      <trkpt lat="45.56085" lon="6.06628">
        <ele>1453.605366759</ele>
        <time>2015-12-25T15:00:56Z</time>
      </trkpt>
      <trkpt lat="45.56086" lon="6.06628">
        <ele>1453.605366759</ele>
        <time>2015-12-25T15:01:00Z</time>
      </trkpt>
      <trkpt lat="45.56089" lon="6.06631">
        <ele>1452.40182858</ele>
        <time>2015-12-25T15:01:11Z</time>
      </trkpt>
      <trkpt lat="45.56089" lon="6.06631">
        <ele>1452.40182858</ele>
        <time>2015-12-25T15:01:15Z</time>
      </trkpt>
      <trkpt lat="45.56094" lon="6.06634">
        <ele>1452.40182858</ele>
        <time>2015-12-25T15:01:26Z</time>
      </trkpt>
      <trkpt lat="45.56098" lon="6.06637">
        <ele>1450.903392815</ele>
        <time>2015-12-25T15:01:31Z</time>
      </trkpt>
      <trkpt lat="45.56099" lon="6.0664">
        <ele>1450.903392815</ele>
        <time>2015-12-25T15:01:41Z</time>
      </trkpt>
      <trkpt lat="45.56101" lon="6.0664">
        <ele>1450.903392815</ele>
        <time>2015-12-25T15:01:45Z</time>
      </trkpt>
      <trkpt lat="45.56109" lon="6.06638">
        <ele>1447.836479572</ele>
        <time>2015-12-25T15:01:56Z</time>
      </trkpt>
      <trkpt lat="45.56115" lon="6.06637">
        <ele>1447.836479572</ele>
        <time>2015-12-25T15:02:00Z</time>
      </trkpt>
      <trkpt lat="45.56124" lon="6.06639">
        <ele>1444.763602303</ele>
        <time>2015-12-25T15:02:11Z</time>
      </trkpt>
      <trkpt lat="45.56125" lon="6.06641">
        <ele>1444.763602303</ele>
        <time>2015-12-25T15:02:15Z</time>
      </trkpt>
      <trkpt lat="45.56131" lon="6.06646">
        <ele>1444.763602303</ele>
        <time>2015-12-25T15:02:30Z</time>
      </trkpt>
      <trkpt lat="45.56132" lon="6.06646">
        <ele>1442.700187873</ele>
        <time>2015-12-25T15:02:35Z</time>
      </trkpt>
      <trkpt lat="45.56137" lon="6.06654">
        <ele>1442.700187873</ele>
        <time>2015-12-25T15:02:46Z</time>
      </trkpt>
      <trkpt lat="45.5614" lon="6.06656">
        <ele>1441.287236374</ele>
        <time>2015-12-25T15:02:51Z</time>
      </trkpt>
      <trkpt lat="45.5614" lon="6.06656">
        <ele>1441.287236374</ele>
        <time>2015-12-25T15:03:00Z</time>
      </trkpt>
      <trkpt lat="45.5614" lon="6.06656">
        <ele>1441.287236374</ele>
        <time>2015-12-25T15:03:06Z</time>
      </trkpt>
      <trkpt lat="45.56151" lon="6.06654">
        <ele>1440.910839484</ele>
        <time>2015-12-25T15:03:20Z</time>
      </trkpt>
      <trkpt lat="45.56153" lon="6.06652">
        <ele>1440.910839484</ele>
        <time>2015-12-25T15:03:35Z</time>
      </trkpt>
      <trkpt lat="45.56153" lon="6.06652">
        <ele>1440.910839484</ele>
        <time>2015-12-25T15:03:40Z</time>
      </trkpt>
      <trkpt lat="45.56152" lon="6.0665">
        <ele>1440.910839484</ele>
        <time>2015-12-25T15:03:51Z</time>
      </trkpt>
      <trkpt lat="45.56154" lon="6.06647">
        <ele>1440.910839484</ele>
        <time>2015-12-25T15:03:55Z</time>
      </trkpt>
      <trkpt lat="45.56153" lon="6.06634">
        <ele>1441.061137306</ele>
        <time>2015-12-25T15:04:05Z</time>
      </trkpt>
      <trkpt lat="45.56152" lon="6.06631">
        <ele>1441.061137306</ele>
        <time>2015-12-25T15:04:11Z</time>
      </trkpt>
      <trkpt lat="45.56155" lon="6.06622">
        <ele>1441.552457249</ele>
        <time>2015-12-25T15:04:21Z</time>
      </trkpt>
      <trkpt lat="45.56156" lon="6.06619">
        <ele>1441.552457249</ele>
        <time>2015-12-25T15:04:26Z</time>
      </trkpt>
      <trkpt lat="45.56155" lon="6.06604">
        <ele>1442.644139929</ele>
        <time>2015-12-25T15:04:36Z</time>
      </trkpt>
      <trkpt lat="45.56156" lon="6.06594">
        <ele>1442.644139929</ele>
        <time>2015-12-25T15:04:40Z</time>
      </trkpt>
      <trkpt lat="45.56156" lon="6.0659">
        <ele>1443.998355344</ele>
        <time>2015-12-25T15:04:45Z</time>
      </trkpt>
      <trkpt lat="45.56158" lon="6.06581">
        <ele>1443.998355344</ele>
        <time>2015-12-25T15:04:55Z</time>
      </trkpt>
      <trkpt lat="45.56166" lon="6.06572">
        <ele>1444.724931581</ele>
        <time>2015-12-25T15:05:11Z</time>
      </trkpt>
      <trkpt lat="45.56171" lon="6.06565">
        <ele>1444.724931581</ele>
        <time>2015-12-25T15:05:16Z</time>
      </trkpt>
      <trkpt lat="45.56173" lon="6.06561">
        <ele>1445.874330772</ele>
        <time>2015-12-25T15:05:26Z</time>
      </trkpt>
      <trkpt lat="45.56172" lon="6.0656">
        <ele>1445.874330772</ele>
        <time>2015-12-25T15:05:30Z</time>
      </trkpt>
      <trkpt lat="45.56173" lon="6.06558">
        <ele>1445.874330772</ele>
        <time>2015-12-25T15:05:41Z</time>
      </trkpt>
      <trkpt lat="45.56172" lon="6.06557">
        <ele>1445.874330772</ele>
        <time>2015-12-25T15:05:46Z</time>
      </trkpt>
      <trkpt lat="45.56172" lon="6.06559">
        <ele>1445.874330772</ele>
        <time>2015-12-25T15:05:55Z</time>
      </trkpt>
      <trkpt lat="45.56172" lon="6.06558">
        <ele>1445.874330772</ele>
        <time>2015-12-25T15:06:01Z</time>
      </trkpt>
      <trkpt lat="45.56173" lon="6.06558">
        <ele>1445.874330772</ele>
        <time>2015-12-25T15:06:10Z</time>
      </trkpt>
      <trkpt lat="45.56173" lon="6.06558">
        <ele>1445.874330772</ele>
        <time>2015-12-25T15:06:16Z</time>
      </trkpt>
      <trkpt lat="45.56173" lon="6.06558">
        <ele>1445.874330772</ele>
        <time>2015-12-25T15:06:26Z</time>
      </trkpt>
      <trkpt lat="45.56173" lon="6.06557">
        <ele>1445.874330772</ele>
        <time>2015-12-25T15:06:30Z</time>
      </trkpt>
      <trkpt lat="45.56172" lon="6.06556">
        <ele>1445.874330772</ele>
        <time>2015-12-25T15:06:41Z</time>
      </trkpt>
      <trkpt lat="45.56175" lon="6.06555">
        <ele>1447.698158213</ele>
        <time>2015-12-25T15:06:45Z</time>
      </trkpt>
      <trkpt lat="45.56174" lon="6.06549">
        <ele>1447.698158213</ele>
        <time>2015-12-25T15:07:01Z</time>
      </trkpt>
      <trkpt lat="45.56174" lon="6.06546">
        <ele>1447.698158213</ele>
        <time>2015-12-25T15:07:05Z</time>
      </trkpt>
      <trkpt lat="45.56178" lon="6.06534">
        <ele>1448.55426348</ele>
        <time>2015-12-25T15:07:15Z</time>
      </trkpt>
      <trkpt lat="45.56181" lon="6.0653">
        <ele>1448.55426348</ele>
        <time>2015-12-25T15:07:20Z</time>
      </trkpt>
      <trkpt lat="45.56184" lon="6.06519">
        <ele>1449.662030727</ele>
        <time>2015-12-25T15:07:30Z</time>
      </trkpt>
      <trkpt lat="45.56186" lon="6.06517">
        <ele>1449.662030727</ele>
        <time>2015-12-25T15:07:35Z</time>
      </trkpt>
      <trkpt lat="45.56194" lon="6.06508">
        <ele>1450.421315729</ele>
        <time>2015-12-25T15:07:45Z</time>
      </trkpt>
      <trkpt lat="45.56194" lon="6.06507">
        <ele>1450.421315729</ele>
        <time>2015-12-25T15:07:50Z</time>
      </trkpt>
      <trkpt lat="45.56199" lon="6.06504">
        <ele>1450.421315729</ele>
        <time>2015-12-25T15:08:00Z</time>
      </trkpt>
      <trkpt lat="45.56201" lon="6.06503">
        <ele>1450.421315729</ele>
        <time>2015-12-25T15:08:06Z</time>
      </trkpt>
      <trkpt lat="45.56204" lon="6.06501">
        <ele>1450.709466174</ele>
        <time>2015-12-25T15:08:16Z</time>
      </trkpt>
      <trkpt lat="45.56208" lon="6.06498">
        <ele>1450.709466174</ele>
        <time>2015-12-25T15:08:20Z</time>
      </trkpt>
      <trkpt lat="45.56214" lon="6.06491">
        <ele>1450.558371062</ele>
        <time>2015-12-25T15:08:30Z</time>
      </trkpt>
      <trkpt lat="45.56215" lon="6.06489">
        <ele>1450.558371062</ele>
        <time>2015-12-25T15:08:39Z</time>
      </trkpt>
      <trkpt lat="45.56224" lon="6.0648">
        <ele>1449.854796858</ele>
        <time>2015-12-25T15:08:45Z</time>
      </trkpt>
      <trkpt lat="45.56229" lon="6.06479">
        <ele>1449.854796858</ele>
        <time>2015-12-25T15:08:50Z</time>
      </trkpt>
      <trkpt lat="45.56238" lon="6.06477">
        <ele>1449.216029942</ele>
        <time>2015-12-25T15:09:00Z</time>
      </trkpt>
      <trkpt lat="45.56242" lon="6.06479">
        <ele>1449.216029942</ele>
        <time>2015-12-25T15:09:05Z</time>
      </trkpt>
      <trkpt lat="45.5625" lon="6.0648">
        <ele>1448.637475519</ele>
        <time>2015-12-25T15:09:16Z</time>
      </trkpt>
      <trkpt lat="45.56253" lon="6.06483">
        <ele>1448.637475519</ele>
        <time>2015-12-25T15:09:20Z</time>
      </trkpt>
      <trkpt lat="45.56264" lon="6.06482">
        <ele>1447.538345924</ele>
        <time>2015-12-25T15:09:35Z</time>
      </trkpt>
      <trkpt lat="45.56264" lon="6.06481">
        <ele>1447.538345924</ele>
        <time>2015-12-25T15:09:41Z</time>
      </trkpt>
      <trkpt lat="45.56264" lon="6.06482">
        <ele>1447.538345924</ele>
        <time>2015-12-25T15:09:51Z</time>
      </trkpt>
      <trkpt lat="45.56264" lon="6.06482">
        <ele>1447.538345924</ele>
        <time>2015-12-25T15:09:55Z</time>
      </trkpt>
      <trkpt lat="45.56258" lon="6.06479">
        <ele>1447.538345924</ele>
        <time>2015-12-25T15:10:05Z</time>
      </trkpt>
      <trkpt lat="45.56253" lon="6.06478">
        <ele>1447.111388046</ele>
        <time>2015-12-25T15:10:10Z</time>
      </trkpt>
      <trkpt lat="45.56251" lon="6.06477">
        <ele>1447.111388046</ele>
        <time>2015-12-25T15:10:21Z</time>
      </trkpt>
      <trkpt lat="45.5625" lon="6.06475">
        <ele>1447.111388046</ele>
        <time>2015-12-25T15:10:26Z</time>
      </trkpt>
      <trkpt lat="45.56249" lon="6.0647">
        <ele>1447.111388046</ele>
        <time>2015-12-25T15:10:35Z</time>
      </trkpt>
      <trkpt lat="45.56247" lon="6.0647">
        <ele>1446.154133988</ele>
        <time>2015-12-25T15:10:40Z</time>
      </trkpt>
      <trkpt lat="45.56246" lon="6.0647">
        <ele>1446.154133988</ele>
        <time>2015-12-25T15:10:45Z</time>
      </trkpt>
      <trkpt lat="45.56243" lon="6.06469">
        <ele>1446.154133988</ele>
        <time>2015-12-25T15:10:50Z</time>
      </trkpt>
      <trkpt lat="45.56242" lon="6.06461">
        <ele>1444.850996217</ele>
        <time>2015-12-25T15:11:01Z</time>
      </trkpt>
      <trkpt lat="45.56243" lon="6.06458">
        <ele>1444.850996217</ele>
        <time>2015-12-25T15:11:05Z</time>
      </trkpt>
      <trkpt lat="45.56246" lon="6.06454">
        <ele>1444.850996217</ele>
        <time>2015-12-25T15:11:20Z</time>
      </trkpt>
      <trkpt lat="45.56246" lon="6.06454">
        <ele>1444.850996217</ele>
        <time>2015-12-25T15:11:25Z</time>
      </trkpt>
      <trkpt lat="45.56249" lon="6.06452">
        <ele>1442.36508128</ele>
        <time>2015-12-25T15:11:36Z</time>
      </trkpt>
      <trkpt lat="45.56251" lon="6.06449">
        <ele>1442.36508128</ele>
        <time>2015-12-25T15:11:41Z</time>
      </trkpt>
      <trkpt lat="45.56256" lon="6.06449">
        <ele>1442.36508128</ele>
        <time>2015-12-25T15:11:51Z</time>
      </trkpt>
      <trkpt lat="45.56258" lon="6.06449">
        <ele>1438.500769857</ele>
        <time>2015-12-25T15:11:55Z</time>
      </trkpt>
      <trkpt lat="45.56258" lon="6.06446">
        <ele>1438.500769857</ele>
        <time>2015-12-25T15:12:07Z</time>
      </trkpt>
      <trkpt lat="45.56258" lon="6.06446">
        <ele>1438.500769857</ele>
        <time>2015-12-25T15:12:10Z</time>
      </trkpt>
      <trkpt lat="45.56258" lon="6.06446">
        <ele>1438.500769857</ele>
        <time>2015-12-25T15:12:20Z</time>
      </trkpt>
      <trkpt lat="45.56258" lon="6.06446">
        <ele>1438.500769857</ele>
        <time>2015-12-25T15:12:26Z</time>
      </trkpt>
      <trkpt lat="45.56261" lon="6.06444">
        <ele>1438.500769857</ele>
        <time>2015-12-25T15:12:36Z</time>
      </trkpt>
      <trkpt lat="45.56262" lon="6.06444">
        <ele>1438.500769857</ele>
        <time>2015-12-25T15:12:40Z</time>
      </trkpt>
      <trkpt lat="45.56264" lon="6.06445">
        <ele>1434.665916448</ele>
        <time>2015-12-25T15:12:46Z</time>
      </trkpt>
      <trkpt lat="45.56266" lon="6.06443">
        <ele>1434.665916448</ele>
        <time>2015-12-25T15:12:56Z</time>
      </trkpt>
      <trkpt lat="45.56268" lon="6.06443">
        <ele>1434.665916448</ele>
        <time>2015-12-25T15:13:00Z</time>
      </trkpt>
      <trkpt lat="45.5627" lon="6.06441">
        <ele>1434.665916448</ele>
        <time>2015-12-25T15:13:10Z</time>
      </trkpt>
      <trkpt lat="45.5627" lon="6.06441">
        <ele>1434.665916448</ele>
        <time>2015-12-25T15:13:15Z</time>
      </trkpt>
      <trkpt lat="45.56276" lon="6.0644">
        <ele>1430.579639776</ele>
        <time>2015-12-25T15:13:26Z</time>
      </trkpt>
      <trkpt lat="45.56276" lon="6.06438">
        <ele>1430.579639776</ele>
        <time>2015-12-25T15:13:30Z</time>
      </trkpt>
      <trkpt lat="45.56276" lon="6.06439">
        <ele>1430.579639776</ele>
        <time>2015-12-25T15:13:35Z</time>
      </trkpt>
      <trkpt lat="45.56276" lon="6.06438">
        <ele>1430.579639776</ele>
        <time>2015-12-25T15:13:40Z</time>
      </trkpt>
      <trkpt lat="45.56276" lon="6.06438">
        <ele>1430.579639776</ele>
        <time>2015-12-25T15:13:45Z</time>
      </trkpt>
      <trkpt lat="45.56276" lon="6.06439">
        <ele>1430.579639776</ele>
        <time>2015-12-25T15:13:50Z</time>
      </trkpt>
      <trkpt lat="45.56276" lon="6.06439">
        <ele>1430.579639776</ele>
        <time>2015-12-25T15:13:55Z</time>
      </trkpt>
      <trkpt lat="45.56278" lon="6.06436">
        <ele>1430.579639776</ele>
        <time>2015-12-25T15:14:06Z</time>
      </trkpt>
      <trkpt lat="45.5628" lon="6.06435">
        <ele>1430.579639776</ele>
        <time>2015-12-25T15:14:10Z</time>
      </trkpt>
      <trkpt lat="45.5628" lon="6.06433">
        <ele>1430.579639776</ele>
        <time>2015-12-25T15:14:20Z</time>
      </trkpt>
      <trkpt lat="45.5628" lon="6.06432">
        <ele>1430.579639776</ele>
        <time>2015-12-25T15:14:25Z</time>
      </trkpt>
      <trkpt lat="45.56281" lon="6.06433">
        <ele>1430.579639776</ele>
        <time>2015-12-25T15:14:36Z</time>
      </trkpt>
      <trkpt lat="45.56281" lon="6.06433">
        <ele>1430.579639776</ele>
        <time>2015-12-25T15:14:41Z</time>
      </trkpt>
      <trkpt lat="45.56281" lon="6.06433">
        <ele>1430.579639776</ele>
        <time>2015-12-25T15:14:50Z</time>
      </trkpt>
      <trkpt lat="45.56281" lon="6.06433">
        <ele>1430.579639776</ele>
        <time>2015-12-25T15:14:56Z</time>
      </trkpt>
      <trkpt lat="45.56281" lon="6.06433">
        <ele>1430.579639776</ele>
        <time>2015-12-25T15:15:06Z</time>
      </trkpt>
      <trkpt lat="45.56281" lon="6.06433">
        <ele>1430.579639776</ele>
        <time>2015-12-25T15:15:10Z</time>
      </trkpt>
      <trkpt lat="45.56281" lon="6.06433">
        <ele>1430.579639776</ele>
        <time>2015-12-25T15:15:21Z</time>
      </trkpt>
      <trkpt lat="45.56281" lon="6.06433">
        <ele>1430.579639776</ele>
        <time>2015-12-25T15:15:25Z</time>
      </trkpt>
      <trkpt lat="45.56281" lon="6.06433">
        <ele>1430.579639776</ele>
        <time>2015-12-25T15:15:36Z</time>
      </trkpt>
      <trkpt lat="45.56281" lon="6.06433">
        <ele>1430.579639776</ele>
        <time>2015-12-25T15:15:41Z</time>
      </trkpt>
      <trkpt lat="45.5628" lon="6.06431">
        <ele>1426.414693484</ele>
        <time>2015-12-25T15:15:45Z</time>
      </trkpt>
      <trkpt lat="45.56285" lon="6.06427">
        <ele>1426.414693484</ele>
        <time>2015-12-25T15:15:56Z</time>
      </trkpt>
      <trkpt lat="45.56287" lon="6.06425">
        <ele>1426.414693484</ele>
        <time>2015-12-25T15:16:01Z</time>
      </trkpt>
      <trkpt lat="45.56286" lon="6.06421">
        <ele>1421.322517096</ele>
        <time>2015-12-25T15:16:10Z</time>
      </trkpt>
      <trkpt lat="45.56286" lon="6.0642">
        <ele>1421.322517096</ele>
        <time>2015-12-25T15:16:16Z</time>
      </trkpt>
      <trkpt lat="45.56286" lon="6.0642">
        <ele>1421.322517096</ele>
        <time>2015-12-25T15:16:30Z</time>
      </trkpt>
      <trkpt lat="45.56289" lon="6.06416">
        <ele>1421.322517096</ele>
        <time>2015-12-25T15:16:35Z</time>
      </trkpt>
      <trkpt lat="45.56291" lon="6.06417">
        <ele>1421.322517096</ele>
        <time>2015-12-25T15:16:45Z</time>
      </trkpt>
      <trkpt lat="45.56292" lon="6.06417">
        <ele>1421.322517096</ele>
        <time>2015-12-25T15:16:50Z</time>
      </trkpt>
      <trkpt lat="45.5629" lon="6.06413">
        <ele>1416.104613939</ele>
        <time>2015-12-25T15:17:01Z</time>
      </trkpt>
      <trkpt lat="45.5629" lon="6.06413">
        <ele>1416.104613939</ele>
        <time>2015-12-25T15:17:06Z</time>
      </trkpt>
      <trkpt lat="45.56287" lon="6.06413">
        <ele>1416.104613939</ele>
        <time>2015-12-25T15:17:15Z</time>
      </trkpt>
      <trkpt lat="45.56288" lon="6.06412">
        <ele>1416.104613939</ele>
        <time>2015-12-25T15:17:20Z</time>
      </trkpt>
      <trkpt lat="45.56285" lon="6.06405">
        <ele>1411.792062279</ele>
        <time>2015-12-25T15:17:31Z</time>
      </trkpt>
      <trkpt lat="45.56283" lon="6.06407">
        <ele>1411.792062279</ele>
        <time>2015-12-25T15:17:35Z</time>
      </trkpt>
      <trkpt lat="45.5628" lon="6.06404">
        <ele>1411.792062279</ele>
        <time>2015-12-25T15:17:46Z</time>
      </trkpt>
      <trkpt lat="45.5628" lon="6.064">
        <ele>1411.792062279</ele>
        <time>2015-12-25T15:17:50Z</time>
      </trkpt>
      <trkpt lat="45.56283" lon="6.06398">
        <ele>1407.608176544</ele>
        <time>2015-12-25T15:18:01Z</time>
      </trkpt>
      <trkpt lat="45.56285" lon="6.06398">
        <ele>1407.608176544</ele>
        <time>2015-12-25T15:18:06Z</time>
      </trkpt>
      <trkpt lat="45.56277" lon="6.06394">
        <ele>1402.256348113</ele>
        <time>2015-12-25T15:18:20Z</time>
      </trkpt>
      <trkpt lat="45.56274" lon="6.06391">
        <ele>1402.256348113</ele>
        <time>2015-12-25T15:18:25Z</time>
      </trkpt>
      <trkpt lat="45.56271" lon="6.0639">
        <ele>1402.256348113</ele>
        <time>2015-12-25T15:18:36Z</time>
      </trkpt>
      <trkpt lat="45.56271" lon="6.06389">
        <ele>1402.256348113</ele>
        <time>2015-12-25T15:18:41Z</time>
      </trkpt>
      <trkpt lat="45.56272" lon="6.06384">
        <ele>1397.70874575</ele>
        <time>2015-12-25T15:18:51Z</time>
      </trkpt>
      <trkpt lat="45.56272" lon="6.06381">
        <ele>1397.70874575</ele>
        <time>2015-12-25T15:18:56Z</time>
      </trkpt>
      <trkpt lat="45.56269" lon="6.06379">
        <ele>1397.70874575</ele>
        <time>2015-12-25T15:19:06Z</time>
      </trkpt>
      <trkpt lat="45.56271" lon="6.06379">
        <ele>1397.70874575</ele>
        <time>2015-12-25T15:19:11Z</time>
      </trkpt>
      <trkpt lat="45.56282" lon="6.06375">
        <ele>1391.466858816</ele>
        <time>2015-12-25T15:19:26Z</time>
      </trkpt>
      <trkpt lat="45.56284" lon="6.06371">
        <ele>1391.466858816</ele>
        <time>2015-12-25T15:19:31Z</time>
      </trkpt>
      <trkpt lat="45.56282" lon="6.06366">
        <ele>1391.466858816</ele>
        <time>2015-12-25T15:19:42Z</time>
      </trkpt>
      <trkpt lat="45.56284" lon="6.06364">
        <ele>1391.466858816</ele>
        <time>2015-12-25T15:19:45Z</time>
      </trkpt>
      <trkpt lat="45.56282" lon="6.06356">
        <ele>1385.255345862</ele>
        <time>2015-12-25T15:19:56Z</time>
      </trkpt>
      <trkpt lat="45.56283" lon="6.06352">
        <ele>1385.255345862</ele>
        <time>2015-12-25T15:20:00Z</time>
      </trkpt>
      <trkpt lat="45.56284" lon="6.06343">
        <ele>1379.086606836</ele>
        <time>2015-12-25T15:20:11Z</time>
      </trkpt>
      <trkpt lat="45.56285" lon="6.06338">
        <ele>1379.086606836</ele>
        <time>2015-12-25T15:20:15Z</time>
      </trkpt>
      <trkpt lat="45.56285" lon="6.06339">
        <ele>1379.086606836</ele>
        <time>2015-12-25T15:20:26Z</time>
      </trkpt>
      <trkpt lat="45.56285" lon="6.06339">
        <ele>1379.086606836</ele>
        <time>2015-12-25T15:20:31Z</time>
      </trkpt>
      <trkpt lat="45.56285" lon="6.06333">
        <ele>1379.086606836</ele>
        <time>2015-12-25T15:20:40Z</time>
      </trkpt>
      <trkpt lat="45.56285" lon="6.06327">
        <ele>1373.259953305</ele>
        <time>2015-12-25T15:20:45Z</time>
      </trkpt>
      <trkpt lat="45.56283" lon="6.06308">
        <ele>1366.610336152</ele>
        <time>2015-12-25T15:21:00Z</time>
      </trkpt>
      <trkpt lat="45.56281" lon="6.06302">
        <ele>1366.610336152</ele>
        <time>2015-12-25T15:21:06Z</time>
      </trkpt>
      <trkpt lat="45.56283" lon="6.06289">
        <ele>1360.077833205</ele>
        <time>2015-12-25T15:21:15Z</time>
      </trkpt>
      <trkpt lat="45.56284" lon="6.06285">
        <ele>1360.077833205</ele>
        <time>2015-12-25T15:21:20Z</time>
      </trkpt>
      <trkpt lat="45.56284" lon="6.06278">
        <ele>1360.077833205</ele>
        <time>2015-12-25T15:21:31Z</time>
      </trkpt>
      <trkpt lat="45.56284" lon="6.06278">
        <ele>1360.077833205</ele>
        <time>2015-12-25T15:21:35Z</time>
      </trkpt>
      <trkpt lat="45.56284" lon="6.06275">
        <ele>1353.379906641</ele>
        <time>2015-12-25T15:21:46Z</time>
      </trkpt>
      <trkpt lat="45.56286" lon="6.06269">
        <ele>1353.379906641</ele>
        <time>2015-12-25T15:21:50Z</time>
      </trkpt>
      <trkpt lat="45.5629" lon="6.06261">
        <ele>1346.254879726</ele>
        <time>2015-12-25T15:22:01Z</time>
      </trkpt>
      <trkpt lat="45.56291" lon="6.06261">
        <ele>1346.254879726</ele>
        <time>2015-12-25T15:22:06Z</time>
      </trkpt>
      <trkpt lat="45.56299" lon="6.06244">
        <ele>1339.037565779</ele>
        <time>2015-12-25T15:22:20Z</time>
      </trkpt>
      <trkpt lat="45.56305" lon="6.0624">
        <ele>1339.037565779</ele>
        <time>2015-12-25T15:22:25Z</time>
      </trkpt>
      <trkpt lat="45.56311" lon="6.06235">
        <ele>1331.029270858</ele>
        <time>2015-12-25T15:22:36Z</time>
      </trkpt>
      <trkpt lat="45.56313" lon="6.06225">
        <ele>1331.029270858</ele>
        <time>2015-12-25T15:22:40Z</time>
      </trkpt>
      <trkpt lat="45.56316" lon="6.06223">
        <ele>1324.034327156</ele>
        <time>2015-12-25T15:22:45Z</time>
      </trkpt>
      <trkpt lat="45.56317" lon="6.06224">
        <ele>1324.034327156</ele>
        <time>2015-12-25T15:22:50Z</time>
      </trkpt>
      <trkpt lat="45.56317" lon="6.06225">
        <ele>1324.034327156</ele>
        <time>2015-12-25T15:22:55Z</time>
      </trkpt>
      <trkpt lat="45.56317" lon="6.06225">
        <ele>1324.034327156</ele>
        <time>2015-12-25T15:23:00Z</time>
      </trkpt>
      <trkpt lat="45.56317" lon="6.06225">
        <ele>1324.034327156</ele>
        <time>2015-12-25T15:23:05Z</time>
      </trkpt>
      <trkpt lat="45.56317" lon="6.06222">
        <ele>1324.034327156</ele>
        <time>2015-12-25T15:23:10Z</time>
      </trkpt>
      <trkpt lat="45.56319" lon="6.06209">
        <ele>1318.568369893</ele>
        <time>2015-12-25T15:23:22Z</time>
      </trkpt>
      <trkpt lat="45.56318" lon="6.06204">
        <ele>1318.568369893</ele>
        <time>2015-12-25T15:23:25Z</time>
      </trkpt>
      <trkpt lat="45.56321" lon="6.06191">
        <ele>1314.383886602</ele>
        <time>2015-12-25T15:23:41Z</time>
      </trkpt>
      <trkpt lat="45.5632" lon="6.06195">
        <ele>1314.383886602</ele>
        <time>2015-12-25T15:23:51Z</time>
      </trkpt>
      <trkpt lat="45.5632" lon="6.06196">
        <ele>1314.383886602</ele>
        <time>2015-12-25T15:23:55Z</time>
      </trkpt>
      <trkpt lat="45.56319" lon="6.06196">
        <ele>1314.383886602</ele>
        <time>2015-12-25T15:24:01Z</time>
      </trkpt>
      <trkpt lat="45.56317" lon="6.06196">
        <ele>1314.383886602</ele>
        <time>2015-12-25T15:24:10Z</time>
      </trkpt>
      <trkpt lat="45.5631" lon="6.06198">
        <ele>1311.103420909</ele>
        <time>2015-12-25T15:24:15Z</time>
      </trkpt>
      <trkpt lat="45.56303" lon="6.06201">
        <ele>1311.103420909</ele>
        <time>2015-12-25T15:24:25Z</time>
      </trkpt>
      <trkpt lat="45.56302" lon="6.06201">
        <ele>1311.103420909</ele>
        <time>2015-12-25T15:24:30Z</time>
      </trkpt>
      <trkpt lat="45.56304" lon="6.06198">
        <ele>1304.771517312</ele>
        <time>2015-12-25T15:24:41Z</time>
      </trkpt>
      <trkpt lat="45.56305" lon="6.06195">
        <ele>1304.771517312</ele>
        <time>2015-12-25T15:24:45Z</time>
      </trkpt>
      <trkpt lat="45.56306" lon="6.06186">
        <ele>1304.771517312</ele>
        <time>2015-12-25T15:24:55Z</time>
      </trkpt>
      <trkpt lat="45.56308" lon="6.06177">
        <ele>1299.225227604</ele>
        <time>2015-12-25T15:25:01Z</time>
      </trkpt>
      <trkpt lat="45.56307" lon="6.06167">
        <ele>1299.225227604</ele>
        <time>2015-12-25T15:25:11Z</time>
      </trkpt>
      <trkpt lat="45.56304" lon="6.0616">
        <ele>1293.982032244</ele>
        <time>2015-12-25T15:25:15Z</time>
      </trkpt>
      <trkpt lat="45.56298" lon="6.0615">
        <ele>1293.982032244</ele>
        <time>2015-12-25T15:25:25Z</time>
      </trkpt>
      <trkpt lat="45.56298" lon="6.06145">
        <ele>1289.314185833</ele>
        <time>2015-12-25T15:25:31Z</time>
      </trkpt>
      <trkpt lat="45.56296" lon="6.06142">
        <ele>1289.314185833</ele>
        <time>2015-12-25T15:25:40Z</time>
      </trkpt>
      <trkpt lat="45.56297" lon="6.06142">
        <ele>1289.314185833</ele>
        <time>2015-12-25T15:25:46Z</time>
      </trkpt>
      <trkpt lat="45.56297" lon="6.06142">
        <ele>1289.314185833</ele>
        <time>2015-12-25T15:26:00Z</time>
      </trkpt>
      <trkpt lat="45.56294" lon="6.06145">
        <ele>1289.314185833</ele>
        <time>2015-12-25T15:26:06Z</time>
      </trkpt>
      <trkpt lat="45.56282" lon="6.06146">
        <ele>1283.742626078</ele>
        <time>2015-12-25T15:26:16Z</time>
      </trkpt>
      <trkpt lat="45.5628" lon="6.06144">
        <ele>1283.742626078</ele>
        <time>2015-12-25T15:26:20Z</time>
      </trkpt>
      <trkpt lat="45.56274" lon="6.06142">
        <ele>1283.742626078</ele>
        <time>2015-12-25T15:26:31Z</time>
      </trkpt>
      <trkpt lat="45.56276" lon="6.06147">
        <ele>1278.204896398</ele>
        <time>2015-12-25T15:26:35Z</time>
      </trkpt>
      <trkpt lat="45.56271" lon="6.06157">
        <ele>1278.204896398</ele>
        <time>2015-12-25T15:26:46Z</time>
      </trkpt>
      <trkpt lat="45.56269" lon="6.06158">
        <ele>1272.128112241</ele>
        <time>2015-12-25T15:26:51Z</time>
      </trkpt>
      <trkpt lat="45.56269" lon="6.06158">
        <ele>1272.128112241</ele>
        <time>2015-12-25T15:27:01Z</time>
      </trkpt>
      <trkpt lat="45.56269" lon="6.06158">
        <ele>1272.128112241</ele>
        <time>2015-12-25T15:27:05Z</time>
      </trkpt>
      <trkpt lat="45.56268" lon="6.06152">
        <ele>1272.128112241</ele>
        <time>2015-12-25T15:27:15Z</time>
      </trkpt>
      <trkpt lat="45.56266" lon="6.06148">
        <ele>1272.128112241</ele>
        <time>2015-12-25T15:27:21Z</time>
      </trkpt>
      <trkpt lat="45.56265" lon="6.06147">
        <ele>1272.128112241</ele>
        <time>2015-12-25T15:27:30Z</time>
      </trkpt>
      <trkpt lat="45.56265" lon="6.06147">
        <ele>1272.128112241</ele>
        <time>2015-12-25T15:27:36Z</time>
      </trkpt>
      <trkpt lat="45.56265" lon="6.06147">
        <ele>1272.128112241</ele>
        <time>2015-12-25T15:27:46Z</time>
      </trkpt>
      <trkpt lat="45.56265" lon="6.06147">
        <ele>1272.128112241</ele>
        <time>2015-12-25T15:27:50Z</time>
      </trkpt>
      <trkpt lat="45.56254" lon="6.06139">
        <ele>1266.279643753</ele>
        <time>2015-12-25T15:28:05Z</time>
      </trkpt>
      <trkpt lat="45.56251" lon="6.06134">
        <ele>1266.279643753</ele>
        <time>2015-12-25T15:28:11Z</time>
      </trkpt>
      <trkpt lat="45.56245" lon="6.06126">
        <ele>1260.21662524</ele>
        <time>2015-12-25T15:28:20Z</time>
      </trkpt>
      <trkpt lat="45.56244" lon="6.06124">
        <ele>1260.21662524</ele>
        <time>2015-12-25T15:28:25Z</time>
      </trkpt>
      <trkpt lat="45.56245" lon="6.06114">
        <ele>1260.21662524</ele>
        <time>2015-12-25T15:28:36Z</time>
      </trkpt>
      <trkpt lat="45.56246" lon="6.06106">
        <ele>1253.817217839</ele>
        <time>2015-12-25T15:28:40Z</time>
      </trkpt>
      <trkpt lat="45.56249" lon="6.06094">
        <ele>1248.26615334</ele>
        <time>2015-12-25T15:28:51Z</time>
      </trkpt>
      <trkpt lat="45.56248" lon="6.06093">
        <ele>1248.26615334</ele>
        <time>2015-12-25T15:28:55Z</time>
      </trkpt>
      <trkpt lat="45.56247" lon="6.06087">
        <ele>1248.26615334</ele>
        <time>2015-12-25T15:29:06Z</time>
      </trkpt>
      <trkpt lat="45.56247" lon="6.06083">
        <ele>1248.26615334</ele>
        <time>2015-12-25T15:29:10Z</time>
      </trkpt>
      <trkpt lat="45.56243" lon="6.06072">
        <ele>1243.217326596</ele>
        <time>2015-12-25T15:29:20Z</time>
      </trkpt>
      <trkpt lat="45.56242" lon="6.06072">
        <ele>1243.217326596</ele>
        <time>2015-12-25T15:29:25Z</time>
      </trkpt>
      <trkpt lat="45.56242" lon="6.06072">
        <ele>1243.217326596</ele>
        <time>2015-12-25T15:29:30Z</time>
      </trkpt>
      <trkpt lat="45.56242" lon="6.06072">
        <ele>1243.217326596</ele>
        <time>2015-12-25T15:29:36Z</time>
      </trkpt>
      <trkpt lat="45.56242" lon="6.06072">
        <ele>1243.217326596</ele>
        <time>2015-12-25T15:29:41Z</time>
      </trkpt>
      <trkpt lat="45.56231" lon="6.06068">
        <ele>1238.348342625</ele>
        <time>2015-12-25T15:29:56Z</time>
      </trkpt>
      <trkpt lat="45.56229" lon="6.06067">
        <ele>1238.348342625</ele>
        <time>2015-12-25T15:30:01Z</time>
      </trkpt>
      <trkpt lat="45.56228" lon="6.06063">
        <ele>1238.348342625</ele>
        <time>2015-12-25T15:30:05Z</time>
      </trkpt>
      <trkpt lat="45.56225" lon="6.06062">
        <ele>1238.348342625</ele>
        <time>2015-12-25T15:30:10Z</time>
      </trkpt>
      <trkpt lat="45.56224" lon="6.06061">
        <ele>1238.348342625</ele>
        <time>2015-12-25T15:30:15Z</time>
      </trkpt>
      <trkpt lat="45.56224" lon="6.0606">
        <ele>1233.647914698</ele>
        <time>2015-12-25T15:30:21Z</time>
      </trkpt>
      <trkpt lat="45.56224" lon="6.06052">
        <ele>1233.647914698</ele>
        <time>2015-12-25T15:30:31Z</time>
      </trkpt>
      <trkpt lat="45.56222" lon="6.06048">
        <ele>1228.81661299</ele>
        <time>2015-12-25T15:30:36Z</time>
      </trkpt>
      <trkpt lat="45.56221" lon="6.06031">
        <ele>1225.01822355</ele>
        <time>2015-12-25T15:30:50Z</time>
      </trkpt>
      <trkpt lat="45.56224" lon="6.06024">
        <ele>1225.01822355</ele>
        <time>2015-12-25T15:30:56Z</time>
      </trkpt>
      <trkpt lat="45.56227" lon="6.06015">
        <ele>1220.445679463</ele>
        <time>2015-12-25T15:31:05Z</time>
      </trkpt>
      <trkpt lat="45.56228" lon="6.06009">
        <ele>1220.445679463</ele>
        <time>2015-12-25T15:31:11Z</time>
      </trkpt>
      <trkpt lat="45.56233" lon="6.05999">
        <ele>1216.020610227</ele>
        <time>2015-12-25T15:31:21Z</time>
      </trkpt>
      <trkpt lat="45.56234" lon="6.05997">
        <ele>1216.020610227</ele>
        <time>2015-12-25T15:31:25Z</time>
      </trkpt>
      <trkpt lat="45.56233" lon="6.05985">
        <ele>1211.587547016</ele>
        <time>2015-12-25T15:31:36Z</time>
      </trkpt>
      <trkpt lat="45.56233" lon="6.05984">
        <ele>1211.587547016</ele>
        <time>2015-12-25T15:31:40Z</time>
      </trkpt>
      <trkpt lat="45.56234" lon="6.05979">
        <ele>1211.587547016</ele>
        <time>2015-12-25T15:31:51Z</time>
      </trkpt>
      <trkpt lat="45.56235" lon="6.05975">
        <ele>1211.587547016</ele>
        <time>2015-12-25T15:31:55Z</time>
      </trkpt>
      <trkpt lat="45.56237" lon="6.05956">
        <ele>1206.569943161</ele>
        <time>2015-12-25T15:32:10Z</time>
      </trkpt>
      <trkpt lat="45.56237" lon="6.05951">
        <ele>1206.569943161</ele>
        <time>2015-12-25T15:32:16Z</time>
      </trkpt>
      <trkpt lat="45.56241" lon="6.05942">
        <ele>1201.443849542</ele>
        <time>2015-12-25T15:32:25Z</time>
      </trkpt>
      <trkpt lat="45.56241" lon="6.05937">
        <ele>1201.443849542</ele>
        <time>2015-12-25T15:32:30Z</time>
      </trkpt>
      <trkpt lat="45.56246" lon="6.05926">
        <ele>1196.650490832</ele>
        <time>2015-12-25T15:32:41Z</time>
      </trkpt>
      <trkpt lat="45.56247" lon="6.05925">
        <ele>1196.650490832</ele>
        <time>2015-12-25T15:32:46Z</time>
      </trkpt>
      <trkpt lat="45.56254" lon="6.05915">
        <ele>1191.444707599</ele>
        <time>2015-12-25T15:32:56Z</time>
      </trkpt>
      <trkpt lat="45.56254" lon="6.05915">
        <ele>1191.444707599</ele>
        <time>2015-12-25T15:33:01Z</time>
      </trkpt>
      <trkpt lat="45.56262" lon="6.05917">
        <ele>1191.444707599</ele>
        <time>2015-12-25T15:33:11Z</time>
      </trkpt>
      <trkpt lat="45.56264" lon="6.05916">
        <ele>1185.857651908</ele>
        <time>2015-12-25T15:33:16Z</time>
      </trkpt>
      <trkpt lat="45.56271" lon="6.05914">
        <ele>1185.857651908</ele>
        <time>2015-12-25T15:33:25Z</time>
      </trkpt>
      <trkpt lat="45.56271" lon="6.05916">
        <ele>1185.857651908</ele>
        <time>2015-12-25T15:33:30Z</time>
      </trkpt>
      <trkpt lat="45.56276" lon="6.0592">
        <ele>1181.360238137</ele>
        <time>2015-12-25T15:33:45Z</time>
      </trkpt>
      <trkpt lat="45.56276" lon="6.05921">
        <ele>1181.360238137</ele>
        <time>2015-12-25T15:33:50Z</time>
      </trkpt>
      <trkpt lat="45.56276" lon="6.05921">
        <ele>1181.360238137</ele>
        <time>2015-12-25T15:34:00Z</time>
      </trkpt>
      <trkpt lat="45.56276" lon="6.05921">
        <ele>1181.360238137</ele>
        <time>2015-12-25T15:34:06Z</time>
      </trkpt>
      <trkpt lat="45.56276" lon="6.05921">
        <ele>1181.360238137</ele>
        <time>2015-12-25T15:34:16Z</time>
      </trkpt>
      <trkpt lat="45.56276" lon="6.05921">
        <ele>1181.360238137</ele>
        <time>2015-12-25T15:34:20Z</time>
      </trkpt>
      <trkpt lat="45.56275" lon="6.05918">
        <ele>1181.360238137</ele>
        <time>2015-12-25T15:34:30Z</time>
      </trkpt>
      <trkpt lat="45.56272" lon="6.05912">
        <ele>1181.360238137</ele>
        <time>2015-12-25T15:34:36Z</time>
      </trkpt>
      <trkpt lat="45.56263" lon="6.05904">
        <ele>1177.438706423</ele>
        <time>2015-12-25T15:34:46Z</time>
      </trkpt>
      <trkpt lat="45.56264" lon="6.05904">
        <ele>1177.438706423</ele>
        <time>2015-12-25T15:34:51Z</time>
      </trkpt>
      <trkpt lat="45.56261" lon="6.05898">
        <ele>1177.438706423</ele>
        <time>2015-12-25T15:35:00Z</time>
      </trkpt>
      <trkpt lat="45.56259" lon="6.05898">
        <ele>1177.438706423</ele>
        <time>2015-12-25T15:35:05Z</time>
      </trkpt>
      <trkpt lat="45.56257" lon="6.05897">
        <ele>1174.047648454</ele>
        <time>2015-12-25T15:35:16Z</time>
      </trkpt>
      <trkpt lat="45.56255" lon="6.05897">
        <ele>1174.047648454</ele>
        <time>2015-12-25T15:35:20Z</time>
      </trkpt>
      <trkpt lat="45.56253" lon="6.05894">
        <ele>1174.047648454</ele>
        <time>2015-12-25T15:35:36Z</time>
      </trkpt>
      <trkpt lat="45.56253" lon="6.05893">
        <ele>1174.047648454</ele>
        <time>2015-12-25T15:35:40Z</time>
      </trkpt>
      <trkpt lat="45.56253" lon="6.05893">
        <ele>1174.047648454</ele>
        <time>2015-12-25T15:35:51Z</time>
      </trkpt>
      <trkpt lat="45.56253" lon="6.05893">
        <ele>1174.047648454</ele>
        <time>2015-12-25T15:35:55Z</time>
      </trkpt>
      <trkpt lat="45.56253" lon="6.05893">
        <ele>1174.047648454</ele>
        <time>2015-12-25T15:36:06Z</time>
      </trkpt>
      <trkpt lat="45.56253" lon="6.05893">
        <ele>1174.047648454</ele>
        <time>2015-12-25T15:36:11Z</time>
      </trkpt>
      <trkpt lat="45.56253" lon="6.05893">
        <ele>1174.047648454</ele>
        <time>2015-12-25T15:36:21Z</time>
      </trkpt>
      <trkpt lat="45.56252" lon="6.05893">
        <ele>1174.047648454</ele>
        <time>2015-12-25T15:36:26Z</time>
      </trkpt>
      <trkpt lat="45.56252" lon="6.05892">
        <ele>1174.047648454</ele>
        <time>2015-12-25T15:36:30Z</time>
      </trkpt>
      <trkpt lat="45.56251" lon="6.05891">
        <ele>1174.047648454</ele>
        <time>2015-12-25T15:36:35Z</time>
      </trkpt>
      <trkpt lat="45.56251" lon="6.05891">
        <ele>1174.047648454</ele>
        <time>2015-12-25T15:36:40Z</time>
      </trkpt>
      <trkpt lat="45.56251" lon="6.05891">
        <ele>1174.047648454</ele>
        <time>2015-12-25T15:36:46Z</time>
      </trkpt>
      <trkpt lat="45.56251" lon="6.05891">
        <ele>1174.047648454</ele>
        <time>2015-12-25T15:36:56Z</time>
      </trkpt>
      <trkpt lat="45.56251" lon="6.05891">
        <ele>1174.047648454</ele>
        <time>2015-12-25T15:37:00Z</time>
      </trkpt>
      <trkpt lat="45.56251" lon="6.05891">
        <ele>1174.047648454</ele>
        <time>2015-12-25T15:37:10Z</time>
      </trkpt>
      <trkpt lat="45.56251" lon="6.05891">
        <ele>1174.047648454</ele>
        <time>2015-12-25T15:37:15Z</time>
      </trkpt>
      <trkpt lat="45.56241" lon="6.0589">
        <ele>1170.711078893</ele>
        <time>2015-12-25T15:37:26Z</time>
      </trkpt>
      <trkpt lat="45.56238" lon="6.0589">
        <ele>1170.711078893</ele>
        <time>2015-12-25T15:37:31Z</time>
      </trkpt>
      <trkpt lat="45.56227" lon="6.05889">
        <ele>1167.275974974</ele>
        <time>2015-12-25T15:37:41Z</time>
      </trkpt>
      <trkpt lat="45.56224" lon="6.05887">
        <ele>1167.275974974</ele>
        <time>2015-12-25T15:37:45Z</time>
      </trkpt>
      <trkpt lat="45.56217" lon="6.05888">
        <ele>1164.177223238</ele>
        <time>2015-12-25T15:37:56Z</time>
      </trkpt>
      <trkpt lat="45.56214" lon="6.0589">
        <ele>1164.177223238</ele>
        <time>2015-12-25T15:38:00Z</time>
      </trkpt>
      <trkpt lat="45.56207" lon="6.05898">
        <ele>1161.960899595</ele>
        <time>2015-12-25T15:38:16Z</time>
      </trkpt>
      <trkpt lat="45.56202" lon="6.05901">
        <ele>1161.960899595</ele>
        <time>2015-12-25T15:38:20Z</time>
      </trkpt>
      <trkpt lat="45.56191" lon="6.05911">
        <ele>1159.833479281</ele>
        <time>2015-12-25T15:38:30Z</time>
      </trkpt>
      <trkpt lat="45.56186" lon="6.05919">
        <ele>1159.833479281</ele>
        <time>2015-12-25T15:38:36Z</time>
      </trkpt>
      <trkpt lat="45.56177" lon="6.05929">
        <ele>1157.635936547</ele>
        <time>2015-12-25T15:38:45Z</time>
      </trkpt>
      <trkpt lat="45.56174" lon="6.05933">
        <ele>1157.635936547</ele>
        <time>2015-12-25T15:38:51Z</time>
      </trkpt>
      <trkpt lat="45.5617" lon="6.05937">
        <ele>1155.941715639</ele>
        <time>2015-12-25T15:39:01Z</time>
      </trkpt>
      <trkpt lat="45.56169" lon="6.05939">
        <ele>1155.941715639</ele>
        <time>2015-12-25T15:39:06Z</time>
      </trkpt>
      <trkpt lat="45.56164" lon="6.05941">
        <ele>1155.941715639</ele>
        <time>2015-12-25T15:39:16Z</time>
      </trkpt>
      <trkpt lat="45.5616" lon="6.05946">
        <ele>1154.560227807</ele>
        <time>2015-12-25T15:39:21Z</time>
      </trkpt>
      <trkpt lat="45.56152" lon="6.05953">
        <ele>1153.602313862</ele>
        <time>2015-12-25T15:39:31Z</time>
      </trkpt>
      <trkpt lat="45.56147" lon="6.05958">
        <ele>1153.602313862</ele>
        <time>2015-12-25T15:39:36Z</time>
      </trkpt>
      <trkpt lat="45.56137" lon="6.05964">
        <ele>1152.737259052</ele>
        <time>2015-12-25T15:39:45Z</time>
      </trkpt>
      <trkpt lat="45.56136" lon="6.05968">
        <ele>1152.737259052</ele>
        <time>2015-12-25T15:39:51Z</time>
      </trkpt>
      <trkpt lat="45.56134" lon="6.05969">
        <ele>1152.737259052</ele>
        <time>2015-12-25T15:40:01Z</time>
      </trkpt>
      <trkpt lat="45.56134" lon="6.05969">
        <ele>1152.737259052</ele>
        <time>2015-12-25T15:40:05Z</time>
      </trkpt>
      <trkpt lat="45.56124" lon="6.05972">
        <ele>1151.226180704</ele>
        <time>2015-12-25T15:40:16Z</time>
      </trkpt>
      <trkpt lat="45.56121" lon="6.05974">
        <ele>1151.226180704</ele>
        <time>2015-12-25T15:40:21Z</time>
      </trkpt>
      <trkpt lat="45.56117" lon="6.05979">
        <ele>1150.115774851</ele>
        <time>2015-12-25T15:40:31Z</time>
      </trkpt>
      <trkpt lat="45.5611" lon="6.05982">
        <ele>1150.115774851</ele>
        <time>2015-12-25T15:40:35Z</time>
      </trkpt>
      <trkpt lat="45.56095" lon="6.05986">
        <ele>1149.222009787</ele>
        <time>2015-12-25T15:40:50Z</time>
      </trkpt>
      <trkpt lat="45.56087" lon="6.05985">
        <ele>1149.222009787</ele>
        <time>2015-12-25T15:40:56Z</time>
      </trkpt>
      <trkpt lat="45.5608" lon="6.05994">
        <ele>1149.382738764</ele>
        <time>2015-12-25T15:41:06Z</time>
      </trkpt>
      <trkpt lat="45.56075" lon="6.05997">
        <ele>1149.382738764</ele>
        <time>2015-12-25T15:41:11Z</time>
      </trkpt>
      <trkpt lat="45.56069" lon="6.05994">
        <ele>1150.362747638</ele>
        <time>2015-12-25T15:41:21Z</time>
      </trkpt>
      <trkpt lat="45.56061" lon="6.05987">
        <ele>1151.365598566</ele>
        <time>2015-12-25T15:41:26Z</time>
      </trkpt>
      <trkpt lat="45.56056" lon="6.05978">
        <ele>1151.365598566</ele>
        <time>2015-12-25T15:41:36Z</time>
      </trkpt>
      <trkpt lat="45.56061" lon="6.05971">
        <ele>1152.374116973</ele>
        <time>2015-12-25T15:41:41Z</time>
      </trkpt>
      <trkpt lat="45.56069" lon="6.05955">
        <ele>1153.660887958</ele>
        <time>2015-12-25T15:41:50Z</time>
      </trkpt>
      <trkpt lat="45.56069" lon="6.05949">
        <ele>1153.660887958</ele>
        <time>2015-12-25T15:41:55Z</time>
      </trkpt>
      <trkpt lat="45.56065" lon="6.05936">
        <ele>1151.731112418</ele>
        <time>2015-12-25T15:42:11Z</time>
      </trkpt>
      <trkpt lat="45.56063" lon="6.05927">
        <ele>1151.731112418</ele>
        <time>2015-12-25T15:42:16Z</time>
      </trkpt>
      <trkpt lat="45.5606" lon="6.05919">
        <ele>1150.12928949</ele>
        <time>2015-12-25T15:42:26Z</time>
      </trkpt>
      <trkpt lat="45.56057" lon="6.05914">
        <ele>1150.12928949</ele>
        <time>2015-12-25T15:42:31Z</time>
      </trkpt>
      <trkpt lat="45.5605" lon="6.05907">
        <ele>1147.239169638</ele>
        <time>2015-12-25T15:42:41Z</time>
      </trkpt>
      <trkpt lat="45.56046" lon="6.05896">
        <ele>1147.239169638</ele>
        <time>2015-12-25T15:42:45Z</time>
      </trkpt>
      <trkpt lat="45.56044" lon="6.05883">
        <ele>1143.872947064</ele>
        <time>2015-12-25T15:42:55Z</time>
      </trkpt>
      <trkpt lat="45.56043" lon="6.05877">
        <ele>1143.872947064</ele>
        <time>2015-12-25T15:43:01Z</time>
      </trkpt>
      <trkpt lat="45.5604" lon="6.05865">
        <ele>1139.487795187</ele>
        <time>2015-12-25T15:43:10Z</time>
      </trkpt>
      <trkpt lat="45.56038" lon="6.05858">
        <ele>1139.487795187</ele>
        <time>2015-12-25T15:43:15Z</time>
      </trkpt>
      <trkpt lat="45.56028" lon="6.05851">
        <ele>1135.169132777</ele>
        <time>2015-12-25T15:43:25Z</time>
      </trkpt>
      <trkpt lat="45.56026" lon="6.05848">
        <ele>1135.169132777</ele>
        <time>2015-12-25T15:43:30Z</time>
      </trkpt>
      <trkpt lat="45.56019" lon="6.05835">
        <ele>1131.92272498</ele>
        <time>2015-12-25T15:43:41Z</time>
      </trkpt>
      <trkpt lat="45.56017" lon="6.05828">
        <ele>1131.92272498</ele>
        <time>2015-12-25T15:43:45Z</time>
      </trkpt>
      <trkpt lat="45.56017" lon="6.05823">
        <ele>1131.92272498</ele>
        <time>2015-12-25T15:43:55Z</time>
      </trkpt>
      <trkpt lat="45.56017" lon="6.05823">
        <ele>1129.380692312</ele>
        <time>2015-12-25T15:44:01Z</time>
      </trkpt>
      <trkpt lat="45.56007" lon="6.05816">
        <ele>1128.065101792</ele>
        <time>2015-12-25T15:44:10Z</time>
      </trkpt>
      <trkpt lat="45.56003" lon="6.05808">
        <ele>1128.065101792</ele>
        <time>2015-12-25T15:44:16Z</time>
      </trkpt>
      <trkpt lat="45.56" lon="6.05803">
        <ele>1126.43889387</ele>
        <time>2015-12-25T15:44:26Z</time>
      </trkpt>
      <trkpt lat="45.56" lon="6.05798">
        <ele>1126.43889387</ele>
        <time>2015-12-25T15:44:31Z</time>
      </trkpt>
      <trkpt lat="45.55998" lon="6.05781">
        <ele>1123.511338963</ele>
        <time>2015-12-25T15:44:40Z</time>
      </trkpt>
      <trkpt lat="45.55995" lon="6.05774">
        <ele>1123.511338963</ele>
        <time>2015-12-25T15:44:45Z</time>
      </trkpt>
      <trkpt lat="45.55996" lon="6.0576">
        <ele>1120.530011082</ele>
        <time>2015-12-25T15:45:00Z</time>
      </trkpt>
      <trkpt lat="45.55997" lon="6.05758">
        <ele>1120.530011082</ele>
        <time>2015-12-25T15:45:05Z</time>
      </trkpt>
      <trkpt lat="45.55996" lon="6.05746">
        <ele>1117.065963975</ele>
        <time>2015-12-25T15:45:15Z</time>
      </trkpt>
      <trkpt lat="45.55995" lon="6.05738">
        <ele>1117.065963975</ele>
        <time>2015-12-25T15:45:21Z</time>
      </trkpt>
      <trkpt lat="45.55995" lon="6.05726">
        <ele>1113.299744696</ele>
        <time>2015-12-25T15:45:30Z</time>
      </trkpt>
      <trkpt lat="45.55994" lon="6.05718">
        <ele>1113.299744696</ele>
        <time>2015-12-25T15:45:36Z</time>
      </trkpt>
      <trkpt lat="45.55996" lon="6.05704">
        <ele>1110.264321454</ele>
        <time>2015-12-25T15:45:46Z</time>
      </trkpt>
      <trkpt lat="45.55996" lon="6.05701">
        <ele>1110.264321454</ele>
        <time>2015-12-25T15:45:50Z</time>
      </trkpt>
      <trkpt lat="45.55995" lon="6.05699">
        <ele>1110.264321454</ele>
        <time>2015-12-25T15:46:00Z</time>
      </trkpt>
      <trkpt lat="45.55997" lon="6.05694">
        <ele>1110.264321454</ele>
        <time>2015-12-25T15:46:06Z</time>
      </trkpt>
      <trkpt lat="45.55997" lon="6.05696">
        <ele>1107.617885626</ele>
        <time>2015-12-25T15:46:16Z</time>
      </trkpt>
      <trkpt lat="45.55998" lon="6.05694">
        <ele>1107.617885626</ele>
        <time>2015-12-25T15:46:20Z</time>
      </trkpt>
      <trkpt lat="45.55995" lon="6.05681">
        <ele>1104.754565768</ele>
        <time>2015-12-25T15:46:35Z</time>
      </trkpt>
      <trkpt lat="45.55992" lon="6.05673">
        <ele>1104.754565768</ele>
        <time>2015-12-25T15:46:41Z</time>
      </trkpt>
      <trkpt lat="45.5599" lon="6.05664">
        <ele>1101.546069201</ele>
        <time>2015-12-25T15:46:51Z</time>
      </trkpt>
      <trkpt lat="45.5599" lon="6.05661">
        <ele>1101.546069201</ele>
        <time>2015-12-25T15:46:55Z</time>
      </trkpt>
      <trkpt lat="45.55994" lon="6.05643">
        <ele>1098.739283028</ele>
        <time>2015-12-25T15:47:06Z</time>
      </trkpt>
      <trkpt lat="45.55994" lon="6.05641">
        <ele>1098.739283028</ele>
        <time>2015-12-25T15:47:11Z</time>
      </trkpt>
      <trkpt lat="45.55994" lon="6.05627">
        <ele>1096.448768514</ele>
        <time>2015-12-25T15:47:21Z</time>
      </trkpt>
      <trkpt lat="45.55994" lon="6.0562">
        <ele>1096.448768514</ele>
        <time>2015-12-25T15:47:25Z</time>
      </trkpt>
      <trkpt lat="45.55995" lon="6.05609">
        <ele>1092.761768222</ele>
        <time>2015-12-25T15:47:36Z</time>
      </trkpt>
      <trkpt lat="45.55996" lon="6.05606">
        <ele>1092.761768222</ele>
        <time>2015-12-25T15:47:40Z</time>
      </trkpt>
      <trkpt lat="45.55997" lon="6.05594">
        <ele>1088.936377967</ele>
        <time>2015-12-25T15:47:51Z</time>
      </trkpt>
      <trkpt lat="45.55996" lon="6.05586">
        <ele>1088.936377967</ele>
        <time>2015-12-25T15:47:55Z</time>
      </trkpt>
      <trkpt lat="45.55995" lon="6.05573">
        <ele>1085.129964508</ele>
        <time>2015-12-25T15:48:06Z</time>
      </trkpt>
      <trkpt lat="45.55995" lon="6.05567">
        <ele>1085.129964508</ele>
        <time>2015-12-25T15:48:10Z</time>
      </trkpt>
      <trkpt lat="45.55993" lon="6.05552">
        <ele>1081.632459849</ele>
        <time>2015-12-25T15:48:20Z</time>
      </trkpt>
      <trkpt lat="45.55992" lon="6.05547">
        <ele>1081.632459849</ele>
        <time>2015-12-25T15:48:25Z</time>
      </trkpt>
      <trkpt lat="45.55983" lon="6.05529">
        <ele>1078.711686111</ele>
        <time>2015-12-25T15:48:41Z</time>
      </trkpt>
      <trkpt lat="45.55982" lon="6.05523">
        <ele>1078.711686111</ele>
        <time>2015-12-25T15:48:45Z</time>
      </trkpt>
      <trkpt lat="45.5598" lon="6.05513">
        <ele>1075.749550906</ele>
        <time>2015-12-25T15:48:55Z</time>
      </trkpt>
      <trkpt lat="45.55981" lon="6.05506">
        <ele>1075.749550906</ele>
        <time>2015-12-25T15:49:00Z</time>
      </trkpt>
      <trkpt lat="45.55979" lon="6.05493">
        <ele>1072.894075006</ele>
        <time>2015-12-25T15:49:11Z</time>
      </trkpt>
      <trkpt lat="45.55978" lon="6.05487">
        <ele>1072.894075006</ele>
        <time>2015-12-25T15:49:16Z</time>
      </trkpt>
      <trkpt lat="45.55977" lon="6.05479">
        <ele>1069.129246386</ele>
        <time>2015-12-25T15:49:27Z</time>
      </trkpt>
      <trkpt lat="45.55974" lon="6.05471">
        <ele>1069.129246386</ele>
        <time>2015-12-25T15:49:30Z</time>
      </trkpt>
      <trkpt lat="45.55968" lon="6.05455">
        <ele>1065.677929827</ele>
        <time>2015-12-25T15:49:41Z</time>
      </trkpt>
      <trkpt lat="45.55968" lon="6.05451">
        <ele>1065.677929827</ele>
        <time>2015-12-25T15:49:45Z</time>
      </trkpt>
      <trkpt lat="45.55964" lon="6.05435">
        <ele>1062.807628888</ele>
        <time>2015-12-25T15:49:55Z</time>
      </trkpt>
      <trkpt lat="45.55962" lon="6.0543">
        <ele>1062.807628888</ele>
        <time>2015-12-25T15:50:00Z</time>
      </trkpt>
      <trkpt lat="45.55961" lon="6.05414">
        <ele>1060.620466523</ele>
        <time>2015-12-25T15:50:11Z</time>
      </trkpt>
      <trkpt lat="45.55958" lon="6.05413">
        <ele>1060.620466523</ele>
        <time>2015-12-25T15:50:15Z</time>
      </trkpt>
      <trkpt lat="45.55953" lon="6.05397">
        <ele>1057.768042481</ele>
        <time>2015-12-25T15:50:26Z</time>
      </trkpt>
      <trkpt lat="45.55954" lon="6.05389">
        <ele>1057.768042481</ele>
        <time>2015-12-25T15:50:31Z</time>
      </trkpt>
      <trkpt lat="45.55951" lon="6.05379">
        <ele>1053.723434018</ele>
        <time>2015-12-25T15:50:41Z</time>
      </trkpt>
      <trkpt lat="45.5595" lon="6.05371">
        <ele>1053.723434018</ele>
        <time>2015-12-25T15:50:45Z</time>
      </trkpt>
      <trkpt lat="45.55948" lon="6.0535">
        <ele>1050.019325349</ele>
        <time>2015-12-25T15:51:01Z</time>
      </trkpt>
      <trkpt lat="45.55947" lon="6.05343">
        <ele>1050.019325349</ele>
        <time>2015-12-25T15:51:06Z</time>
      </trkpt>
      <trkpt lat="45.55945" lon="6.05326">
        <ele>1046.921959849</ele>
        <time>2015-12-25T15:51:16Z</time>
      </trkpt>
      <trkpt lat="45.55946" lon="6.05316">
        <ele>1046.921959849</ele>
        <time>2015-12-25T15:51:20Z</time>
      </trkpt>
      <trkpt lat="45.55953" lon="6.05304">
        <ele>1044.388086777</ele>
        <time>2015-12-25T15:51:31Z</time>
      </trkpt>
      <trkpt lat="45.55953" lon="6.05298">
        <ele>1044.388086777</ele>
        <time>2015-12-25T15:51:36Z</time>
      </trkpt>
      <trkpt lat="45.55952" lon="6.05284">
        <ele>1041.511368731</ele>
        <time>2015-12-25T15:51:45Z</time>
      </trkpt>
      <trkpt lat="45.55952" lon="6.05282">
        <ele>1041.511368731</ele>
        <time>2015-12-25T15:51:51Z</time>
      </trkpt>
      <trkpt lat="45.55952" lon="6.05281">
        <ele>1041.511368731</ele>
        <time>2015-12-25T15:52:00Z</time>
      </trkpt>
      <trkpt lat="45.55952" lon="6.05284">
        <ele>1041.511368731</ele>
        <time>2015-12-25T15:52:06Z</time>
      </trkpt>
      <trkpt lat="45.55953" lon="6.05283">
        <ele>1041.511368731</ele>
        <time>2015-12-25T15:52:15Z</time>
      </trkpt>
      <trkpt lat="45.55953" lon="6.05284">
        <ele>1041.511368731</ele>
        <time>2015-12-25T15:52:20Z</time>
      </trkpt>
      <trkpt lat="45.55953" lon="6.05284">
        <ele>1041.511368731</ele>
        <time>2015-12-25T15:52:30Z</time>
      </trkpt>
      <trkpt lat="45.55953" lon="6.05284">
        <ele>1041.511368731</ele>
        <time>2015-12-25T15:52:36Z</time>
      </trkpt>
      <trkpt lat="45.55952" lon="6.0528">
        <ele>1041.511368731</ele>
        <time>2015-12-25T15:52:46Z</time>
      </trkpt>
      <trkpt lat="45.55949" lon="6.05274">
        <ele>1039.326437693</ele>
        <time>2015-12-25T15:52:50Z</time>
      </trkpt>
      <trkpt lat="45.55945" lon="6.05268">
        <ele>1039.326437693</ele>
        <time>2015-12-25T15:53:00Z</time>
      </trkpt>
      <trkpt lat="45.5594" lon="6.05261">
        <ele>1036.916521142</ele>
        <time>2015-12-25T15:53:05Z</time>
      </trkpt>
      <trkpt lat="45.55929" lon="6.05252">
        <ele>1033.721031542</ele>
        <time>2015-12-25T15:53:20Z</time>
      </trkpt>
      <trkpt lat="45.55925" lon="6.05248">
        <ele>1033.721031542</ele>
        <time>2015-12-25T15:53:26Z</time>
      </trkpt>
      <trkpt lat="45.55917" lon="6.05238">
        <ele>1030.952086719</ele>
        <time>2015-12-25T15:53:36Z</time>
      </trkpt>
      <trkpt lat="45.55913" lon="6.05236">
        <ele>1030.952086719</ele>
        <time>2015-12-25T15:53:41Z</time>
      </trkpt>
      <trkpt lat="45.55905" lon="6.05237">
        <ele>1028.434554188</ele>
        <time>2015-12-25T15:53:51Z</time>
      </trkpt>
      <trkpt lat="45.55902" lon="6.05235">
        <ele>1028.434554188</ele>
        <time>2015-12-25T15:53:55Z</time>
      </trkpt>
      <trkpt lat="45.55888" lon="6.05228">
        <ele>1026.43778431</ele>
        <time>2015-12-25T15:54:05Z</time>
      </trkpt>
      <trkpt lat="45.55882" lon="6.05222">
        <ele>1026.43778431</ele>
        <time>2015-12-25T15:54:10Z</time>
      </trkpt>
      <trkpt lat="45.55876" lon="6.05209">
        <ele>1024.633427609</ele>
        <time>2015-12-25T15:54:20Z</time>
      </trkpt>
      <trkpt lat="45.55874" lon="6.05203">
        <ele>1024.633427609</ele>
        <time>2015-12-25T15:54:26Z</time>
      </trkpt>
      <trkpt lat="45.55871" lon="6.05193">
        <ele>1023.004934651</ele>
        <time>2015-12-25T15:54:35Z</time>
      </trkpt>
      <trkpt lat="45.55868" lon="6.05186">
        <ele>1023.004934651</ele>
        <time>2015-12-25T15:54:40Z</time>
      </trkpt>
      <trkpt lat="45.55868" lon="6.05166">
        <ele>1021.392371065</ele>
        <time>2015-12-25T15:54:55Z</time>
      </trkpt>
      <trkpt lat="45.55869" lon="6.05149">
        <ele>1019.071072143</ele>
        <time>2015-12-25T15:55:06Z</time>
      </trkpt>
      <trkpt lat="45.55868" lon="6.05141">
        <ele>1019.071072143</ele>
        <time>2015-12-25T15:55:11Z</time>
      </trkpt>
      <trkpt lat="45.55866" lon="6.05118">
        <ele>1016.668611149</ele>
        <time>2015-12-25T15:55:25Z</time>
      </trkpt>
      <trkpt lat="45.55865" lon="6.0511">
        <ele>1016.668611149</ele>
        <time>2015-12-25T15:55:30Z</time>
      </trkpt>
      <trkpt lat="45.55859" lon="6.051">
        <ele>1014.478485448</ele>
        <time>2015-12-25T15:55:41Z</time>
      </trkpt>
      <trkpt lat="45.55856" lon="6.05098">
        <ele>1014.478485448</ele>
        <time>2015-12-25T15:55:46Z</time>
      </trkpt>
      <trkpt lat="45.55856" lon="6.05087">
        <ele>1012.916171218</ele>
        <time>2015-12-25T15:55:55Z</time>
      </trkpt>
      <trkpt lat="45.55851" lon="6.05082">
        <ele>1012.916171218</ele>
        <time>2015-12-25T15:56:00Z</time>
      </trkpt>
      <trkpt lat="45.55844" lon="6.05068">
        <ele>1010.347331534</ele>
        <time>2015-12-25T15:56:10Z</time>
      </trkpt>
      <trkpt lat="45.55841" lon="6.05061">
        <ele>1010.347331534</ele>
        <time>2015-12-25T15:56:15Z</time>
      </trkpt>
      <trkpt lat="45.55837" lon="6.05045">
        <ele>1008.286872601</ele>
        <time>2015-12-25T15:56:25Z</time>
      </trkpt>
      <trkpt lat="45.55837" lon="6.05043">
        <ele>1008.286872601</ele>
        <time>2015-12-25T15:56:31Z</time>
      </trkpt>
      <trkpt lat="45.55833" lon="6.05028">
        <ele>1006.40768669</ele>
        <time>2015-12-25T15:56:41Z</time>
      </trkpt>
      <trkpt lat="45.55832" lon="6.0502">
        <ele>1006.40768669</ele>
        <time>2015-12-25T15:56:45Z</time>
      </trkpt>
      <trkpt lat="45.5583" lon="6.05006">
        <ele>1004.694442212</ele>
        <time>2015-12-25T15:56:56Z</time>
      </trkpt>
      <trkpt lat="45.5583" lon="6.05">
        <ele>1004.694442212</ele>
        <time>2015-12-25T15:57:01Z</time>
      </trkpt>
      <trkpt lat="45.5583" lon="6.0498">
        <ele>1003.276615972</ele>
        <time>2015-12-25T15:57:15Z</time>
      </trkpt>
      <trkpt lat="45.55829" lon="6.04974">
        <ele>1003.276615972</ele>
        <time>2015-12-25T15:57:21Z</time>
      </trkpt>
      <trkpt lat="45.55833" lon="6.04961">
        <ele>999.967604008</ele>
        <time>2015-12-25T15:57:31Z</time>
      </trkpt>
      <trkpt lat="45.55834" lon="6.04954">
        <ele>999.967604008</ele>
        <time>2015-12-25T15:57:36Z</time>
      </trkpt>
      <trkpt lat="45.55833" lon="6.04943">
        <ele>996.34955074</ele>
        <time>2015-12-25T15:57:46Z</time>
      </trkpt>
      <trkpt lat="45.55832" lon="6.04936">
        <ele>996.34955074</ele>
        <time>2015-12-25T15:57:51Z</time>
      </trkpt>
      <trkpt lat="45.55827" lon="6.04925">
        <ele>993.456944913</ele>
        <time>2015-12-25T15:58:01Z</time>
      </trkpt>
      <trkpt lat="45.55822" lon="6.04919">
        <ele>993.456944913</ele>
        <time>2015-12-25T15:58:06Z</time>
      </trkpt>
      <trkpt lat="45.55815" lon="6.04916">
        <ele>990.516941559</ele>
        <time>2015-12-25T15:58:16Z</time>
      </trkpt>
      <trkpt lat="45.5581" lon="6.04911">
        <ele>990.516941559</ele>
        <time>2015-12-25T15:58:20Z</time>
      </trkpt>
      <trkpt lat="45.55802" lon="6.04904">
        <ele>988.110623801</ele>
        <time>2015-12-25T15:58:31Z</time>
      </trkpt>
      <trkpt lat="45.55797" lon="6.049">
        <ele>988.110623801</ele>
        <time>2015-12-25T15:58:35Z</time>
      </trkpt>
      <trkpt lat="45.55785" lon="6.04893">
        <ele>986.630799576</ele>
        <time>2015-12-25T15:58:45Z</time>
      </trkpt>
      <trkpt lat="45.55779" lon="6.0489">
        <ele>986.630799576</ele>
        <time>2015-12-25T15:58:50Z</time>
      </trkpt>
      <trkpt lat="45.55776" lon="6.04877">
        <ele>984.709507317</ele>
        <time>2015-12-25T15:59:01Z</time>
      </trkpt>
      <trkpt lat="45.55772" lon="6.04872">
        <ele>984.709507317</ele>
        <time>2015-12-25T15:59:06Z</time>
      </trkpt>
      <trkpt lat="45.55762" lon="6.04858">
        <ele>983.530425847</ele>
        <time>2015-12-25T15:59:15Z</time>
      </trkpt>
      <trkpt lat="45.55758" lon="6.04851">
        <ele>983.530425847</ele>
        <time>2015-12-25T15:59:21Z</time>
      </trkpt>
      <trkpt lat="45.5575" lon="6.04836">
        <ele>981.738336833</ele>
        <time>2015-12-25T15:59:31Z</time>
      </trkpt>
      <trkpt lat="45.55749" lon="6.0483">
        <ele>981.738336833</ele>
        <time>2015-12-25T15:59:35Z</time>
      </trkpt>
      <trkpt lat="45.55744" lon="6.04812">
        <ele>979.95277281</ele>
        <time>2015-12-25T15:59:46Z</time>
      </trkpt>
      <trkpt lat="45.55743" lon="6.04804">
        <ele>979.95277281</ele>
        <time>2015-12-25T15:59:50Z</time>
      </trkpt>
      <trkpt lat="45.55736" lon="6.0479">
        <ele>979.32422116</ele>
        <time>2015-12-25T16:00:00Z</time>
      </trkpt>
      <trkpt lat="45.55733" lon="6.04782">
        <ele>979.32422116</ele>
        <time>2015-12-25T16:00:06Z</time>
      </trkpt>
      <trkpt lat="45.55732" lon="6.04768">
        <ele>978.321453924</ele>
        <time>2015-12-25T16:00:16Z</time>
      </trkpt>
      <trkpt lat="45.55728" lon="6.04764">
        <ele>978.321453924</ele>
        <time>2015-12-25T16:00:21Z</time>
      </trkpt>
      <trkpt lat="45.55721" lon="6.04757">
        <ele>976.391493959</ele>
        <time>2015-12-25T16:00:30Z</time>
      </trkpt>
      <trkpt lat="45.55719" lon="6.04747">
        <ele>976.391493959</ele>
        <time>2015-12-25T16:00:36Z</time>
      </trkpt>
      <trkpt lat="45.55711" lon="6.04736">
        <ele>975.618645598</ele>
        <time>2015-12-25T16:00:46Z</time>
      </trkpt>
      <trkpt lat="45.55709" lon="6.0473">
        <ele>975.618645598</ele>
        <time>2015-12-25T16:00:51Z</time>
      </trkpt>
      <trkpt lat="45.55703" lon="6.0472">
        <ele>975.192808732</ele>
        <time>2015-12-25T16:01:00Z</time>
      </trkpt>
      <trkpt lat="45.55698" lon="6.04717">
        <ele>975.192808732</ele>
        <time>2015-12-25T16:01:06Z</time>
      </trkpt>
      <trkpt lat="45.55681" lon="6.04704">
        <ele>975.515382629</ele>
        <time>2015-12-25T16:01:21Z</time>
      </trkpt>
      <trkpt lat="45.55677" lon="6.047">
        <ele>975.515382629</ele>
        <time>2015-12-25T16:01:25Z</time>
      </trkpt>
      <trkpt lat="45.5567" lon="6.04694">
        <ele>975.803375534</ele>
        <time>2015-12-25T16:01:36Z</time>
      </trkpt>
      <trkpt lat="45.55664" lon="6.04692">
        <ele>975.803375534</ele>
        <time>2015-12-25T16:01:40Z</time>
      </trkpt>
      <trkpt lat="45.55653" lon="6.0468">
        <ele>976.484398251</ele>
        <time>2015-12-25T16:01:51Z</time>
      </trkpt>
      <trkpt lat="45.55647" lon="6.04674">
        <ele>976.484398251</ele>
        <time>2015-12-25T16:01:55Z</time>
      </trkpt>
      <trkpt lat="45.55641" lon="6.04667">
        <ele>976.656658516</ele>
        <time>2015-12-25T16:02:06Z</time>
      </trkpt>
      <trkpt lat="45.55635" lon="6.04667">
        <ele>976.656658516</ele>
        <time>2015-12-25T16:02:10Z</time>
      </trkpt>
      <trkpt lat="45.55623" lon="6.04658">
        <ele>976.350828216</ele>
        <time>2015-12-25T16:02:21Z</time>
      </trkpt>
      <trkpt lat="45.55615" lon="6.04653">
        <ele>976.350828216</ele>
        <time>2015-12-25T16:02:25Z</time>
      </trkpt>
      <trkpt lat="45.55605" lon="6.04648">
        <ele>976.173247429</ele>
        <time>2015-12-25T16:02:36Z</time>
      </trkpt>
      <trkpt lat="45.55601" lon="6.04647">
        <ele>976.173247429</ele>
        <time>2015-12-25T16:02:40Z</time>
      </trkpt>
      <trkpt lat="45.55595" lon="6.04642">
        <ele>976.397277089</ele>
        <time>2015-12-25T16:02:51Z</time>
      </trkpt>
      <trkpt lat="45.55589" lon="6.04644">
        <ele>976.397277089</ele>
        <time>2015-12-25T16:02:57Z</time>
      </trkpt>
      <trkpt lat="45.55578" lon="6.04644">
        <ele>976.98700012</ele>
        <time>2015-12-25T16:03:05Z</time>
      </trkpt>
      <trkpt lat="45.55569" lon="6.04643">
        <ele>977.475937676</ele>
        <time>2015-12-25T16:03:11Z</time>
      </trkpt>
      <trkpt lat="45.55561" lon="6.04649">
        <ele>977.475937676</ele>
        <time>2015-12-25T16:03:21Z</time>
      </trkpt>
      <trkpt lat="45.55551" lon="6.04643">
        <ele>978.296995459</ele>
        <time>2015-12-25T16:03:25Z</time>
      </trkpt>
      <trkpt lat="45.55548" lon="6.04642">
        <ele>978.296995459</ele>
        <time>2015-12-25T16:03:30Z</time>
      </trkpt>
      <trkpt lat="45.55535" lon="6.04636">
        <ele>979.418189812</ele>
        <time>2015-12-25T16:03:41Z</time>
      </trkpt>
      <trkpt lat="45.55531" lon="6.04636">
        <ele>979.418189812</ele>
        <time>2015-12-25T16:03:46Z</time>
      </trkpt>
      <trkpt lat="45.55521" lon="6.04637">
        <ele>979.800451414</ele>
        <time>2015-12-25T16:03:55Z</time>
      </trkpt>
      <trkpt lat="45.55516" lon="6.04638">
        <ele>979.800451414</ele>
        <time>2015-12-25T16:04:00Z</time>
      </trkpt>
      <trkpt lat="45.55509" lon="6.04633">
        <ele>980.789085088</ele>
        <time>2015-12-25T16:04:11Z</time>
      </trkpt>
      <trkpt lat="45.55501" lon="6.04627">
        <ele>982.332070201</ele>
        <time>2015-12-25T16:04:15Z</time>
      </trkpt>
      <trkpt lat="45.5549" lon="6.04627">
        <ele>984.091639793</ele>
        <time>2015-12-25T16:04:25Z</time>
      </trkpt>
      <trkpt lat="45.55486" lon="6.04632">
        <ele>984.091639793</ele>
        <time>2015-12-25T16:04:30Z</time>
      </trkpt>
      <trkpt lat="45.55477" lon="6.04639">
        <ele>985.322115477</ele>
        <time>2015-12-25T16:04:40Z</time>
      </trkpt>
      <trkpt lat="45.55471" lon="6.0464">
        <ele>985.322115477</ele>
        <time>2015-12-25T16:04:46Z</time>
      </trkpt>
      <trkpt lat="45.55465" lon="6.04641">
        <ele>987.49597504</ele>
        <time>2015-12-25T16:04:58Z</time>
      </trkpt>
      <trkpt lat="45.55465" lon="6.04642">
        <ele>987.49597504</ele>
        <time>2015-12-25T16:05:00Z</time>
      </trkpt>
      <trkpt lat="45.55462" lon="6.04642">
        <ele>987.49597504</ele>
        <time>2015-12-25T16:05:10Z</time>
      </trkpt>
      <trkpt lat="45.55456" lon="6.04643">
        <ele>989.381118015</ele>
        <time>2015-12-25T16:05:15Z</time>
      </trkpt>
      <trkpt lat="45.55447" lon="6.04646">
        <ele>989.381118015</ele>
        <time>2015-12-25T16:05:20Z</time>
      </trkpt>
      <trkpt lat="45.55443" lon="6.04647">
        <ele>991.278120118</ele>
        <time>2015-12-25T16:05:25Z</time>
      </trkpt>
      <trkpt lat="45.55435" lon="6.04646">
        <ele>991.278120118</ele>
        <time>2015-12-25T16:05:30Z</time>
      </trkpt>
      <trkpt lat="45.55422" lon="6.04654">
        <ele>992.312805879</ele>
        <time>2015-12-25T16:05:40Z</time>
      </trkpt>
      <trkpt lat="45.55415" lon="6.04652">
        <ele>992.312805879</ele>
        <time>2015-12-25T16:05:45Z</time>
      </trkpt>
      <trkpt lat="45.55401" lon="6.04653">
        <ele>993.983671252</ele>
        <time>2015-12-25T16:05:55Z</time>
      </trkpt>
      <trkpt lat="45.55396" lon="6.04654">
        <ele>993.983671252</ele>
        <time>2015-12-25T16:06:00Z</time>
      </trkpt>
      <trkpt lat="45.55382" lon="6.04655">
        <ele>995.948275942</ele>
        <time>2015-12-25T16:06:15Z</time>
      </trkpt>
      <trkpt lat="45.5538" lon="6.04656">
        <ele>995.948275942</ele>
        <time>2015-12-25T16:06:20Z</time>
      </trkpt>
      <trkpt lat="45.55369" lon="6.04659">
        <ele>997.456440542</ele>
        <time>2015-12-25T16:06:30Z</time>
      </trkpt>
      <trkpt lat="45.55363" lon="6.04658">
        <ele>997.456440542</ele>
        <time>2015-12-25T16:06:35Z</time>
      </trkpt>
      <trkpt lat="45.55354" lon="6.04655">
        <ele>998.102858658</ele>
        <time>2015-12-25T16:06:45Z</time>
      </trkpt>
      <trkpt lat="45.55349" lon="6.04655">
        <ele>998.102858658</ele>
        <time>2015-12-25T16:06:50Z</time>
      </trkpt>
      <trkpt lat="45.55337" lon="6.04649">
        <ele>998.955787572</ele>
        <time>2015-12-25T16:07:01Z</time>
      </trkpt>
      <trkpt lat="45.55335" lon="6.04646">
        <ele>998.955787572</ele>
        <time>2015-12-25T16:07:06Z</time>
      </trkpt>
      <trkpt lat="45.55325" lon="6.04648">
        <ele>999.275353573</ele>
        <time>2015-12-25T16:07:16Z</time>
      </trkpt>
      <trkpt lat="45.55325" lon="6.04643">
        <ele>999.275353573</ele>
        <time>2015-12-25T16:07:20Z</time>
      </trkpt>
      <trkpt lat="45.55325" lon="6.04644">
        <ele>999.275353573</ele>
        <time>2015-12-25T16:07:25Z</time>
      </trkpt>
      <trkpt lat="45.55325" lon="6.04643">
        <ele>999.275353573</ele>
        <time>2015-12-25T16:07:30Z</time>
      </trkpt>
      <trkpt lat="45.55324" lon="6.04643">
        <ele>999.275353573</ele>
        <time>2015-12-25T16:07:40Z</time>
      </trkpt>
      <trkpt lat="45.55324" lon="6.04643">
        <ele>999.275353573</ele>
        <time>2015-12-25T16:07:45Z</time>
      </trkpt>
      <trkpt lat="45.55316" lon="6.04641">
        <ele>1000.251223937</ele>
        <time>2015-12-25T16:07:55Z</time>
      </trkpt>
      <trkpt lat="45.5531" lon="6.04642">
        <ele>1000.251223937</ele>
        <time>2015-12-25T16:08:00Z</time>
      </trkpt>
      <trkpt lat="45.55301" lon="6.04636">
        <ele>1000.245959401</ele>
        <time>2015-12-25T16:08:10Z</time>
      </trkpt>
      <trkpt lat="45.55296" lon="6.0463">
        <ele>1000.245959401</ele>
        <time>2015-12-25T16:08:16Z</time>
      </trkpt>
      <trkpt lat="45.55296" lon="6.0463">
        <ele>1000.245959401</ele>
        <time>2015-12-25T16:08:20Z</time>
      </trkpt>
      <trkpt lat="45.55293" lon="6.04622">
        <ele>999.330608055</ele>
        <time>2015-12-25T16:08:30Z</time>
      </trkpt>
      <trkpt lat="45.55291" lon="6.04621">
        <ele>999.330608055</ele>
        <time>2015-12-25T16:08:35Z</time>
      </trkpt>
      <trkpt lat="45.55285" lon="6.04611">
        <ele>997.717874078</ele>
        <time>2015-12-25T16:08:45Z</time>
      </trkpt>
      <trkpt lat="45.55281" lon="6.04609">
        <ele>997.717874078</ele>
        <time>2015-12-25T16:08:50Z</time>
      </trkpt>
      <trkpt lat="45.55278" lon="6.04597">
        <ele>994.598204001</ele>
        <time>2015-12-25T16:09:00Z</time>
      </trkpt>
      <trkpt lat="45.55279" lon="6.04591">
        <ele>994.598204001</ele>
        <time>2015-12-25T16:09:05Z</time>
      </trkpt>
      <trkpt lat="45.55279" lon="6.04584">
        <ele>991.531681851</ele>
        <time>2015-12-25T16:09:15Z</time>
      </trkpt>
      <trkpt lat="45.55281" lon="6.0458">
        <ele>991.531681851</ele>
        <time>2015-12-25T16:09:20Z</time>
      </trkpt>
      <trkpt lat="45.55282" lon="6.04578">
        <ele>991.531681851</ele>
        <time>2015-12-25T16:09:25Z</time>
      </trkpt>
      <trkpt lat="45.55284" lon="6.04576">
        <ele>991.531681851</ele>
        <time>2015-12-25T16:09:30Z</time>
      </trkpt>
      <trkpt lat="45.55286" lon="6.04574">
        <ele>988.954993266</ele>
        <time>2015-12-25T16:09:35Z</time>
      </trkpt>
      <trkpt lat="45.55281" lon="6.04565">
        <ele>988.954993266</ele>
        <time>2015-12-25T16:09:50Z</time>
      </trkpt>
      <trkpt lat="45.5528" lon="6.04566">
        <ele>985.686247127</ele>
        <time>2015-12-25T16:10:00Z</time>
      </trkpt>
      <trkpt lat="45.55279" lon="6.04565">
        <ele>985.686247127</ele>
        <time>2015-12-25T16:10:06Z</time>
      </trkpt>
      <trkpt lat="45.55279" lon="6.04565">
        <ele>985.686247127</ele>
        <time>2015-12-25T16:10:10Z</time>
      </trkpt>
      <trkpt lat="45.55266" lon="6.04559">
        <ele>982.794049276</ele>
        <time>2015-12-25T16:10:20Z</time>
      </trkpt>
      <trkpt lat="45.55262" lon="6.04559">
        <ele>982.794049276</ele>
        <time>2015-12-25T16:10:25Z</time>
      </trkpt>
      <trkpt lat="45.55252" lon="6.04557">
        <ele>979.249930123</ele>
        <time>2015-12-25T16:10:35Z</time>
      </trkpt>
      <trkpt lat="45.55249" lon="6.04552">
        <ele>979.249930123</ele>
        <time>2015-12-25T16:10:40Z</time>
      </trkpt>
      <trkpt lat="45.5524" lon="6.04552">
        <ele>976.120363889</ele>
        <time>2015-12-25T16:10:50Z</time>
      </trkpt>
      <trkpt lat="45.55238" lon="6.04553">
        <ele>976.120363889</ele>
        <time>2015-12-25T16:10:55Z</time>
      </trkpt>
      <trkpt lat="45.55231" lon="6.04553">
        <ele>976.120363889</ele>
        <time>2015-12-25T16:11:06Z</time>
      </trkpt>
      <trkpt lat="45.55229" lon="6.04552">
        <ele>972.66296527</ele>
        <time>2015-12-25T16:11:10Z</time>
      </trkpt>
      <trkpt lat="45.55227" lon="6.04552">
        <ele>972.66296527</ele>
        <time>2015-12-25T16:11:20Z</time>
      </trkpt>
      <trkpt lat="45.55223" lon="6.04552">
        <ele>972.66296527</ele>
        <time>2015-12-25T16:11:25Z</time>
      </trkpt>
      <trkpt lat="45.55217" lon="6.04554">
        <ele>968.190755953</ele>
        <time>2015-12-25T16:11:36Z</time>
      </trkpt>
      <trkpt lat="45.55215" lon="6.04557">
        <ele>968.190755953</ele>
        <time>2015-12-25T16:11:40Z</time>
      </trkpt>
      <trkpt lat="45.55207" lon="6.04554">
        <ele>963.36699384</ele>
        <time>2015-12-25T16:11:50Z</time>
      </trkpt>
      <trkpt lat="45.55199" lon="6.04554">
        <ele>963.36699384</ele>
        <time>2015-12-25T16:11:55Z</time>
      </trkpt>
      <trkpt lat="45.5519" lon="6.04552">
        <ele>958.807096268</ele>
        <time>2015-12-25T16:12:05Z</time>
      </trkpt>
      <trkpt lat="45.55189" lon="6.04551">
        <ele>958.807096268</ele>
        <time>2015-12-25T16:12:13Z</time>
      </trkpt>
      <trkpt lat="45.55182" lon="6.04544">
        <ele>953.63928673</ele>
        <time>2015-12-25T16:12:25Z</time>
      </trkpt>
      <trkpt lat="45.55182" lon="6.04541">
        <ele>953.63928673</ele>
        <time>2015-12-25T16:12:31Z</time>
      </trkpt>
      <trkpt lat="45.55179" lon="6.04528">
        <ele>948.498483007</ele>
        <time>2015-12-25T16:12:41Z</time>
      </trkpt>
      <trkpt lat="45.55181" lon="6.04524">
        <ele>948.498483007</ele>
        <time>2015-12-25T16:12:46Z</time>
      </trkpt>
      <trkpt lat="45.55187" lon="6.04511">
        <ele>943.396251268</ele>
        <time>2015-12-25T16:12:56Z</time>
      </trkpt>
      <trkpt lat="45.55188" lon="6.04507">
        <ele>943.396251268</ele>
        <time>2015-12-25T16:13:00Z</time>
      </trkpt>
      <trkpt lat="45.55194" lon="6.04501">
        <ele>937.622426714</ele>
        <time>2015-12-25T16:13:10Z</time>
      </trkpt>
      <trkpt lat="45.55197" lon="6.04496">
        <ele>937.622426714</ele>
        <time>2015-12-25T16:13:15Z</time>
      </trkpt>
      <trkpt lat="45.55203" lon="6.04484">
        <ele>931.24120865</ele>
        <time>2015-12-25T16:13:26Z</time>
      </trkpt>
      <trkpt lat="45.55207" lon="6.04479">
        <ele>931.24120865</ele>
        <time>2015-12-25T16:13:30Z</time>
      </trkpt>
      <trkpt lat="45.55216" lon="6.04465">
        <ele>925.034070314</ele>
        <time>2015-12-25T16:13:45Z</time>
      </trkpt>
      <trkpt lat="45.55218" lon="6.04461">
        <ele>925.034070314</ele>
        <time>2015-12-25T16:13:50Z</time>
      </trkpt>
      <trkpt lat="45.5522" lon="6.04458">
        <ele>925.034070314</ele>
        <time>2015-12-25T16:13:56Z</time>
      </trkpt>
      <trkpt lat="45.55223" lon="6.04456">
        <ele>919.291962303</ele>
        <time>2015-12-25T16:14:00Z</time>
      </trkpt>
      <trkpt lat="45.55223" lon="6.04455">
        <ele>919.291962303</ele>
        <time>2015-12-25T16:14:05Z</time>
      </trkpt>
      <trkpt lat="45.55229" lon="6.04447">
        <ele>919.291962303</ele>
        <time>2015-12-25T16:14:16Z</time>
      </trkpt>
      <trkpt lat="45.55234" lon="6.04444">
        <ele>913.418173301</ele>
        <time>2015-12-25T16:14:21Z</time>
      </trkpt>
      <trkpt lat="45.55244" lon="6.04433">
        <ele>908.012748246</ele>
        <time>2015-12-25T16:14:31Z</time>
      </trkpt>
      <trkpt lat="45.55248" lon="6.0443">
        <ele>908.012748246</ele>
        <time>2015-12-25T16:14:36Z</time>
      </trkpt>
      <trkpt lat="45.5525" lon="6.04422">
        <ele>903.3417664</ele>
        <time>2015-12-25T16:14:47Z</time>
      </trkpt>
      <trkpt lat="45.55251" lon="6.0442">
        <ele>903.3417664</ele>
        <time>2015-12-25T16:14:50Z</time>
      </trkpt>
      <trkpt lat="45.55252" lon="6.04418">
        <ele>903.3417664</ele>
        <time>2015-12-25T16:15:01Z</time>
      </trkpt>
      <trkpt lat="45.55252" lon="6.04417">
        <ele>903.3417664</ele>
        <time>2015-12-25T16:15:06Z</time>
      </trkpt>
      <trkpt lat="45.55248" lon="6.04417">
        <ele>903.3417664</ele>
        <time>2015-12-25T16:15:16Z</time>
      </trkpt>
      <trkpt lat="45.55245" lon="6.04415">
        <ele>899.21700811</ele>
        <time>2015-12-25T16:15:20Z</time>
      </trkpt>
      <trkpt lat="45.55242" lon="6.04415">
        <ele>899.21700811</ele>
        <time>2015-12-25T16:15:25Z</time>
      </trkpt>
      <trkpt lat="45.5524" lon="6.04415">
        <ele>899.21700811</ele>
        <time>2015-12-25T16:15:30Z</time>
      </trkpt>
      <trkpt lat="45.5523" lon="6.04414">
        <ele>895.894519923</ele>
        <time>2015-12-25T16:15:36Z</time>
      </trkpt>
      <trkpt lat="45.55224" lon="6.04416">
        <ele>895.894519923</ele>
        <time>2015-12-25T16:15:45Z</time>
      </trkpt>
      <trkpt lat="45.55217" lon="6.04419">
        <ele>891.735483798</ele>
        <time>2015-12-25T16:15:50Z</time>
      </trkpt>
      <trkpt lat="45.55204" lon="6.04416">
        <ele>887.096904877</ele>
        <time>2015-12-25T16:16:05Z</time>
      </trkpt>
      <trkpt lat="45.55195" lon="6.04412">
        <ele>883.031114799</ele>
        <time>2015-12-25T16:16:16Z</time>
      </trkpt>
      <trkpt lat="45.55194" lon="6.04412">
        <ele>883.031114799</ele>
        <time>2015-12-25T16:16:21Z</time>
      </trkpt>
      <trkpt lat="45.55191" lon="6.0441">
        <ele>883.031114799</ele>
        <time>2015-12-25T16:16:25Z</time>
      </trkpt>
      <trkpt lat="45.55182" lon="6.0441">
        <ele>878.493634278</ele>
        <time>2015-12-25T16:16:35Z</time>
      </trkpt>
      <trkpt lat="45.55178" lon="6.0441">
        <ele>878.493634278</ele>
        <time>2015-12-25T16:16:40Z</time>
      </trkpt>
      <trkpt lat="45.55161" lon="6.04405">
        <ele>874.102917314</ele>
        <time>2015-12-25T16:16:50Z</time>
      </trkpt>
      <trkpt lat="45.55156" lon="6.04402">
        <ele>874.102917314</ele>
        <time>2015-12-25T16:16:56Z</time>
      </trkpt>
      <trkpt lat="45.55147" lon="6.04404">
        <ele>869.854795776</ele>
        <time>2015-12-25T16:17:05Z</time>
      </trkpt>
      <trkpt lat="45.55142" lon="6.04404">
        <ele>869.854795776</ele>
        <time>2015-12-25T16:17:11Z</time>
      </trkpt>
      <trkpt lat="45.55137" lon="6.04404">
        <ele>865.600568122</ele>
        <time>2015-12-25T16:17:20Z</time>
      </trkpt>
      <trkpt lat="45.55137" lon="6.04404">
        <ele>865.600568122</ele>
        <time>2015-12-25T16:17:26Z</time>
      </trkpt>
      <trkpt lat="45.55136" lon="6.04403">
        <ele>865.600568122</ele>
        <time>2015-12-25T16:17:36Z</time>
      </trkpt>
      <trkpt lat="45.55136" lon="6.04403">
        <ele>865.600568122</ele>
        <time>2015-12-25T16:17:41Z</time>
      </trkpt>
      <trkpt lat="45.55132" lon="6.04399">
        <ele>865.600568122</ele>
        <time>2015-12-25T16:17:51Z</time>
      </trkpt>
      <trkpt lat="45.55132" lon="6.04398">
        <ele>865.600568122</ele>
        <time>2015-12-25T16:17:55Z</time>
      </trkpt>
      <trkpt lat="45.55131" lon="6.04399">
        <ele>865.600568122</ele>
        <time>2015-12-25T16:18:05Z</time>
      </trkpt>
      <trkpt lat="45.55131" lon="6.044">
        <ele>865.600568122</ele>
        <time>2015-12-25T16:18:10Z</time>
      </trkpt>
      <trkpt lat="45.55127" lon="6.04399">
        <ele>862.931488351</ele>
        <time>2015-12-25T16:18:20Z</time>
      </trkpt>
      <trkpt lat="45.55122" lon="6.044">
        <ele>862.931488351</ele>
        <time>2015-12-25T16:18:25Z</time>
      </trkpt>
      <trkpt lat="45.55109" lon="6.04406">
        <ele>860.290829655</ele>
        <time>2015-12-25T16:18:40Z</time>
      </trkpt>
      <trkpt lat="45.55103" lon="6.04409">
        <ele>860.290829655</ele>
        <time>2015-12-25T16:18:46Z</time>
      </trkpt>
      <trkpt lat="45.55094" lon="6.04412">
        <ele>857.100516536</ele>
        <time>2015-12-25T16:18:55Z</time>
      </trkpt>
      <trkpt lat="45.55092" lon="6.04414">
        <ele>857.100516536</ele>
        <time>2015-12-25T16:19:01Z</time>
      </trkpt>
      <trkpt lat="45.55091" lon="6.04413">
        <ele>857.100516536</ele>
        <time>2015-12-25T16:19:10Z</time>
      </trkpt>
      <trkpt lat="45.55088" lon="6.04414">
        <ele>857.100516536</ele>
        <time>2015-12-25T16:19:15Z</time>
      </trkpt>
      <trkpt lat="45.55078" lon="6.04417">
        <ele>853.546760488</ele>
        <time>2015-12-25T16:19:26Z</time>
      </trkpt>
      <trkpt lat="45.55076" lon="6.04418">
        <ele>853.546760488</ele>
        <time>2015-12-25T16:19:30Z</time>
      </trkpt>
      <trkpt lat="45.55072" lon="6.04415">
        <ele>853.546760488</ele>
        <time>2015-12-25T16:19:46Z</time>
      </trkpt>
      <trkpt lat="45.55066" lon="6.0442">
        <ele>850.235188138</ele>
        <time>2015-12-25T16:19:50Z</time>
      </trkpt>
      <trkpt lat="45.55061" lon="6.0442">
        <ele>850.235188138</ele>
        <time>2015-12-25T16:20:00Z</time>
      </trkpt>
      <trkpt lat="45.55055" lon="6.04422">
        <ele>847.005458047</ele>
        <time>2015-12-25T16:20:05Z</time>
      </trkpt>
      <trkpt lat="45.55047" lon="6.04425">
        <ele>847.005458047</ele>
        <time>2015-12-25T16:20:15Z</time>
      </trkpt>
      <trkpt lat="45.55043" lon="6.04423">
        <ele>843.564436185</ele>
        <time>2015-12-25T16:20:20Z</time>
      </trkpt>
      <trkpt lat="45.5504" lon="6.04405">
        <ele>840.073230687</ele>
        <time>2015-12-25T16:20:35Z</time>
      </trkpt>
      <trkpt lat="45.55039" lon="6.04398">
        <ele>840.073230687</ele>
        <time>2015-12-25T16:20:40Z</time>
      </trkpt>
      <trkpt lat="45.55034" lon="6.04394">
        <ele>837.545719278</ele>
        <time>2015-12-25T16:20:52Z</time>
      </trkpt>
      <trkpt lat="45.55027" lon="6.04389">
        <ele>837.545719278</ele>
        <time>2015-12-25T16:21:05Z</time>
      </trkpt>
      <trkpt lat="45.55022" lon="6.04384">
        <ele>835.765520707</ele>
        <time>2015-12-25T16:21:11Z</time>
      </trkpt>
      <trkpt lat="45.5502" lon="6.04383">
        <ele>835.765520707</ele>
        <time>2015-12-25T16:21:20Z</time>
      </trkpt>
      <trkpt lat="45.55019" lon="6.04383">
        <ele>835.765520707</ele>
        <time>2015-12-25T16:21:25Z</time>
      </trkpt>
      <trkpt lat="45.55008" lon="6.04382">
        <ele>834.241661203</ele>
        <time>2015-12-25T16:21:36Z</time>
      </trkpt>
      <trkpt lat="45.55001" lon="6.04384">
        <ele>834.241661203</ele>
        <time>2015-12-25T16:21:40Z</time>
      </trkpt>
      <trkpt lat="45.54993" lon="6.04385">
        <ele>832.518366385</ele>
        <time>2015-12-25T16:21:50Z</time>
      </trkpt>
      <trkpt lat="45.54988" lon="6.04384">
        <ele>832.518366385</ele>
        <time>2015-12-25T16:21:56Z</time>
      </trkpt>
      <trkpt lat="45.54986" lon="6.04383">
        <ele>832.518366385</ele>
        <time>2015-12-25T16:22:06Z</time>
      </trkpt>
      <trkpt lat="45.5498" lon="6.0438">
        <ele>831.32666713</ele>
        <time>2015-12-25T16:22:14Z</time>
      </trkpt>
      <trkpt lat="45.54972" lon="6.04376">
        <ele>831.32666713</ele>
        <time>2015-12-25T16:22:15Z</time>
      </trkpt>
      <trkpt lat="45.54964" lon="6.04362">
        <ele>829.757078067</ele>
        <time>2015-12-25T16:22:26Z</time>
      </trkpt>
      <trkpt lat="45.54961" lon="6.04358">
        <ele>829.757078067</ele>
        <time>2015-12-25T16:22:31Z</time>
      </trkpt>
      <trkpt lat="45.54954" lon="6.04352">
        <ele>829.994243258</ele>
        <time>2015-12-25T16:22:40Z</time>
      </trkpt>
      <trkpt lat="45.54948" lon="6.04349">
        <ele>829.994243258</ele>
        <time>2015-12-25T16:22:45Z</time>
      </trkpt>
      <trkpt lat="45.54942" lon="6.04342">
        <ele>830.886762017</ele>
        <time>2015-12-25T16:22:55Z</time>
      </trkpt>
      <trkpt lat="45.54938" lon="6.04341">
        <ele>830.886762017</ele>
        <time>2015-12-25T16:23:00Z</time>
      </trkpt>
      <trkpt lat="45.54933" lon="6.04334">
        <ele>831.654180682</ele>
        <time>2015-12-25T16:23:10Z</time>
      </trkpt>
      <trkpt lat="45.54933" lon="6.04332">
        <ele>831.654180682</ele>
        <time>2015-12-25T16:23:15Z</time>
      </trkpt>
      <trkpt lat="45.54932" lon="6.0433">
        <ele>831.654180682</ele>
        <time>2015-12-25T16:23:31Z</time>
      </trkpt>
      <trkpt lat="45.54934" lon="6.04329">
        <ele>831.654180682</ele>
        <time>2015-12-25T16:23:35Z</time>
      </trkpt>
      <trkpt lat="45.54934" lon="6.04329">
        <ele>831.654180682</ele>
        <time>2015-12-25T16:23:45Z</time>
      </trkpt>
      <trkpt lat="45.54934" lon="6.04328">
        <ele>831.654180682</ele>
        <time>2015-12-25T16:23:50Z</time>
      </trkpt>
      <trkpt lat="45.54934" lon="6.04328">
        <ele>831.654180682</ele>
        <time>2015-12-25T16:24:00Z</time>
      </trkpt>
      <trkpt lat="45.54934" lon="6.04328">
        <ele>831.654180682</ele>
        <time>2015-12-25T16:24:06Z</time>
      </trkpt>
      <trkpt lat="45.54934" lon="6.04328">
        <ele>831.654180682</ele>
        <time>2015-12-25T16:24:16Z</time>
      </trkpt>
      <trkpt lat="45.54934" lon="6.04328">
        <ele>831.654180682</ele>
        <time>2015-12-25T16:24:20Z</time>
      </trkpt>
      <trkpt lat="45.54934" lon="6.04328">
        <ele>831.654180682</ele>
        <time>2015-12-25T16:24:30Z</time>
      </trkpt>
      <trkpt lat="45.54929" lon="6.0433">
        <ele>832.006074825</ele>
        <time>2015-12-25T16:24:37Z</time>
      </trkpt>
      <trkpt lat="45.54928" lon="6.04327">
        <ele>832.006074825</ele>
        <time>2015-12-25T16:24:46Z</time>
      </trkpt>
      <trkpt lat="45.54928" lon="6.04327">
        <ele>832.006074825</ele>
        <time>2015-12-25T16:24:51Z</time>
      </trkpt>
      <trkpt lat="45.54921" lon="6.04316">
        <ele>832.395120844</ele>
        <time>2015-12-25T16:25:05Z</time>
      </trkpt>
      <trkpt lat="45.54914" lon="6.0431">
        <ele>832.395120844</ele>
        <time>2015-12-25T16:25:11Z</time>
      </trkpt>
      <trkpt lat="45.54906" lon="6.04305">
        <ele>833.961269426</ele>
        <time>2015-12-25T16:25:20Z</time>
      </trkpt>
      <trkpt lat="45.54892" lon="6.04298">
        <ele>836.028201092</ele>
        <time>2015-12-25T16:25:36Z</time>
      </trkpt>
      <trkpt lat="45.54887" lon="6.04292">
        <ele>836.028201092</ele>
        <time>2015-12-25T16:25:40Z</time>
      </trkpt>
      <trkpt lat="45.5488" lon="6.04282">
        <ele>838.544455084</ele>
        <time>2015-12-25T16:25:51Z</time>
      </trkpt>
      <trkpt lat="45.54874" lon="6.04278">
        <ele>838.544455084</ele>
        <time>2015-12-25T16:25:56Z</time>
      </trkpt>
      <trkpt lat="45.54875" lon="6.04276">
        <ele>838.544455084</ele>
        <time>2015-12-25T16:26:06Z</time>
      </trkpt>
      <trkpt lat="45.54876" lon="6.04276">
        <ele>838.544455084</ele>
        <time>2015-12-25T16:26:10Z</time>
      </trkpt>
      <trkpt lat="45.54875" lon="6.04276">
        <ele>840.884814407</ele>
        <time>2015-12-25T16:26:20Z</time>
      </trkpt>
      <trkpt lat="45.54866" lon="6.04269">
        <ele>843.191240106</ele>
        <time>2015-12-25T16:26:25Z</time>
      </trkpt>
      <trkpt lat="45.54858" lon="6.04263">
        <ele>846.027925346</ele>
        <time>2015-12-25T16:26:35Z</time>
      </trkpt>
      <trkpt lat="45.54852" lon="6.04261">
        <ele>846.027925346</ele>
        <time>2015-12-25T16:26:40Z</time>
      </trkpt>
      <trkpt lat="45.54847" lon="6.04253">
        <ele>857.266075286</ele>
        <time>2015-12-25T16:26:56Z</time>
      </trkpt>
      <trkpt lat="45.54837" lon="6.04245">
        <ele>861.549973936</ele>
        <time>2015-12-25T16:27:05Z</time>
      </trkpt>
      <trkpt lat="45.54833" lon="6.04243">
        <ele>861.549973936</ele>
        <time>2015-12-25T16:27:10Z</time>
      </trkpt>
      <trkpt lat="45.54832" lon="6.04238">
        <ele>861.549973936</ele>
        <time>2015-12-25T16:27:15Z</time>
      </trkpt>
      <trkpt lat="45.54823" lon="6.04226">
        <ele>864.415022295</ele>
        <time>2015-12-25T16:27:26Z</time>
      </trkpt>
      <trkpt lat="45.54818" lon="6.04228">
        <ele>864.415022295</ele>
        <time>2015-12-25T16:27:30Z</time>
      </trkpt>
      <trkpt lat="45.5481" lon="6.04223">
        <ele>866.959256584</ele>
        <time>2015-12-25T16:27:40Z</time>
      </trkpt>
      <trkpt lat="45.54805" lon="6.04222">
        <ele>866.959256584</ele>
        <time>2015-12-25T16:27:45Z</time>
      </trkpt>
      <trkpt lat="45.54795" lon="6.04221">
        <ele>869.33670792</ele>
        <time>2015-12-25T16:27:55Z</time>
      </trkpt>
      <trkpt lat="45.54794" lon="6.04217">
        <ele>869.33670792</ele>
        <time>2015-12-25T16:28:00Z</time>
      </trkpt>
      <trkpt lat="45.54787" lon="6.04213">
        <ele>871.402771929</ele>
        <time>2015-12-25T16:28:10Z</time>
      </trkpt>
      <trkpt lat="45.54783" lon="6.04211">
        <ele>871.402771929</ele>
        <time>2015-12-25T16:28:15Z</time>
      </trkpt>
      <trkpt lat="45.54767" lon="6.04207">
        <ele>873.313001892</ele>
        <time>2015-12-25T16:28:30Z</time>
      </trkpt>
      <trkpt lat="45.54762" lon="6.04202">
        <ele>873.313001892</ele>
        <time>2015-12-25T16:28:36Z</time>
      </trkpt>
      <trkpt lat="45.54751" lon="6.04197">
        <ele>875.212402515</ele>
        <time>2015-12-25T16:28:45Z</time>
      </trkpt>
      <trkpt lat="45.54744" lon="6.04197">
        <ele>875.212402515</ele>
        <time>2015-12-25T16:28:51Z</time>
      </trkpt>
      <trkpt lat="45.54732" lon="6.04193">
        <ele>876.659351793</ele>
        <time>2015-12-25T16:29:01Z</time>
      </trkpt>
      <trkpt lat="45.54725" lon="6.04199">
        <ele>876.659351793</ele>
        <time>2015-12-25T16:29:05Z</time>
      </trkpt>
      <trkpt lat="45.54714" lon="6.04205">
        <ele>878.975709179</ele>
        <time>2015-12-25T16:29:15Z</time>
      </trkpt>
      <trkpt lat="45.54707" lon="6.04208">
        <ele>878.975709179</ele>
        <time>2015-12-25T16:29:20Z</time>
      </trkpt>
      <trkpt lat="45.54694" lon="6.04215">
        <ele>881.510780532</ele>
        <time>2015-12-25T16:29:30Z</time>
      </trkpt>
      <trkpt lat="45.54693" lon="6.04212">
        <ele>881.510780532</ele>
        <time>2015-12-25T16:29:35Z</time>
      </trkpt>
      <trkpt lat="45.54695" lon="6.04212">
        <ele>881.510780532</ele>
        <time>2015-12-25T16:29:46Z</time>
      </trkpt>
      <trkpt lat="45.54699" lon="6.04208">
        <ele>882.65270744</ele>
        <time>2015-12-25T16:29:50Z</time>
      </trkpt>
      <trkpt lat="45.54701" lon="6.04208">
        <ele>882.65270744</ele>
        <time>2015-12-25T16:30:01Z</time>
      </trkpt>
      <trkpt lat="45.54701" lon="6.04208">
        <ele>882.65270744</ele>
        <time>2015-12-25T16:30:06Z</time>
      </trkpt>
      <trkpt lat="45.547" lon="6.04207">
        <ele>882.65270744</ele>
        <time>2015-12-25T16:30:15Z</time>
      </trkpt>
      <trkpt lat="45.54695" lon="6.04209">
        <ele>882.65270744</ele>
        <time>2015-12-25T16:30:21Z</time>
      </trkpt>
      <trkpt lat="45.54682" lon="6.04218">
        <ele>883.506367344</ele>
        <time>2015-12-25T16:30:31Z</time>
      </trkpt>
      <trkpt lat="45.54676" lon="6.04219">
        <ele>883.506367344</ele>
        <time>2015-12-25T16:30:35Z</time>
      </trkpt>
      <trkpt lat="45.54663" lon="6.04217">
        <ele>884.520249127</ele>
        <time>2015-12-25T16:30:45Z</time>
      </trkpt>
      <trkpt lat="45.54655" lon="6.04218">
        <ele>884.520249127</ele>
        <time>2015-12-25T16:30:51Z</time>
      </trkpt>
      <trkpt lat="45.54642" lon="6.0421">
        <ele>885.533400088</ele>
        <time>2015-12-25T16:31:06Z</time>
      </trkpt>
      <trkpt lat="45.5464" lon="6.04209">
        <ele>885.533400088</ele>
        <time>2015-12-25T16:31:10Z</time>
      </trkpt>
      <trkpt lat="45.54636" lon="6.04209">
        <ele>885.533400088</ele>
        <time>2015-12-25T16:31:15Z</time>
      </trkpt>
      <trkpt lat="45.54632" lon="6.0421">
        <ele>886.397075914</ele>
        <time>2015-12-25T16:31:20Z</time>
      </trkpt>
      <trkpt lat="45.54625" lon="6.04211">
        <ele>886.397075914</ele>
        <time>2015-12-25T16:31:25Z</time>
      </trkpt>
      <trkpt lat="45.5462" lon="6.04211">
        <ele>887.406579204</ele>
        <time>2015-12-25T16:31:30Z</time>
      </trkpt>
      <trkpt lat="45.54614" lon="6.04208">
        <ele>887.406579204</ele>
        <time>2015-12-25T16:31:35Z</time>
      </trkpt>
      <trkpt lat="45.54609" lon="6.04205">
        <ele>888.403129343</ele>
        <time>2015-12-25T16:31:40Z</time>
      </trkpt>
      <trkpt lat="45.54604" lon="6.04203">
        <ele>888.403129343</ele>
        <time>2015-12-25T16:31:45Z</time>
      </trkpt>
      <trkpt lat="45.54599" lon="6.04203">
        <ele>889.384094052</ele>
        <time>2015-12-25T16:31:50Z</time>
      </trkpt>
      <trkpt lat="45.54593" lon="6.04203">
        <ele>889.384094052</ele>
        <time>2015-12-25T16:31:55Z</time>
      </trkpt>
      <trkpt lat="45.54588" lon="6.04201">
        <ele>890.059177131</ele>
        <time>2015-12-25T16:32:00Z</time>
      </trkpt>
      <trkpt lat="45.54576" lon="6.04202">
        <ele>890.448792981</ele>
        <time>2015-12-25T16:32:10Z</time>
      </trkpt>
      <trkpt lat="45.54568" lon="6.04206">
        <ele>890.448792981</ele>
        <time>2015-12-25T16:32:15Z</time>
      </trkpt>
      <trkpt lat="45.54554" lon="6.04213">
        <ele>891.581724961</ele>
        <time>2015-12-25T16:32:25Z</time>
      </trkpt>
      <trkpt lat="45.54548" lon="6.04212">
        <ele>891.581724961</ele>
        <time>2015-12-25T16:32:30Z</time>
      </trkpt>
      <trkpt lat="45.54538" lon="6.04215">
        <ele>892.103591759</ele>
        <time>2015-12-25T16:32:45Z</time>
      </trkpt>
      <trkpt lat="45.5453" lon="6.04216">
        <ele>892.103591759</ele>
        <time>2015-12-25T16:32:50Z</time>
      </trkpt>
      <trkpt lat="45.54519" lon="6.04219">
        <ele>892.923142988</ele>
        <time>2015-12-25T16:33:00Z</time>
      </trkpt>
      <trkpt lat="45.54512" lon="6.04222">
        <ele>892.923142988</ele>
        <time>2015-12-25T16:33:05Z</time>
      </trkpt>
      <trkpt lat="45.54501" lon="6.04223">
        <ele>893.296555287</ele>
        <time>2015-12-25T16:33:15Z</time>
      </trkpt>
      <trkpt lat="45.54496" lon="6.04226">
        <ele>893.296555287</ele>
        <time>2015-12-25T16:33:20Z</time>
      </trkpt>
      <trkpt lat="45.54482" lon="6.04232">
        <ele>894.409569592</ele>
        <time>2015-12-25T16:33:30Z</time>
      </trkpt>
      <trkpt lat="45.54476" lon="6.04236">
        <ele>894.409569592</ele>
        <time>2015-12-25T16:33:35Z</time>
      </trkpt>
      <trkpt lat="45.54467" lon="6.04237">
        <ele>895.629626987</ele>
        <time>2015-12-25T16:33:45Z</time>
      </trkpt>
      <trkpt lat="45.5447" lon="6.04231">
        <ele>895.629626987</ele>
        <time>2015-12-25T16:33:50Z</time>
      </trkpt>
      <trkpt lat="45.54471" lon="6.0423">
        <ele>895.629626987</ele>
        <time>2015-12-25T16:34:00Z</time>
      </trkpt>
      <trkpt lat="45.54466" lon="6.04232">
        <ele>895.794089582</ele>
        <time>2015-12-25T16:34:05Z</time>
      </trkpt>
      <trkpt lat="45.54456" lon="6.04235">
        <ele>895.702316679</ele>
        <time>2015-12-25T16:34:15Z</time>
      </trkpt>
      <trkpt lat="45.5445" lon="6.04239">
        <ele>895.702316679</ele>
        <time>2015-12-25T16:34:20Z</time>
      </trkpt>
      <trkpt lat="45.54432" lon="6.0425">
        <ele>895.663501355</ele>
        <time>2015-12-25T16:34:35Z</time>
      </trkpt>
      <trkpt lat="45.54426" lon="6.04254">
        <ele>895.663501355</ele>
        <time>2015-12-25T16:34:41Z</time>
      </trkpt>
      <trkpt lat="45.54418" lon="6.04262">
        <ele>895.675904735</ele>
        <time>2015-12-25T16:34:50Z</time>
      </trkpt>
      <trkpt lat="45.54413" lon="6.04266">
        <ele>895.675904735</ele>
        <time>2015-12-25T16:34:56Z</time>
      </trkpt>
      <trkpt lat="45.54402" lon="6.04275">
        <ele>895.737906392</ele>
        <time>2015-12-25T16:35:06Z</time>
      </trkpt>
      <trkpt lat="45.54397" lon="6.04279">
        <ele>895.737906392</ele>
        <time>2015-12-25T16:35:11Z</time>
      </trkpt>
      <trkpt lat="45.54387" lon="6.04287">
        <ele>895.703872035</ele>
        <time>2015-12-25T16:35:20Z</time>
      </trkpt>
      <trkpt lat="45.5438" lon="6.04292">
        <ele>895.703872035</ele>
        <time>2015-12-25T16:35:25Z</time>
      </trkpt>
      <trkpt lat="45.54371" lon="6.04299">
        <ele>895.29512468</ele>
        <time>2015-12-25T16:35:36Z</time>
      </trkpt>
      <trkpt lat="45.54368" lon="6.043">
        <ele>895.29512468</ele>
        <time>2015-12-25T16:35:40Z</time>
      </trkpt>
      <trkpt lat="45.54353" lon="6.0431">
        <ele>895.407484932</ele>
        <time>2015-12-25T16:35:55Z</time>
      </trkpt>
      <trkpt lat="45.54346" lon="6.04315">
        <ele>895.407484932</ele>
        <time>2015-12-25T16:36:01Z</time>
      </trkpt>
      <trkpt lat="45.54334" lon="6.04322">
        <ele>895.284352958</ele>
        <time>2015-12-25T16:36:11Z</time>
      </trkpt>
      <trkpt lat="45.54329" lon="6.04325">
        <ele>895.284352958</ele>
        <time>2015-12-25T16:36:16Z</time>
      </trkpt>
      <trkpt lat="45.54316" lon="6.04333">
        <ele>895.522426639</ele>
        <time>2015-12-25T16:36:26Z</time>
      </trkpt>
      <trkpt lat="45.54312" lon="6.04338">
        <ele>895.522426639</ele>
        <time>2015-12-25T16:36:30Z</time>
      </trkpt>
      <trkpt lat="45.54298" lon="6.04349">
        <ele>895.376601434</ele>
        <time>2015-12-25T16:36:45Z</time>
      </trkpt>
      <trkpt lat="45.54292" lon="6.04354">
        <ele>895.376601434</ele>
        <time>2015-12-25T16:36:50Z</time>
      </trkpt>
      <trkpt lat="45.54279" lon="6.04364">
        <ele>894.445838624</ele>
        <time>2015-12-25T16:37:01Z</time>
      </trkpt>
      <trkpt lat="45.54265" lon="6.04378">
        <ele>893.513669085</ele>
        <time>2015-12-25T16:37:15Z</time>
      </trkpt>
      <trkpt lat="45.54265" lon="6.04376">
        <ele>893.513669085</ele>
        <time>2015-12-25T16:37:20Z</time>
      </trkpt>
      <trkpt lat="45.54263" lon="6.04377">
        <ele>893.513669085</ele>
        <time>2015-12-25T16:37:31Z</time>
      </trkpt>
      <trkpt lat="45.54264" lon="6.04377">
        <ele>893.513669085</ele>
        <time>2015-12-25T16:37:35Z</time>
      </trkpt>
      <trkpt lat="45.5426" lon="6.04375">
        <ele>893.513669085</ele>
        <time>2015-12-25T16:37:45Z</time>
      </trkpt>
      <trkpt lat="45.5426" lon="6.04372">
        <ele>892.153183724</ele>
        <time>2015-12-25T16:38:00Z</time>
      </trkpt>
      <trkpt lat="45.5426" lon="6.04373">
        <ele>892.153183724</ele>
        <time>2015-12-25T16:38:06Z</time>
      </trkpt>
      <trkpt lat="45.54264" lon="6.04372">
        <ele>892.153183724</ele>
        <time>2015-12-25T16:38:16Z</time>
      </trkpt>
      <trkpt lat="45.54264" lon="6.04373">
        <ele>892.153183724</ele>
        <time>2015-12-25T16:38:21Z</time>
      </trkpt>
      <trkpt lat="45.54267" lon="6.04371">
        <ele>892.153183724</ele>
        <time>2015-12-25T16:38:32Z</time>
      </trkpt>
      <trkpt lat="45.54266" lon="6.04376">
        <ele>890.834689118</ele>
        <time>2015-12-25T16:38:35Z</time>
      </trkpt>
      <trkpt lat="45.54263" lon="6.0438">
        <ele>890.834689118</ele>
        <time>2015-12-25T16:38:40Z</time>
      </trkpt>
      <trkpt lat="45.54262" lon="6.04379">
        <ele>890.834689118</ele>
        <time>2015-12-25T16:38:45Z</time>
      </trkpt>
      <trkpt lat="45.54261" lon="6.04381">
        <ele>890.834689118</ele>
        <time>2015-12-25T16:38:50Z</time>
      </trkpt>
    </trkseg>
  </trk>
</gpx>